[[{"header":{"parameterUnit":"m.s-1","parameterCategory":1,"la1":30.6,"la2":28.766,"lo1":-90.7593,"lo2":-88.6598,"dy":0.0162,"dx":0.0183,"nx":116,"ny":114,"refTime":"2023-09-23T06:00:00:Z","depth":0,"parameterNumber":2,"parameterNumberName":"U-component_of_WINDS"},"data":[0.0,0.0,0.0,0.0,0.0,0.0,0.0,0.0,0.0,0.0,0.0,0.0,0.0,0.0,0.0,0.0,0.0,0.0,0.0,0.0,0.0,0.0,0.0,0.0,0.0,0.0,0.0,0.0,0.0,0.0,0.0,0.0,0.0,0.0,0.0,0.0,0.0,0.0,0.0,0.0,0.0,0.0,0.0,0.0,0.0,0.0,0.0,0.0,0.0,0.0,0.0,0.0,0.0,0.0,0.0,0.0,0.0,0.0,0.0,0.0,0.0,0.0,0.0,0.0,0.0,0.0,0.0,0.0,0.0,0.0,0.0,0.0,0.0,0.0,0.0,0.0,0.0,0.0,0.0,0.0,0.0,0.0,0.0,0.0,0.0,0.0,0.0,0.0,0.0,0.0,0.0,0.0,0.0,0.0,0.0,0.0,0.0,0.0,0.0,0.0,0.0,0.0,0.0,0.0,0.0,0.0,0.0,0.0,0.0,0.0,0.0,0.0,0.0,0.0,0.0,0.0,0.0,0.0,0.0,0.0,0.0,0.0,0.0,0.0,0.0,0.0,0.0,0.0,0.0,0.0,0.0,0.0,0.0,0.0,0.0,0.0,0.0,0.0,0.0,0.0,0.0,0.0,0.0,0.0,0.0,0.0,0.0,0.0,0.0,0.0,0.0,0.0,0.0,0.0,0.0,0.0,0.0,0.0,0.0,0.0,0.0,0.0,0.0,0.0,0.0,0.0,0.0,0.0,0.0,0.0,0.0,0.0,0.0,0.0,0.0,0.0,0.0,0.0,0.0,0.0,0.0,0.0,0.0,0.0,0.0,0.0,0.0,0.0,0.0,0.0,0.0,0.0,0.0,0.0,0.0,0.0,0.0,0.0,0.0,0.0,0.0,0.0,0.0,0.0,0.0,0.0,0.0,0.0,0.0,0.0,0.0,0.0,0.0,0.0,0.0,0.0,0.0,0.0,0.0,0.0,0.0,0.0,0.0,0.0,0.0,0.0,0.0,0.0,0.0,0.0,0.0,0.0,0.0,0.0,0.0,0.0,0.0,0.0,0.0,0.0,0.0,0.0,0.0,0.0,0.0,0.0,0.0,0.0,0.0,0.0,0.0,0.0,0.0,0.0,0.0,0.0,0.0,0.0,0.0,0.0,0.0,0.0,0.0,0.0,0.0,0.0,0.0,0.0,0.0,0.0,0.0,0.0,0.0,0.0,0.0,0.0,0.0,0.0,0.0,0.0,0.0,0.0,0.0,0.0,0.0,0.0,0.0,0.0,0.0,0.0,0.0,0.0,0.0,0.0,0.0,0.0,0.0,0.0,0.0,0.0,0.0,0.0,0.0,0.0,0.0,0.0,0.0,0.0,0.0,0.0,0.0,0.0,0.0,0.0,0.0,0.0,0.0,0.0,0.0,0.0,0.0,0.0,0.0,0.0,0.0,0.0,0.0,0.0,0.0,0.0,0.0,0.0,0.0,0.0,0.0,0.0,0.0,0.0,0.0,0.0,0.0,0.0,0.0,0.0,0.0,0.0,0.0,0.0,0.0,0.0,0.0,0.0,0.0,0.0,0.0,0.0,0.0,0.0,0.0,0.0,0.0,0.0,0.0,0.0,0.0,0.0,0.0,0.0,0.0,0.0,0.0,0.0,0.0,0.0,0.0,0.0,0.0,0.0,0.0,0.0,0.0,0.0,0.0,0.0,0.0,0.0,0.0,0.0,0.0,0.0,0.0,0.0,0.0,0.0,0.0,0.0,0.0,0.0,0.0,0.0,0.0,0.0,0.0,0.0,0.0,0.0,0.0,0.0,0.0,0.0,0.0,0.0,0.0,0.0,0.0,0.0,0.0,0.0,0.0,0.0,0.0,0.0,0.0,0.0,0.0,0.0,0.0,0.0,0.0,0.0,0.0,0.0,0.0,0.0,0.0,0.0,0.0,0.0,0.0,0.0,0.0,0.0,0.0,0.0,0.0,0.0,0.0,0.0,0.0,0.0,0.0,0.0,0.0,0.0,0.0,0.0,0.0,0.0,0.0,0.0,0.0,0.0,0.0,0.0,0.0,0.0,0.0,0.0,0.0,0.0,0.0,0.0,0.0,0.0,0.0,0.0,0.0,0.0,0.0,0.0,0.0,0.0,0.0,0.0,0.0,0.0,0.0,0.0,0.0,0.0,0.0,0.0,0.0,0.0,0.0,0.0,0.0,0.0,0.0,0.0,0.0,0.0,0.0,0.0,0.0,0.0,0.0,0.0,0.0,0.0,0.0,0.0,0.0,0.0,0.0,0.0,0.0,0.0,0.0,0.0,0.0,0.0,0.0,0.0,0.0,0.0,0.0,0.0,0.0,0.0,0.0,0.0,0.0,0.0,0.0,0.0,0.0,0.0,0.0,0.0,0.0,0.0,0.0,0.0,0.0,0.0,0.0,0.0,0.0,0.0,0.0,0.0,0.0,0.0,0.0,0.0,0.0,0.0,0.0,0.0,0.0,0.0,0.0,0.0,0.0,0.0,0.0,0.0,0.0,0.0,0.0,0.0,0.0,0.0,0.0,0.0,0.0,0.0,0.0,0.0,0.0,0.0,0.0,0.0,0.0,0.0,0.0,0.0,0.0,0.0,0.0,0.0,0.0,0.0,0.0,0.0,0.0,0.0,0.0,0.0,0.0,0.0,0.0,0.0,0.0,0.0,0.0,0.0,0.0,0.0,0.0,0.0,0.0,0.0,0.0,0.0,0.0,0.0,0.0,0.0,0.0,0.0,0.0,0.0,0.0,0.0,0.0,0.0,0.0,0.0,0.0,0.0,0.0,0.0,0.0,0.0,0.0,0.0,0.0,0.0,0.0,0.0,0.0,0.0,0.0,0.0,0.0,0.0,0.0,0.0,0.0,0.0,0.0,0.0,0.0,0.0,0.0,0.0,0.0,0.0,0.0,0.0,0.0,0.0,0.0,0.0,0.0,0.0,0.0,0.0,0.0,0.0,0.0,0.0,0.0,0.0,0.0,0.0,0.0,0.0,0.0,0.0,0.0,0.0,0.0,0.0,0.0,0.0,0.0,0.0,0.0,0.0,0.0,0.0,0.0,0.0,0.0,0.0,0.0,0.0,0.0,0.0,0.0,0.0,0.0,0.0,0.0,0.0,0.0,0.0,0.0,0.0,0.0,0.0,0.0,0.0,0.0,0.0,0.0,0.0,0.0,0.0,0.0,0.0,0.0,0.0,0.0,0.0,0.0,0.0,0.0,0.0,0.0,0.0,0.0,0.0,0.0,0.0,0.0,0.0,0.0,0.0,0.0,0.0,0.0,0.0,0.0,0.0,0.0,0.0,0.0,0.0,0.0,0.0,0.0,0.0,0.0,0.0,0.0,0.0,0.0,0.0,0.0,0.0,0.0,0.0,0.0,0.0,0.0,0.0,0.0,0.0,0.0,0.0,0.0,0.0,0.0,0.0,0.0,0.0,0.0,0.0,0.0,0.0,0.0,0.0,0.0,0.0,0.0,0.0,0.0,0.0,0.0,0.0,0.0,0.0,0.0,0.0,0.0,0.0,0.0,0.0,0.0,0.0,0.0,0.0,0.0,0.0,0.0,0.0,0.0,0.0,0.0,0.0,0.0,0.0,0.0,0.0,0.0,0.0,0.0,0.0,0.0,0.0,0.0,0.0,0.0,0.0,0.0,0.0,0.0,0.0,0.0,0.0,0.0,0.0,0.0,0.0,0.0,0.0,0.0,0.0,0.0,0.0,0.0,0.0,0.0,0.0,0.0,0.0,0.0,0.0,0.0,0.0,0.0,0.0,0.0,0.0,0.0,0.0,0.0,0.0,0.0,0.0,0.0,0.0,0.0,0.0,0.0,0.0,0.0,0.0,0.0,0.0,0.0,0.0,0.0,0.0,0.0,0.0,0.0,0.0,0.0,0.0,0.0,0.0,0.0,0.0,0.0,0.0,0.0,0.0,0.0,0.0,0.0,0.0,0.0,0.0,0.0,0.0,0.0,0.0,0.0,0.0,0.0,0.0,0.0,0.0,0.0,0.0,0.0,0.0,0.0,0.0,0.0,0.0,0.0,0.0,0.0,0.0,0.0,0.0,0.0,0.0,0.0,0.0,0.0,0.0,0.0,0.0,0.0,0.0,0.0,0.0,0.0,0.0,0.0,0.0,0.0,0.0,0.0,0.0,0.0,0.0,0.0,0.0,0.0,0.0,0.0,0.0,0.0,0.0,0.0,0.0,0.0,0.0,0.0,0.0,0.0,0.0,0.0,0.0,0.0,0.0,0.0,0.0,0.0,0.0,0.0,0.0,0.0,0.0,0.0,0.0,0.0,0.0,0.0,0.0,0.0,0.0,0.0,0.0,0.0,0.0,0.0,0.0,0.0,0.0,0.0,0.0,0.0,0.0,0.0,0.0,0.0,0.0,0.0,0.0,0.0,0.0,0.0,0.0,0.0,0.0,0.0,0.0,0.0,0.0,0.0,0.0,0.0,0.0,0.0,0.0,0.0,0.0,0.0,0.0,0.0,0.0,0.0,0.0,0.0,0.0,0.0,0.0,0.0,0.0,0.0,0.0,0.0,0.0,0.0,0.0,0.0,0.0,0.0,0.0,0.0,0.0,0.0,0.0,0.0,0.0,0.0,0.0,0.0,0.0,0.0,0.0,0.0,0.0,0.0,0.0,0.0,0.0,0.0,0.0,0.0,0.0,0.0,0.0,0.0,0.0,0.0,0.0,0.0,0.0,0.0,0.0,0.0,0.0,0.0,0.0,0.0,0.0,0.0,0.0,0.0,0.0,0.0,0.0,0.0,0.0,0.0,0.0,0.0,0.0,0.0,0.0,0.0,0.0,0.0,0.0,0.0,0.0,0.0,0.0,0.0,0.0,0.0,0.0,0.0,0.0,0.0,0.0,0.0,0.0,0.0,0.0,0.0,0.0,0.0,0.0,0.0,0.0,0.0,0.0,0.0,0.0,0.0,0.0,0.0,0.0,0.0,0.0,0.0,0.0,0.0,0.0,0.0,0.0,0.0,0.0,0.0,0.0,0.0,0.0,0.0,0.0,0.0,0.0,0.0,0.0,0.0,0.0,0.0,0.0,0.0,0.0,0.0,0.0,0.0,0.0,0.0,0.0,0.0,0.0,0.0,0.0,0.0,0.0,0.0,0.0,0.0,0.0,0.0,0.0,0.0,0.0,0.0,0.0,0.0,0.0,0.0,0.0,0.0,0.0,0.0,0.0,0.0,0.0,0.0,0.0,0.0,0.0,0.0,0.0,0.0,0.0,0.0,0.0,0.0,0.0,0.0,0.0,0.0,0.0,0.0,0.0,0.0,0.0,0.0,0.0,0.0,0.0,0.0,0.0,0.0,0.0,0.0,0.0,0.0,0.0,0.0,0.0,0.0,0.0,0.0,0.0,0.0,0.0,0.0,0.0,0.0,0.0,0.0,0.0,0.0,0.0,0.0,0.0,0.0,0.0,0.0,0.0,0.0,0.0,0.0,0.0,0.0,0.0,0.0,0.0,0.0,0.0,0.0,0.0,0.0,0.0,0.0,0.0,0.0,0.0,0.0,0.0,0.0,0.0,0.0,0.0,0.0,0.0,0.0,0.0,0.0,0.0,0.0,0.0,0.0,0.0,0.0,0.0,0.0,0.0,0.0,0.0,0.0,0.0,0.0,0.0,0.0,0.0,0.0,0.0,0.0,0.0,0.0,0.0,0.0,0.0,0.0,0.0,0.0,0.0,0.0,0.0,0.0,0.0,0.0,0.0,0.0,0.0,0.0,0.0,0.0,0.0,0.0,0.0,0.0,0.0,0.0,0.0,0.0,0.0,0.0,0.0,0.0,0.0,0.0,0.0,0.0,0.0,0.0,0.0,0.0,0.0,0.0,0.0,0.0,0.0,0.0,0.0,0.0,0.0,0.0,0.0,0.0,0.0,0.0,0.0,0.0,0.0,0.0,0.0,0.0,0.0,0.0,0.0,0.0,0.0,0.0,0.0,0.0,0.0,0.0,0.0,0.0,0.0,0.0,0.0,0.0,0.0,0.0,0.0,0.0,0.0,0.0,0.0,0.0,0.0,0.0,0.0,0.0,0.0,0.0,0.0,0.0,0.0,0.0,0.0,1.2515,1.1904,0.0,0.0,0.0,0.0,0.0,0.0,0.0,0.0,0.0,0.0,0.0,0.0,0.0,0.0,0.0,0.0,0.0,0.0,0.0,0.0,0.0,0.0,0.0,0.0,0.0,0.0,0.0,0.0,0.0,0.0,0.0,0.0,0.0,0.0,0.0,0.0,0.0,0.0,0.3404,0.2719,0.164,0.2642,0.3646,0.463,0.0,0.0,0.0,0.0,0.0,0.0,0.0,0.0,0.0,0.0,0.0,0.0,0.0,0.0,0.0,0.0,0.0,0.0,0.0,0.0,0.0,0.0,0.0,0.0,0.0,0.0,0.0,0.0,0.0,0.0,0.0,0.0,0.0,0.0,0.0,0.0,0.0,0.0,0.0,0.0,0.0,0.0,0.0,0.0,0.0,0.0,0.0,0.0,0.0,0.0,0.0,0.0,0.0,0.0,0.0,0.0,0.0,0.0,0.0,0.0,0.0,0.0,0.0,0.0,0.0,0.0,0.0,0.0,0.0,0.0,1.5353,1.4403,0.0,0.0,0.0,0.0,0.0,0.0,0.0,0.0,0.0,0.0,0.0,0.0,0.0,0.0,0.0,0.0,0.0,0.0,0.0,0.0,0.0,0.0,0.0,0.3866,0.4076,0.4636,0.466,0.4694,0.0,0.0,0.0,0.0,0.0,0.0,0.0,0.395,0.3931,0.3941,0.2051,0.0848,0.0298,0.0613,0.1729,0.3546,0.4931,0.0,0.0,0.0,0.0,0.0,0.0,0.0,0.0,0.0,0.0,0.0,0.0,0.0,0.0,0.0,0.0,0.0,0.0,0.0,0.0,0.0,0.0,0.0,0.0,0.0,0.0,0.0,0.0,0.0,0.0,0.0,0.0,0.0,0.0,0.0,0.0,0.0,0.0,0.0,0.0,0.0,0.0,0.0,0.0,0.0,0.0,0.0,0.0,0.0,0.0,0.0,0.0,0.0,0.0,0.0,0.0,0.0,0.0,0.0,0.0,0.0,0.0,0.0,1.7449,1.7751,1.8158,1.8816,1.9096,1.9031,1.8563,1.7563,1.6204,1.5263,0.0,0.0,0.0,0.0,0.0,0.0,0.0,0.0,0.0,0.0,0.0,0.0,0.0,0.0,0.0,0.0,0.0,0.0,0.0,0.0,0.0,0.4496,0.4689,0.539,0.5039,0.4927,0.5279,0.0,0.0,0.0,0.0,0.0,0.4911,0.508,0.4176,0.2144,-0.1943,-0.3579,-0.2889,-0.2674,-0.1994,-0.0814,0.2566,0.4855,0.6177,0.0,0.0,0.0,0.0,0.0,0.0,0.0,0.0,0.0,0.0,0.0,0.0,0.0,0.0,0.0,0.0,0.0,0.0,0.0,0.0,0.0,0.0,0.0,0.0,0.0,0.0,0.0,0.0,0.0,0.0,0.0,0.0,0.0,0.0,0.0,0.0,0.0,0.0,0.0,0.0,0.0,1.1219,1.1004,0.0,0.0,0.0,0.0,0.0,0.0,0.0,0.0,0.0,0.0,0.0,0.0,0.0,1.7623,1.8199,1.9416,1.9777,1.9301,1.9914,1.9929,1.9471,2.0139,2.0453,2.0483,2.0846,0.0,1.8097,1.6233,0.0,0.0,0.0,0.0,0.0,0.0,0.0,0.0,0.0,0.0,0.0,0.0,0.0,0.0,0.0,0.0,0.0,0.0,0.0,0.0,0.0,0.2204,0.1042,0.1822,-0.1179,-0.1428,0.2549,0.1296,0.0,0.0,0.0,0.4964,0.5368,0.4035,0.1321,-0.2745,-0.4718,-0.6042,-0.67,-0.6216,-0.5088,-0.3326,-0.096,0.1766,0.4578,0.4661,0.0,0.0,0.0,0.0,0.0,0.0,0.0,0.0,0.0,0.0,0.0,0.0,0.0,0.0,0.0,0.0,0.0,0.0,0.0,0.0,0.0,0.0,0.0,0.0,0.0,0.0,0.0,0.0,0.0,0.0,0.0,0.0,0.0,0.0,0.0,0.0,0.0,0.0,0.0,1.1835,1.3188,1.2941,1.3825,1.39,0.0,0.0,0.0,0.0,0.0,0.0,0.0,0.0,0.0,1.7243,1.9481,2.0654,2.0504,2.1759,2.2214,2.1889,2.2188,2.2173,2.1904,2.2607,2.2864,2.2879,2.3135,2.2763,2.1774,1.9001,1.7989,1.8082,0.0,0.0,0.0,0.0,1.6578,1.7452,0.0,0.0,0.0,0.0,0.0,0.0,0.0,0.0,0.0,0.0,0.0,0.0,0.2803,-0.0749,-0.2927,-0.25,-0.6347,-0.614,0.0207,-0.1023,0.034,0.5608,0.5562,0.5627,0.6034,0.2683,-0.1556,-0.6636,-0.755,-0.8783,-1.0259,-0.9587,-0.8162,-0.6089,-0.433,-0.1158,0.2903,0.3265,0.3979,0.4888,0.0,0.0,0.0,0.0,0.0,0.0,0.0,0.0,0.0,0.0,0.0,0.0,0.0,0.0,0.0,0.0,0.0,0.0,0.0,0.0,0.0,0.0,0.0,0.0,0.0,0.0,0.0,0.0,0.0,0.0,0.0,0.0,0.0,0.0,0.0,0.0,0.0,1.3301,1.4611,1.426,1.5192,1.542,0.0,0.0,0.0,0.0,0.0,0.0,1.7318,1.9073,2.0086,2.0182,2.234,2.3233,2.2697,2.3804,2.4283,2.4103,2.4103,2.4103,2.4133,2.4642,2.4881,2.4881,2.4881,2.4881,2.4612,2.1615,2.0199,1.9752,1.8435,1.8,1.8074,1.7796,1.8391,1.9415,0.0,0.0,0.0,0.0,0.0,0.0,0.0,0.0,0.0,0.0,0.0,0.1054,-0.0741,-0.3688,-0.5759,-0.6358,-0.708,-0.5324,-0.0197,0.0144,0.1948,0.6001,0.6092,0.6416,0.7193,0.1719,-0.3239,-0.7526,-1.0972,-1.2846,-1.3171,-1.2502,-1.1448,-0.9995,-0.698,-0.2891,0.1788,0.1809,0.2748,0.4334,0.5282,0.0,0.0,0.0,0.0,0.0,0.0,0.0,0.0,0.0,0.0,0.0,0.0,0.0,0.0,0.0,0.0,0.0,0.0,0.0,0.0,0.0,0.0,0.0,0.0,0.0,0.0,0.0,0.0,0.0,0.0,0.0,0.0,0.0,0.0,0.0,0.0,0.0,0.0,1.3782,1.6516,0.0,0.0,0.0,0.0,1.7527,1.8353,1.9375,2.0511,2.1858,2.284,2.334,2.4732,2.545,2.5405,2.6093,2.6123,2.551,2.551,2.551,2.551,2.554,2.5555,2.5555,2.5555,2.5555,2.5405,2.337,2.2862,2.3221,2.1813,2.1654,2.204,2.0777,2.0748,2.1282,0.0,0.0,0.0,0.0,0.0,0.0,0.0,0.0,0.5087,0.5781,0.2659,0.0024,-0.0905,-0.6513,-1.0419,-1.0894,-1.371,-1.289,-0.6848,-0.4972,-0.1757,0.3468,0.607,0.5416,0.121,-0.2793,-0.7165,-1.1908,-1.2724,-1.3554,-1.4344,-1.3416,-1.2542,-1.1639,-0.9163,-0.6269,-0.3075,-0.0497,0.1586,0.3161,0.3643,0.435,0.0,0.0,0.0,0.0,0.0,0.0,0.0,0.0,0.0,0.0,0.0,0.0,0.0,0.0,0.0,0.0,0.0,0.0,0.0,0.0,0.0,0.0,0.0,0.0,0.0,0.0,0.0,0.0,0.0,0.0,0.0,0.0,0.0,0.0,0.0,0.0,0.0,1.7272,1.8862,0.0,1.874,1.8714,1.9,1.9662,2.0783,2.1949,2.3188,2.4522,2.5736,2.6782,2.7694,2.8158,2.8158,2.7979,2.7769,2.753,2.7081,2.7096,2.753,2.753,2.7769,2.8143,2.7724,2.753,2.744,2.6303,2.5211,2.4134,2.3223,2.3014,2.3208,2.3135,2.3284,2.3463,0.0,0.0,0.0,0.0,0.0,0.0,0.0,0.0,0.5249,0.4899,0.1489,-0.1789,-0.4086,-1.0093,-1.4303,-1.5178,-1.7442,-1.5826,-0.8773,-0.6243,-0.2228,0.4053,0.5473,0.2678,-0.4667,-0.6829,-1.0059,-1.4539,-1.4087,-1.4333,-1.5212,-1.457,-1.4099,-1.3686,-1.149,-0.9128,-0.654,-0.2911,-0.0074,0.2012,0.2777,0.3946,0.5221,0.0,0.0,0.0,0.0,0.0,0.0,0.0,0.0,0.0,0.0,0.0,0.0,0.0,0.0,0.0,0.0,0.0,0.0,0.0,0.0,0.0,0.0,0.0,0.0,0.0,0.0,0.0,0.0,0.0,0.0,0.0,0.0,0.0,0.0,1.75,1.9538,2.0253,2.1505,2.2278,2.2119,2.1854,2.2004,2.2705,2.3743,2.4807,2.5914,2.7006,2.8008,2.8906,2.9564,2.9789,2.9579,2.9355,2.9146,2.8921,2.8472,2.8487,2.8936,2.8936,2.916,2.9564,2.9116,2.8936,2.8876,2.8188,2.7156,2.5884,2.4956,2.4612,2.4642,2.4881,2.4956,2.4926,0.0,0.0,0.0,0.0,0.0,0.0,0.0,0.5756,0.523,0.2282,-0.0456,-0.4395,-1.0357,-1.4199,-1.709,-1.8915,-1.757,-1.3298,-0.5466,-0.3128,0.1002,0.7841,0.4131,-0.1796,-0.9666,-1.0057,-1.1789,-1.507,-1.5166,-1.5484,-1.5949,-1.6146,-1.6272,-1.6256,-1.3994,-1.1295,-0.8243,-0.539,-0.2232,0.0976,0.2814,0.4237,0.5344,0.0,0.0,0.0,0.0,0.0,0.0,0.0,0.0,0.0,0.0,0.0,0.0,0.0,0.0,0.0,0.0,0.0,0.0,0.0,0.0,0.0,0.0,0.0,0.0,0.0,0.0,0.0,0.0,0.0,0.0,0.0,0.0,0.0,1.7257,1.9229,2.1139,2.2401,2.4432,2.545,2.4746,2.5315,2.5959,2.6572,2.7245,2.7934,2.8622,2.9265,2.9624,2.9639,3.0223,3.0253,2.9654,3.0223,3.0223,2.9639,2.9609,2.9609,2.9639,2.9624,2.9624,2.9639,2.9624,2.9609,2.9564,2.8906,2.8622,2.8502,2.7141,2.6617,2.6542,2.5899,2.5674,2.557,0.0,0.0,0.0,0.0,0.0,0.0,0.0,0.6015,0.5601,0.4291,0.0104,-0.4367,-0.8611,-1.2712,-1.6014,-1.8106,-1.6215,-1.303,-0.8644,-0.3562,0.0897,0.4516,-0.1527,-0.6739,-1.0527,-1.2856,-1.4827,-1.6373,-1.6113,-1.6262,-1.6765,-1.6979,-1.7218,-1.7382,-1.5523,-1.3413,-1.1021,-0.7375,-0.4106,-0.1132,0.1324,0.3173,0.456,0.0,0.0,0.0,0.0,0.0,0.0,0.0,0.0,0.0,0.0,0.0,0.0,0.0,0.0,0.0,0.0,0.0,0.0,0.0,0.0,0.0,0.0,0.0,0.0,0.0,0.0,0.0,0.0,0.0,0.0,0.0,1.7318,1.9387,1.9561,2.2274,2.4747,2.6016,2.7141,2.7515,2.6826,2.738,2.7649,2.732,2.8382,2.931,2.9939,3.0148,3.0477,3.0986,3.1165,3.1165,3.1001,3.0672,3.0672,3.0986,3.0028,3.0073,3.0986,3.0477,3.0522,3.0971,3.0462,3.0253,3.0193,2.9564,2.931,2.9175,2.7829,2.7355,2.7275,2.7096,2.7036,2.6931,0.0,0.0,0.0,0.0,0.0,0.0,0.0,0.6513,0.5871,0.3654,0.0233,-0.3861,-0.8759,-1.1865,-1.4307,-1.6056,-1.2838,-0.9283,-0.5855,-0.1014,0.0909,-0.0939,-0.5962,-1.0038,-1.2887,-1.4984,-1.6238,-1.661,-1.6394,-1.6669,-1.7366,-1.8008,-1.8459,-1.8689,-1.7243,-1.5305,-1.2875,-0.9243,-0.6259,-0.3665,-0.1029,0.1721,0.4274,0.4412,0.5197,0.6188,0.6047,0.5964,0.5957,0.5952,0.0,0.0,0.0,0.0,0.0,0.0,0.0,0.0,0.0,0.0,0.0,0.0,0.0,0.0,0.0,0.0,0.0,0.0,0.0,0.0,0.0,0.0,0.0,0.0,1.9859,2.2417,2.3355,2.5001,2.6771,2.8577,2.916,2.9355,2.9235,2.9594,2.9654,2.9265,2.9953,3.0552,3.0911,3.0941,3.112,3.1467,3.1482,3.1601,3.1943,3.127,3.142,3.2332,3.1031,3.0941,3.1928,3.1524,3.1569,3.1943,3.1809,3.1599,3.13,3.0657,3.0223,2.9864,0.0,0.0,0.0,0.0,2.7625,2.752,0.0,0.0,0.0,0.0,0.0,0.0,0.0,0.714,0.6147,0.1811,0.0296,-0.288,-0.9449,-1.1053,-1.208,-1.3244,-0.8688,-0.4084,-0.0177,0.2084,0.0176,-0.679,-0.9352,-1.2265,-1.5854,-1.6484,-1.6646,-1.6363,-1.6472,-1.6936,-1.7776,-1.9026,-1.9724,-1.9879,-1.8885,-1.6933,-1.4183,-1.0953,-0.836,-0.6202,-0.3565,0.005,0.3905,0.3776,0.4622,0.5866,0.6421,0.6181,0.5653,0.6257,0.0,0.0,0.0,0.0,0.0,0.0,0.0,0.0,0.0,0.0,0.0,0.0,0.0,0.0,0.0,0.0,0.0,0.0,0.0,0.0,0.0,0.0,0.0,0.0,2.2662,2.5679,2.7665,2.7395,2.7934,3.0328,3.0552,3.0717,3.1255,3.1375,3.139,3.1315,3.1392,3.1482,3.1482,3.1482,0.0,0.0,0.0,3.1824,3.2392,3.1898,3.2273,3.3484,3.2317,3.2093,3.2736,3.2662,3.2617,3.2662,3.3245,3.3155,3.2587,3.2003,3.139,3.0761,2.9909,2.922,2.8637,2.8023,2.785,2.7745,0.0,0.0,0.0,0.0,0.0,0.0,0.0,0.7797,0.6769,0.2678,0.1482,-0.103,-0.6401,-0.8032,-0.9347,-1.0893,-0.7204,-0.3246,0.0327,-0.2038,-0.4804,-0.7523,-1.1551,-1.4629,-1.6566,-1.7002,-1.7253,-1.7401,-1.7687,-1.791,-1.8058,-1.9273,-1.9886,-1.9964,-1.9476,-1.8113,-1.5965,-1.2327,-0.9463,-0.7086,-0.4281,-0.13,0.1498,0.2516,0.4138,0.5779,0.5641,0.5805,0.6144,0.6584,0.6881,0.7264,0.8299,0.8243,0.0,0.0,0.0,0.0,0.0,0.0,0.0,0.0,0.0,0.0,0.0,0.0,0.0,0.0,0.0,0.0,0.0,0.0,0.0,2.384,2.6031,2.8029,2.9711,2.9834,3.0133,3.121,3.0851,3.0357,2.9998,3.0417,3.0492,2.9998,3.0941,3.1482,3.1482,3.1482,3.1482,3.1482,3.1482,3.1541,3.1719,3.2123,3.2721,3.3499,3.3245,0.0,3.4083,3.3544,3.3305,3.3305,3.344,3.3425,3.3305,3.317,3.3036,3.2691,3.0462,2.9505,2.937,2.9235,2.919,2.9101,0.0,0.0,0.0,0.0,0.0,0.0,0.0,0.7311,0.6514,0.4289,0.3396,0.1668,-0.1737,-0.2778,-0.3689,-0.4797,-0.2541,-0.0303,0.1431,-0.2872,-0.6782,-0.9633,-1.2891,-1.4892,-1.5445,-1.5813,-1.6166,-1.6491,-1.6954,-1.7362,-1.7771,-1.8904,-1.9524,-1.9635,-1.9373,-1.8298,-1.6483,-1.3483,-1.1048,-0.8937,-0.6089,-0.3489,-0.1083,0.1096,0.2783,0.4095,0.5052,0.528,0.5306,0.6616,0.7054,0.7342,0.8732,0.9009,0.8856,0.0,0.0,0.0,0.0,0.0,0.0,0.0,0.0,0.0,0.0,0.0,0.0,0.0,0.0,1.8466,2.038,0.0,2.522,2.6471,2.8426,2.9956,3.0418,3.0806,3.115,3.1437,3.1225,3.0896,3.0597,3.0836,3.0896,3.0582,3.1165,3.1482,3.1482,3.1482,3.1482,3.1482,3.1482,3.1631,3.2018,3.2347,3.3006,3.3978,3.3649,3.3844,3.4472,3.4128,3.3978,3.4008,3.4352,3.4307,3.3963,3.3634,3.3499,3.3365,3.2048,3.1135,3.0477,2.9819,2.9579,2.949,0.0,0.0,0.0,0.0,0.0,0.0,0.0,0.6781,0.6207,0.5558,0.5007,0.4081,0.253,0.1991,0.1733,0.1725,0.1739,0.1864,0.2172,-0.2986,-0.7683,-1.1313,-1.346,-1.4392,-1.4009,-1.4465,-1.49,-1.5298,-1.5831,-1.6406,-1.7073,-1.8162,-1.8968,-1.9408,-1.8764,-1.7928,-1.6837,-1.4149,-1.201,-1.0187,-0.7635,-0.5441,-0.3436,-0.0769,0.1054,0.2449,0.4239,0.4457,0.4216,0.6228,0.6959,0.7317,0.8843,0.9614,0.9857,0.9586,1.0342,0.0,0.0,0.0,0.0,0.0,0.0,0.0,0.0,1.5419,1.6389,1.8788,2.0666,2.2357,2.3968,2.6475,2.8388,2.8751,3.0386,3.1404,3.0764,3.1061,3.1345,3.1345,3.1345,3.1345,3.1345,3.1345,3.1345,3.1345,3.1584,3.1661,3.1661,3.1661,3.1661,3.1661,3.1661,3.1973,3.2512,3.2766,3.3425,3.4472,3.4068,3.4158,3.4666,3.4666,3.4666,3.4696,3.5265,3.519,3.4622,3.3963,3.3769,3.3858,3.3604,3.2931,3.1943,3.0642,3.0148,3.0043,0.0,0.0,0.0,0.0,0.0,0.0,0.0,0.0,0.6732,0.5252,0.5199,0.4977,0.413,0.3365,0.3671,0.5593,0.1849,-0.0042,0.1333,-0.4528,-0.8849,-1.0555,-1.2851,-1.3961,-1.367,-1.4347,-1.4892,-1.5305,-1.5769,-1.5943,-1.5837,-1.7016,-1.8419,-1.9812,-1.7605,-1.7169,-1.7864,-1.3765,-1.0846,-0.8783,-0.7219,-0.6067,-0.505,-0.3455,-0.0716,0.2221,0.2475,0.3064,0.3916,0.5005,0.6486,0.8125,0.9731,1.0493,1.0745,1.0584,1.0578,1.0336,0.9036,0.9839,1.1242,1.1877,1.3375,1.5633,0.0,2.0226,2.1248,2.4216,2.5878,2.7196,2.8526,3.0005,3.1276,3.187,3.2203,3.2143,3.1471,3.0956,3.0612,3.0612,3.0612,3.0612,3.0612,3.0612,3.0612,3.0612,3.1734,3.2407,3.2407,3.2407,3.2407,3.2407,3.2407,3.2437,3.2512,3.3664,3.4322,3.4487,3.5026,3.5325,3.5385,3.5385,3.5385,3.5385,3.5474,3.5459,3.534,3.4651,3.4726,3.516,3.3963,3.3769,3.3978,3.2677,3.2183,3.2003,0.0,0.0,0.0,0.0,0.0,0.0,0.0,0.0,0.0,0.6469,0.6568,0.693,0.7695,0.7493,0.7863,0.9295,0.4847,0.2356,0.3288,-0.2677,-0.7275,-0.9583,-1.0626,-1.1937,-1.3624,-1.3281,-1.3187,-1.3371,-1.3848,-1.3899,-1.354,-1.4691,-1.6214,-1.7886,-1.7651,-1.7207,-1.6465,-1.3073,-1.054,-0.8521,-0.6725,-0.5529,-0.479,-0.3993,-0.2144,0.0152,0.1365,0.2029,0.0,0.491,0.6158,0.7052,0.9122,0.9831,1.0017,1.0582,1.1144,1.1638,1.2127,1.2672,1.3576,1.5592,1.6897,1.8513,2.1677,2.2804,2.4063,2.7345,2.9026,3.0463,3.2199,3.3288,3.3703,3.3205,3.3166,3.2762,3.1637,3.0941,3.0372,3.0013,2.9968,3.0103,3.0477,3.0507,3.0672,3.1076,3.1629,3.2108,3.2497,3.2512,3.2691,3.308,3.308,3.308,3.308,3.4008,3.4472,3.4487,3.5175,3.5504,3.5504,3.5504,3.5504,3.5504,3.5504,3.5504,3.5489,3.519,3.525,3.5444,3.4891,3.4831,3.4861,3.3155,3.2512,3.2317,0.0,0.0,0.0,0.0,0.0,0.0,0.0,0.0,0.0,0.0,0.7551,0.8221,1.0051,1.0264,1.0534,1.1162,0.7457,0.507,0.4984,-0.0129,-0.4096,-0.6256,-0.7679,-0.9106,-1.0609,-1.1709,-1.1326,-0.9391,-0.9883,-0.9695,-0.8879,-0.9355,-1.1035,-1.3627,-1.3513,-1.3645,-1.3729,-1.1094,-0.9004,-0.7388,-0.5846,-0.4845,-0.4351,-0.431,-0.3369,-0.1765,0.0235,0.1326,0.2175,0.4897,0.6096,0.6848,0.8733,0.9466,0.98,1.0403,1.1104,1.2105,1.4063,1.4828,1.5761,1.8528,1.9851,2.1199,2.3984,2.5093,2.6489,2.9792,3.1367,3.2579,3.3892,3.4612,3.4612,3.3259,3.2879,3.2416,3.1381,3.0175,2.9342,2.9086,2.8591,2.8628,2.9624,3.0193,3.0717,3.121,3.1599,3.2018,3.2482,3.2691,3.3006,3.3484,3.3664,3.3769,3.3769,3.4427,3.4756,3.4756,3.5265,3.5504,3.5504,3.5504,3.5504,3.5504,3.5504,3.5504,3.5504,3.5504,3.5504,3.5504,3.5504,3.5504,3.531,3.3664,3.3051,3.2886,0.0,0.0,0.0,0.0,0.0,0.0,0.0,0.0,0.0,0.0,0.0,0.0,0.0,1.0155,1.0218,1.0241,0.8611,0.6978,0.5564,0.2493,0.069,0.0603,-0.4072,-0.5507,-0.2981,-0.9724,-0.9812,-0.2793,-0.3381,-0.2761,-0.1004,0.0234,-0.1843,-0.6548,-0.2731,-0.4342,-0.9689,-0.714,-0.5475,-0.4532,-0.4481,-0.4345,-0.4258,-0.4865,-0.4221,-0.2805,-0.1006,0.0964,0.2901,0.4499,0.6478,0.8431,0.9168,1.0044,1.0733,1.0175,1.0066,1.0628,1.3141,1.507,1.6898,1.9121,2.1362,2.3756,2.653,2.7644,2.8933,3.1885,3.3066,3.3377,3.2786,3.3208,3.3208,3.1894,3.1125,3.0649,3.0543,2.8351,2.6922,2.7584,2.6026,2.5599,2.7479,2.9385,3.0507,3.0537,3.1749,3.2497,3.2512,3.3125,3.3469,3.3499,3.4113,3.4442,3.4442,3.513,3.5474,3.5474,3.5489,3.5504,3.5504,3.5504,3.5504,3.5504,3.5504,3.5504,3.5504,3.5504,3.5504,3.5504,3.5504,3.5504,3.5415,3.4681,3.4412,3.4322,0.0,0.0,0.0,0.0,0.0,0.0,0.0,0.0,0.0,0.0,0.0,0.0,0.0,0.0,0.0,0.0,0.9034,0.8066,0.7518,0.5239,0.3043,0.1187,-0.0014,-0.1035,-0.1914,-0.2822,-0.187,0.101,0.1408,0.1834,0.2422,0.4783,0.2871,-0.2425,0.0323,-0.1372,-0.6253,-0.526,-0.4411,-0.3643,-0.3579,-0.2944,-0.2163,-0.3149,-0.243,-0.0728,0.0,0.1967,0.3423,0.5432,0.669,0.7594,0.8768,0.9309,0.9735,1.0789,1.1626,1.2775,1.5461,1.7405,1.9271,2.1888,2.3366,2.4949,2.7796,2.8609,2.9562,3.2663,3.1813,3.0765,3.1517,3.0142,2.8982,2.9245,2.9061,2.9181,2.9816,2.9149,2.8174,2.7081,2.6753,2.6362,2.5657,2.7395,2.9101,3.0402,3.0926,3.1764,3.3095,3.338,3.3903,3.4801,3.504,3.516,3.516,3.5385,3.5504,3.5504,3.5504,3.5504,3.5504,3.5504,3.5504,3.5504,3.5504,3.5504,3.5504,3.5504,3.5504,3.5504,3.5504,3.5504,3.5474,3.525,3.516,3.4996,0.0,0.0,0.0,0.0,0.0,0.0,0.0,0.0,0.0,0.0,0.0,0.0,0.0,0.0,0.0,0.0,0.0,0.9004,0.8633,0.737,0.5881,0.4237,0.3672,0.3086,0.2415,0.3605,0.3992,0.3522,0.4991,0.5383,0.4856,0.8191,0.6522,0.0838,0.273,0.0993,-0.334,-0.3217,-0.2854,-0.2311,-0.2269,-0.161,-0.0745,-0.1552,-0.0785,0.0,0.2183,0.3431,0.4725,0.6281,0.7002,0.7519,0.8966,0.9684,1.0302,1.2195,1.3459,1.4854,1.7488,1.9534,2.1512,2.3966,2.4983,2.5972,2.817,2.8608,2.922,3.124,3.0053,2.8674,2.8799,2.7181,2.602,2.6567,2.6722,2.7056,2.798,2.7965,2.7329,2.5966,2.6276,2.6145,2.5014,2.6321,2.7949,2.9699,3.0477,3.1539,3.3066,3.3365,3.3993,3.51,3.5385,3.5504,3.5504,3.5504,3.5504,3.5504,3.5504,3.5504,3.5504,3.5504,3.5504,3.5504,3.5504,3.5504,3.5504,3.5504,3.5504,3.5504,3.5504,3.5504,3.5504,3.5504,3.5504,3.5385,0.0,0.0,0.0,0.0,0.0,0.0,0.0,0.0,0.0,0.0,0.0,0.0,0.0,0.0,0.0,0.0,0.0,0.0,0.8904,0.8837,0.8992,0.9419,0.6797,0.6645,0.9454,0.8914,0.7417,0.4997,0.7436,0.7901,0.658,1.0535,0.9173,0.3467,0.477,0.3033,-0.0875,-0.096,-0.0799,-0.0531,-0.0668,-0.039,0.0083,-0.0118,0.0632,0.1968,0.3543,0.5219,0.6707,0.7007,0.7567,0.8412,0.9956,1.1253,1.2567,1.4288,1.5503,1.6782,1.9233,2.1481,2.3529,2.5247,2.6025,2.6713,2.7691,2.7886,2.788,2.7938,2.781,2.6963,2.4705,2.4332,2.4253,2.3989,2.4085,2.4502,2.543,2.5128,2.4718,2.454,2.4694,2.5034,2.5517,2.6217,2.721,2.8547,3.0372,3.1764,3.2527,3.3155,3.3814,3.4502,3.516,3.5504,3.5504,3.5504,3.5504,3.5504,3.5504,3.5504,3.5504,3.5504,3.5504,3.5504,3.5504,3.5504,3.5504,3.5504,3.5504,3.5504,3.5504,3.5504,3.5504,3.5504,3.5504,3.5504,0.0,0.0,0.0,0.0,0.0,0.0,0.0,0.0,0.0,0.0,0.0,0.0,0.0,0.0,0.0,0.0,0.0,0.0,0.9573,0.9178,0.8797,0.8481,0.765,0.7558,0.8324,0.8452,0.8225,0.7631,0.878,0.8787,0.7782,0.9992,0.9286,0.6177,0.5926,0.4538,0.2325,0.1183,0.0568,0.0367,0.0126,0.0728,0.1757,0.15,0.2448,0.4058,0.5117,0.6449,0.7759,0.8154,0.9702,1.1735,1.316,1.4242,1.5315,1.6953,1.8464,2.0048,2.1744,2.3541,2.5172,2.6025,2.6025,2.6112,2.7054,2.6579,2.6002,2.6209,2.453,2.2703,2.1712,2.0448,2.0104,2.1734,2.2322,2.3398,2.5715,2.6301,2.6328,2.5656,2.6061,2.6329,2.6136,2.714,2.8261,2.9241,2.9789,3.1001,3.3125,3.341,3.4038,3.5205,3.5415,3.5504,3.5504,3.5504,3.5504,3.5504,3.5504,3.5504,3.5504,3.5504,3.5504,3.5504,3.5504,3.5504,3.5504,3.5504,3.5504,3.5504,3.5504,3.5504,3.5504,3.5504,3.5504,3.5504,0.0,0.0,0.0,0.0,0.0,0.0,0.0,0.0,0.0,0.0,0.0,0.0,0.0,0.0,0.0,0.0,0.0,0.0,0.0,0.9333,0.884,0.8168,0.7615,0.699,0.6253,0.6017,0.5513,0.4703,0.64,0.6246,0.4397,0.6761,0.6642,0.4426,0.4099,0.3422,0.253,0.1659,0.1265,0.0,0.0,0.1734,0.2815,0.2869,0.3789,0.5228,0.6174,0.8082,1.0276,1.1409,1.2767,1.4296,1.6188,1.7208,1.809,2.0028,2.1336,2.2432,2.3568,2.4908,2.5988,2.6063,2.5661,2.5282,2.5439,2.4682,2.3786,2.3084,2.159,2.0182,1.9415,1.8498,1.8423,2.0101,2.1075,2.2324,2.4204,2.5556,2.6208,2.5871,2.6512,2.7,2.7059,2.7826,2.8795,2.9899,2.9959,3.0764,3.2779,3.2882,3.3485,3.4795,3.5279,3.5504,3.5504,3.5504,3.5504,3.5504,3.5504,3.5504,3.5504,3.5504,3.5504,3.5504,3.5504,3.5504,3.5504,3.5504,3.5504,3.5504,3.5504,3.5504,3.5504,3.5504,3.5504,3.5504,0.0,0.0,0.0,0.0,0.0,0.0,0.0,0.0,0.0,0.0,0.0,0.0,0.0,0.0,0.0,0.0,0.0,0.0,0.0,0.0,0.884,0.8064,0.7013,0.5691,0.41,0.3048,0.1662,-0.011,0.2502,0.235,-0.0343,0.2673,0.299,0.1065,0.1305,0.1452,0.1481,0.1514,0.1691,0.1938,0.205,0.2609,0.3482,0.0,0.4859,0.5991,0.7257,0.9861,1.2986,1.516,1.6021,1.6627,1.9082,2.0162,2.0923,2.3039,2.3905,2.4316,2.4785,2.5674,2.6395,2.5737,2.5096,2.4376,2.3553,2.2624,2.1415,1.9684,1.9151,1.8718,1.7801,1.7797,1.8249,1.9251,2.0313,2.1409,2.2508,2.407,2.5289,2.5744,2.6551,2.7366,2.8161,2.8341,2.9059,3.066,3.044,3.0778,3.2019,3.2141,3.2796,3.4134,3.5052,3.5504,3.5504,3.5504,3.5504,3.5504,3.5504,3.5504,3.5504,3.5504,3.5504,3.5504,3.5504,3.5504,3.5504,3.5504,3.5504,3.5504,3.5504,3.5504,3.5504,3.5504,3.5504,3.5504,0.0,0.0,0.0,0.0,0.0,0.0,0.0,0.0,0.0,0.0,0.9524,0.0,0.0,0.0,0.0,0.0,0.0,0.0,0.0,0.0,0.0,0.7242,0.6183,0.5051,0.3872,0.2752,0.1747,0.0868,0.1391,0.1284,0.0659,0.1466,0.183,0.1825,0.2042,0.2217,0.2404,0.2673,0.2683,0.2581,0.2925,0.3455,0.4101,0.4758,0.0,0.0,0.9631,1.1305,1.2893,1.5859,1.7959,1.9697,2.1964,2.3197,2.3937,2.4657,2.5244,2.559,2.5498,2.595,2.6395,2.5737,2.4506,2.3246,2.2782,2.0953,1.9169,1.8543,1.793,1.744,1.7298,1.7395,1.8145,2.0118,2.0257,2.1146,2.3961,2.4646,2.5382,2.6861,2.717,2.7861,2.9323,2.9107,2.9818,3.199,3.0725,3.0507,3.2033,3.2141,3.315,3.5169,3.5424,3.5504,3.5504,3.5504,3.5504,3.5504,3.5504,3.5504,3.5504,3.5504,3.5504,3.5504,3.5504,3.5504,3.5504,3.5504,3.5504,3.5504,3.5504,3.5504,3.5504,3.5504,3.5504,3.5504,0.0,0.0,0.0,0.0,0.0,0.0,0.0,0.0,0.0,0.9349,0.9341,0.935,0.0,0.0,0.0,0.0,0.0,0.0,0.0,0.0,0.0,0.0,0.0,0.0,0.3987,0.2973,0.1956,0.0883,0.0,0.1001,0.0817,0.1397,0.1927,0.2433,0.2632,0.2842,0.3078,0.3279,0.3315,0.326,0.3687,0.4378,0.5187,0.0,0.0,0.0,1.004,1.1576,1.3198,1.5228,1.7303,1.9556,2.2439,2.3704,2.4116,2.416,2.4833,2.5415,2.4805,2.557,2.6189,2.5046,2.3728,2.2305,2.0873,1.9078,1.7657,1.7211,1.6843,1.672,1.7131,1.7303,1.7832,1.912,1.9403,2.0393,2.3084,2.4001,2.5222,2.7444,2.7457,2.8061,3.0009,2.9778,3.0366,3.2333,3.1655,3.155,3.2536,3.2947,3.3835,3.5474,3.5504,3.5504,3.5504,3.5504,3.5504,3.5504,3.5504,3.5504,3.5504,3.5504,3.5504,3.5504,3.5504,3.5504,3.5504,3.5504,3.5504,3.5504,3.5504,3.5504,3.5504,3.5504,3.5504,3.5504,0.0,0.0,0.0,0.0,0.0,0.0,0.0,0.922,0.9229,0.9208,0.9122,0.9033,0.9019,0.9091,0.9068,0.0,0.0,0.0,0.0,0.0,0.0,0.0,0.0,0.0,0.4055,0.0,0.0,0.1069,0.1282,0.0,0.0,0.0,0.0,0.0,0.3226,0.3416,0.3619,0.373,0.3847,0.0,0.0,0.5152,0.6127,0.0,0.0,0.0,0.0,1.1482,1.3267,1.4323,1.5955,1.8053,2.0957,2.2372,2.291,2.2828,2.3793,2.4628,2.394,2.5052,2.5978,2.4255,2.2993,2.1553,1.9208,1.7758,1.6725,1.6202,1.6095,1.6309,1.7041,1.7215,1.744,1.8153,1.8494,1.9469,2.1865,2.3257,2.4962,2.7595,2.7961,2.869,3.0662,3.0634,3.1175,3.281,3.2931,3.3025,3.3143,3.3696,3.4461,3.5439,3.5504,3.5504,3.5504,3.5504,3.5504,3.5504,3.5504,3.5504,3.5504,3.5504,3.5504,3.5504,3.5504,3.5504,3.5504,3.5504,3.5504,3.5504,3.5504,3.5504,3.5504,3.5504,3.5504,3.5504,0.0,0.0,0.0,0.0,0.0,0.0,0.0,0.9001,0.8994,0.8946,0.8863,0.8741,0.8501,0.8579,0.8651,0.0,0.0,0.0,0.0,0.0,0.0,0.0,0.0,0.0,0.0,0.0,0.0,0.2246,0.2263,0.0,0.0,0.0,0.0,0.0,0.0,0.3984,0.3971,0.4285,0.0,0.0,0.0,0.0,0.0,0.0,0.0,0.0,0.0,1.1534,1.2664,1.3853,1.4912,1.5914,1.6969,1.8752,2.0604,2.1398,2.2674,2.3837,2.3974,2.4946,2.5491,2.3672,2.238,2.1077,1.9152,1.7727,1.6685,1.6199,1.6067,1.6237,1.7041,1.6868,1.7084,1.8579,1.8048,1.8588,2.1734,2.3171,2.4767,2.7087,2.897,3.0505,3.148,3.1907,3.2734,3.4183,3.4863,3.4644,3.3252,3.3681,3.4461,3.5439,3.5504,3.5504,3.5504,3.5504,3.5504,3.5504,3.5504,3.5504,3.5504,3.5504,3.5504,3.5504,3.5504,3.5504,3.5504,3.5504,3.5504,3.5504,3.5504,3.5504,3.5504,3.5504,3.5504,3.5504,0.0,0.0,0.0,0.0,0.0,0.0,0.0,0.899,0.8968,0.8863,0.8748,0.8579,0.8311,0.8256,0.8057,0.0,0.0,0.0,0.0,0.0,0.0,0.0,0.0,0.0,0.0,0.0,0.3407,0.3294,0.3308,0.0,0.0,0.0,0.0,0.0,0.0,0.424,0.406,0.4252,0.0,0.0,0.0,0.0,0.0,0.0,0.0,0.0,0.0,0.0,1.1433,1.1882,1.2338,1.2744,1.2769,1.3811,1.5342,1.7263,1.9476,2.1342,2.1416,2.3308,2.4721,2.2644,2.1293,1.9948,1.8055,1.6697,1.5858,1.5905,1.5955,1.6157,1.6685,1.6635,1.6776,1.7663,1.7455,1.8086,2.0639,2.174,2.3622,2.722,2.8365,3.0023,3.2942,3.3427,3.4191,3.5691,3.5599,3.524,3.4617,3.4773,3.5067,3.5504,3.5504,3.5504,3.5504,3.5504,3.5504,3.5504,3.5504,3.5504,3.5504,3.5504,3.5504,3.5504,3.5943,3.6165,3.6165,3.6165,3.6165,3.6117,3.5668,3.5504,3.5504,3.5504,3.5504,3.5504,0.0,0.0,0.0,0.0,0.0,0.8824,0.8902,0.8946,0.8913,0.8736,0.8587,0.8412,0.8178,0.7984,0.7573,0.6836,0.0,0.0,0.0,0.0,0.0,0.0,0.0,0.0,0.0,0.0,0.4372,0.422,0.4236,0.4307,0.0,0.0,0.4797,0.4844,0.0,0.0,0.0,0.0,0.0,0.0,0.0,0.0,0.0,0.0,0.0,0.0,0.0,0.0,0.0,0.0,0.0,1.0792,1.0179,1.0615,1.1749,1.3952,1.6534,1.8674,1.8729,2.1049,2.2992,2.0964,1.995,1.8943,1.7263,1.619,1.5594,1.5772,1.5926,1.6136,1.6448,1.6674,1.6871,1.7034,1.7395,1.8128,1.9493,2.085,2.283,2.5975,2.7257,2.919,3.2735,3.4056,3.5248,3.6589,3.5922,3.5504,3.5504,3.5504,3.5504,3.5504,3.5504,3.5504,3.5504,3.5504,3.5504,3.5504,3.5504,3.5504,3.5504,3.5504,3.5619,3.5831,3.6165,3.6508,3.6919,3.6446,3.6384,3.6554,3.5782,3.5504,3.5504,3.5504,3.5504,3.5504,0.0,0.0,0.0,0.0,0.0,0.0,0.0,0.8818,0.8801,0.8546,0.8387,0.8227,0.8025,0.7768,0.7315,0.6574,0.0,0.0,0.0,0.0,0.0,0.0,0.0,0.0,0.0,0.0,0.5116,0.4991,0.5049,0.5049,0.5011,0.5404,0.5453,0.5184,0.0,0.0,0.0,0.0,0.0,0.0,0.0,0.0,0.0,0.0,0.0,0.0,0.0,0.0,0.0,0.0,0.0,0.0,0.0,1.0054,1.0996,1.2333,1.4238,1.5992,1.6349,1.835,1.9977,1.8484,1.8295,1.8145,1.7153,1.6648,1.6288,1.5962,1.5998,1.6163,1.6448,1.7082,1.7444,1.7055,1.8058,1.8793,1.8534,2.1039,2.2821,2.2679,2.564,2.84,3.0288,3.3475,3.5845,3.6637,3.5922,3.5504,3.5504,3.5504,3.5504,3.5504,3.5504,3.5504,3.5504,3.5504,3.5504,3.5504,3.5504,3.5504,3.5504,3.5504,3.5894,3.6554,3.5831,3.6368,3.7648,3.6148,3.5943,3.6554,3.5782,3.5504,3.5504,3.5504,3.5504,3.5504,0.0,0.0,0.0,0.0,0.0,0.0,0.0,0.8672,0.8696,0.8533,0.7897,0.7425,0.7258,0.6599,0.604,0.5708,0.0,0.0,0.0,0.0,0.0,0.0,0.0,0.0,0.0,0.0,0.5366,0.5271,0.5156,0.5059,0.4991,0.5033,0.4916,0.465,0.4415,0.4278,0.0,0.0,0.0,0.0,0.0,0.0,0.7205,0.0,0.0,0.0,0.0,0.0,0.0,0.0,0.0,0.0,0.0,0.0,0.0,1.1162,1.2886,1.4771,1.4876,1.6883,1.8528,1.6923,1.6642,1.648,1.5432,1.5245,1.5278,1.5175,1.5609,1.6108,1.6382,1.6624,1.6822,1.705,1.7458,1.7839,1.8192,2.0458,2.2977,2.5436,3.0488,3.4025,3.4601,3.5643,3.635,3.6635,3.5948,3.5504,3.5504,3.5504,3.5504,3.5504,3.5504,3.5504,3.5504,3.5504,3.5718,3.6275,3.6275,3.6275,3.6275,3.6829,3.66,3.5958,3.7263,3.779,3.7748,3.7294,3.7235,3.7279,3.6022,3.5504,3.5504,3.5504,3.5504,3.5504,0.0,0.0,0.0,0.0,0.0,0.0,0.0,0.866,0.8672,0.8521,0.7686,0.7043,0.688,0.6021,0.5428,0.5308,0.0,0.0,0.0,0.0,0.0,0.0,0.0,0.0,0.0,0.5954,0.5708,0.552,0.5387,0.5272,0.5175,0.51,0.4875,0.454,0.4231,0.399,0.0,0.0,0.0,0.0,0.0,0.0,0.7026,0.0,0.0,0.0,0.0,0.0,0.0,0.0,0.0,0.0,0.0,0.0,0.0,0.0,1.1838,1.3252,1.3304,1.498,1.6411,1.5226,1.5108,1.5095,1.4583,1.4686,1.4943,1.5272,1.5762,1.6246,1.6528,1.6881,1.7161,1.715,1.7633,1.8068,1.8162,2.0092,2.2802,2.6274,3.1488,3.4919,3.5299,3.5845,3.6275,3.6615,3.5894,3.5504,3.5504,3.5504,3.5504,3.5504,3.5504,3.5504,3.5504,3.5504,3.5894,3.6615,3.6615,3.6737,3.7084,3.7573,3.7413,3.6874,3.8019,3.8358,0.0,3.7557,3.7338,3.7219,3.5958,3.5504,3.5504,3.5504,3.5504,3.5504,0.0,0.0,0.0,0.0,0.0,0.0,0.0,0.0,0.0,0.8521,0.7627,0.6931,0.6747,0.5851,0.5233,0.0,0.0,0.0,0.0,0.0,0.0,0.0,0.0,0.0,0.0,0.6281,0.6053,0.5675,0.567,0.5606,0.5492,0.5461,0.5172,0.4693,0.4438,0.4154,0.0,0.0,0.0,0.0,0.0,0.0,0.0,0.0,0.0,0.0,0.0,0.0,0.0,0.0,0.0,0.0,0.0,0.0,0.0,0.0,0.0,0.0,0.0,1.2871,1.3795,1.3445,1.3667,1.4071,1.4418,1.4772,0.0,1.5961,1.627,1.649,1.6825,1.7646,1.8044,1.7281,1.8329,1.9028,1.8395,2.0254,2.2751,2.5705,2.9613,3.2348,3.3074,3.4546,3.5782,3.6508,3.5894,3.5504,3.5504,3.5504,3.5504,3.5504,3.5504,3.5504,3.5504,3.5504,3.5894,3.6676,3.6676,3.7084,3.7863,3.7937,3.8262,3.8799,3.8206,3.8302,3.8799,3.735,3.6722,3.6615,3.5894,3.5569,3.5504,3.5504,3.5504,3.5504,0.0,0.0,0.0,0.0,0.0,0.0,0.0,0.0,0.0,0.0,0.7022,0.6037,0.6037,0.4787,0.3916,0.0,0.0,0.0,0.0,0.0,0.0,0.0,0.0,0.0,0.0,0.5544,0.5544,0.5392,0.544,0.5423,0.5346,0.5028,0.4524,0.3879,0.3607,0.3493,0.3597,0.0,0.0,0.0,0.0,0.0,0.0,0.0,0.0,0.0,0.8409,0.8511,0.0,0.0,0.0,0.0,0.0,0.0,0.0,0.0,1.1359,1.232,1.2033,0.0,1.2601,1.2153,1.2847,1.3591,0.0,1.4414,1.5301,1.5288,1.5798,1.6316,1.6554,1.6865,1.7033,1.6857,1.7274,1.7827,1.8374,2.2943,2.6554,2.734,3.1689,3.4065,3.2716,3.436,3.5554,3.5733,3.5619,3.5504,3.5504,3.5504,3.5504,3.5504,3.5504,3.5504,3.5504,3.5504,3.6196,3.7515,3.7515,3.7905,3.8635,3.9279,3.8995,3.8092,3.9102,3.9332,3.8854,3.8509,3.8003,3.7456,3.6631,3.6006,3.5504,3.5504,3.5504,3.5504,0.0,0.0,0.0,0.0,0.0,0.0,0.0,0.0,0.0,0.0,0.0,0.0,0.0,0.0,0.0,0.0,0.0,0.0,0.0,0.0,0.0,0.0,0.0,0.0,0.5501,0.5526,0.56,0.5708,0.5646,0.5585,0.548,0.5167,0.4664,0.4005,0.3607,0.3398,0.3443,0.4877,0.5494,0.0,0.6722,0.0,0.0,0.0,0.0,0.0,0.8168,0.8301,0.0,0.864,0.8779,0.8785,0.0,0.0,0.0,0.0,1.1278,1.2068,1.1927,1.2354,1.2705,1.2291,1.3011,1.3783,1.36,1.4529,1.5462,1.5455,1.5918,1.6371,1.6665,1.6942,1.7165,1.7352,1.7769,1.8508,1.978,2.3795,2.6907,2.7786,3.0906,3.3028,3.3122,3.4134,3.4986,3.5439,3.522,3.504,3.504,3.504,3.504,3.504,3.534,3.5504,3.5504,3.5504,3.6258,3.7822,3.7822,3.8374,3.9489,3.9901,3.961,3.8887,3.9731,3.9662,3.8908,3.8908,3.823,3.7219,3.6783,3.5882,3.4839,3.4839,3.4543,3.4259,0.0,0.0,0.0,0.0,0.0,0.0,0.0,0.0,0.0,0.0,0.0,0.0,0.0,0.0,0.0,0.0,0.0,0.0,0.0,0.0,0.0,0.0,0.0,0.4744,0.5752,0.5673,0.5796,0.6157,0.6017,0.5893,0.5748,0.5547,0.5123,0.4499,0.389,0.3617,0.3694,0.5052,0.5545,0.5542,0.6849,0.0,0.0,0.0,0.0,0.0,0.0,0.0,0.0,0.815,0.8234,0.8314,0.8575,0.0,0.0,0.0,0.0,0.0,1.1747,1.2645,1.3443,1.3039,1.3637,1.4297,1.4269,1.4963,1.5696,1.5994,1.6231,1.6537,1.6971,1.751,1.8012,1.842,1.9341,2.0539,2.2063,2.4275,2.6238,2.753,2.9256,3.1142,3.3093,3.3625,3.4134,3.508,3.4609,3.4301,3.4337,3.4427,3.4472,3.4472,3.5145,3.5504,3.5504,3.5504,3.6258,3.7822,3.7822,3.8541,3.9901,3.9901,3.9901,3.9901,3.9901,3.961,3.9086,3.8962,3.8044,3.6783,3.6414,3.5349,3.3945,3.3776,3.3226,3.2749,0.0,0.0,0.0,0.0,0.0,0.0,0.0,0.0,0.0,0.0,0.0,0.0,0.0,0.0,0.0,0.0,0.0,0.0,0.0,0.0,0.0,0.0,0.3748,0.4038,0.4712,0.5092,0.55,0.5954,0.6135,0.6135,0.5954,0.5741,0.5304,0.4624,0.3686,0.3919,0.5005,0.5198,0.5887,0.6927,0.7488,0.0,0.0,0.0,0.0,0.0,0.0,0.0,0.0,0.8111,0.8164,0.8195,0.8004,0.0,0.0,0.0,0.0,0.0,1.1725,1.2863,1.391,1.3236,1.3975,1.4909,1.5004,1.5576,1.612,1.6231,1.6301,1.6542,1.7289,1.8361,1.9252,1.9738,2.1956,2.3903,2.4735,2.6868,2.789,2.6778,2.9547,3.1199,3.029,3.1789,3.2974,3.3454,3.339,3.3425,3.3602,3.4173,3.4472,3.4472,3.5145,3.5504,3.5504,3.5504,3.6258,3.7822,3.7822,3.8262,3.9086,3.9086,3.9086,3.9086,3.9086,3.9368,3.985,3.9193,3.8414,3.7435,3.5508,3.4451,3.3819,3.2581,3.2305,3.2749,0.0,0.0,0.0,0.0,0.0,0.0,0.0,0.0,0.0,0.0,0.0,0.0,0.0,0.0,0.0,0.0,0.0,0.0,0.0,0.0,0.0,0.4342,0.4604,0.4829,0.5041,0.5435,0.588,0.6377,0.633,0.6201,0.5995,0.5499,0.5189,0.4997,0.4507,0.467,0.5372,0.5858,0.6401,0.6985,0.0,0.0,0.0,0.0,0.0,0.0,0.0,0.0,0.0,0.0,0.822,0.8323,0.8468,0.0,0.0,0.0,0.0,0.0,1.1891,1.2778,1.3829,1.4551,1.5301,1.5858,1.5858,1.6186,1.6459,1.6459,1.6528,1.6775,1.7427,1.8709,2.0366,2.2467,2.4563,2.5923,2.5908,2.6524,2.6863,2.6553,2.7641,2.8831,2.9918,3.0847,3.1887,3.3016,3.2737,3.2664,3.2945,3.3245,3.3425,3.3425,3.4412,3.4951,3.4951,3.5325,3.6085,3.7144,3.7144,3.7557,3.8318,3.8318,3.8318,3.8318,3.8318,3.8541,3.8832,3.8486,3.7403,3.5858,3.4788,3.3245,3.1502,3.1151,3.1673,3.2749,0.0,0.0,0.0,0.0,0.0,0.0,0.0,0.0,0.0,0.0,0.0,0.0,0.0,0.0,0.0,0.0,0.0,0.0,0.0,0.0,0.475,0.4875,0.5516,0.5859,0.579,0.5969,0.6299,0.6744,0.6436,0.6099,0.5774,0.5146,0.502,0.5347,0.5188,0.5367,0.581,0.6442,0.682,0.7033,0.0,0.0,0.0,0.0,0.0,0.0,0.0,0.0,0.0,0.0,0.0,0.0,0.0,0.0,0.0,1.0606,1.1293,1.1933,1.2075,1.2802,1.3888,1.5379,1.6112,1.6648,1.7257,1.7508,1.7685,1.7978,1.8003,1.8095,1.8489,1.9878,2.1996,2.5176,2.6795,2.7555,2.7285,2.6511,2.6215,2.6973,2.6445,2.7049,2.9621,2.9876,3.0583,3.2212,3.1874,3.1777,3.2258,3.2422,3.2512,3.2512,3.3649,3.4247,3.4247,3.4771,3.5576,3.6615,3.6615,3.6904,3.7515,3.7515,3.7515,3.7515,3.7515,3.7536,3.7566,3.7393,3.6066,3.4102,3.358,3.1561,2.9052,2.9855,3.1047,3.2249,0.0,0.0,0.0,0.0,0.0,0.0,0.0,0.0,0.0,0.0,0.0,0.0,0.0,0.0,0.0,0.0,0.0,0.0,0.0,0.0,0.4732,0.4811,0.5854,0.6486,0.6606,0.6394,0.6379,0.6617,0.6341,0.5859,0.5146,0.4853,0.4982,0.5463,0.5091,0.5642,0.6868,0.6556,0.6956,0.7837,0.7938,0.0,0.0,0.0,0.0,0.0,0.0,0.0,0.0,0.0,0.0,0.0,0.0,0.0,1.0364,1.0276,1.115,1.2164,1.2195,1.3312,1.4535,1.4669,1.5436,1.6865,1.9723,2.036,2.0681,2.1997,2.1826,2.146,2.1474,2.2911,2.4787,2.7052,2.8303,2.9201,2.9927,2.8551,2.7723,2.8289,2.7665,2.749,2.817,2.8233,2.8757,2.9948,2.9997,3.0425,3.1513,3.2183,3.2512,3.2512,3.32,3.3559,3.3559,3.3619,3.4637,3.6615,3.6615,3.66,3.6661,3.6661,3.6661,3.6661,3.6661,3.6766,3.6798,3.6068,3.4848,3.3245,3.1162,2.9147,2.7607,2.8969,3.0089,3.0936,0.0,0.0,0.0,0.0,0.0,0.0,0.0,0.0,0.0,0.0,0.0,0.0,0.0,0.0,0.0,0.0,0.0,0.0,0.0,0.0,0.4765,0.4913,0.6053,0.6637,0.6515,0.6579,0.6587,0.6535,0.5895,0.5394,0.5039,0.4844,0.5078,0.5616,0.56,0.614,0.7061,0.6983,0.7299,0.7841,0.7955,0.8066,0.0,0.0,0.0,0.0,0.0,0.0,0.0,0.0,0.8393,0.8485,0.893,0.9699,1.046,1.0782,1.1539,1.2246,1.2216,1.3293,1.4601,1.534,1.6031,1.727,2.0075,2.1126,2.1666,2.2202,2.2932,2.3415,2.3251,2.4625,2.6118,2.7253,2.8433,2.9115,2.8752,2.8117,2.7616,2.731,2.6962,2.6979,2.7544,2.8042,2.8736,2.9717,2.9939,3.0452,3.1424,3.136,3.1465,3.1884,3.2542,3.2886,3.2886,3.329,3.3908,3.4683,3.4683,3.4683,3.4698,3.5108,3.5305,3.5305,3.5305,3.5324,3.5277,3.4042,3.2639,3.1076,2.9296,2.8331,2.8265,2.9923,3.0665,3.0865,0.0,0.0,0.0,0.0,0.0,0.0,0.0,0.0,0.0,0.0,0.0,0.0,0.0,0.0,0.0,0.0,0.0,0.0,0.4074,0.4484,0.4876,0.5242,0.6209,0.6737,0.6744,0.6843,0.6723,0.6355,0.5507,0.5049,0.4902,0.4883,0.5175,0.5738,0.5963,0.6438,0.7107,0.7182,0.7435,0.7783,0.7941,0.8053,0.0,0.0,0.0,0.0,0.0,0.0,0.0,0.0,0.8575,0.8845,0.9398,1.0157,1.0927,1.1319,1.2094,1.2819,1.2753,1.376,1.5074,1.6166,1.7019,1.8383,2.1466,2.2095,2.2434,2.3902,2.4873,2.5278,2.4771,2.5345,2.6167,2.6953,2.7882,2.8374,2.7775,2.7314,2.6824,2.6244,2.605,2.6088,2.6477,2.7242,2.8065,2.8917,2.929,2.9914,3.0854,3.0477,3.0432,3.0911,3.1539,3.1794,3.1584,3.2452,3.2766,3.2557,3.2766,3.3095,3.3514,3.3963,3.4158,3.4158,3.4158,3.4038,3.3752,3.2421,3.0878,2.9193,2.8146,2.7894,2.8478,3.0235,3.0644,3.0297,0.0,0.0,0.0,0.0,0.0,0.0,0.0,0.0,0.0,0.0,0.0,0.0,0.0,0.0,0.0,0.0,0.0,0.0,0.4597,0.4733,0.5095,0.5745,0.6303,0.6856,0.7471,0.7221,0.6731,0.5998,0.5271,0.4834,0.4706,0.4913,0.5298,0.5814,0.6088,0.6549,0.7091,0.7026,0.7266,0.7724,0.7926,0.808,0.8218,0.0,0.0,0.0,0.0,0.0,0.0,0.0,0.896,0.9515,0.9672,1.0665,1.1793,1.1708,1.2785,1.3969,1.3921,1.4875,1.6096,1.6987,1.8254,2.0336,2.4378,2.3496,2.3131,2.7799,2.8086,2.7179,2.6062,2.5129,2.4963,2.637,2.6785,2.7063,2.7578,2.646,2.5598,2.5586,2.5134,2.482,2.482,2.5445,2.6276,2.7134,2.791,2.8679,2.9579,2.9579,2.9564,2.9579,3.0178,3.0193,2.9594,3.0866,3.1165,3.0507,3.118,3.2198,3.3469,3.3484,3.3484,3.3484,3.3484,3.311,3.2437,3.1547,2.9834,2.767,2.7736,2.7736,2.792,2.969,2.9766,2.9002,0.0,0.0,0.0,0.0,0.0,0.0,0.0,0.0,0.0,0.0,0.0,0.0,0.0,0.0,0.0,0.0,0.0,0.0,0.479,0.4818,0.4773,0.455,0.5133,0.5668,0.6082,0.6291,0.6289,0.607,0.5478,0.5165,0.5127,0.5184,0.5561,0.6148,0.6336,0.6723,0.723,0.712,0.7264,0.7588,0.7826,0.7983,0.8097,0.0,0.0,0.0,0.0,0.0,0.0,0.0,0.0,0.0,1.0347,1.1058,1.1673,1.1745,1.2362,1.3034,1.3125,1.4056,1.5302,1.6358,1.7936,2.0033,2.3187,2.3562,2.3803,2.561,2.6626,2.6585,2.4752,2.5103,2.5647,2.5422,2.5868,2.619,2.6202,2.5886,2.546,2.5096,2.4921,2.482,2.482,2.6008,2.6895,2.7193,2.8035,2.8857,2.9549,2.9146,2.9101,2.9564,2.9759,2.9759,2.9579,2.9968,3.0058,2.9864,3.0058,3.0851,3.2138,3.2602,3.2811,3.2811,3.2811,3.2437,3.1721,3.038,2.9018,2.7802,2.9066,2.9504,2.9628,3.0718,3.0208,2.9002,0.0,0.0,0.0,0.0,0.0,0.0,0.0,0.0,0.0,0.0,0.0,0.0,0.0,0.0,0.0,0.0,0.0,0.0,0.0,0.5405,0.5267,0.5126,0.5481,0.5809,0.6078,0.6259,0.6271,0.6147,0.5609,0.5318,0.5309,0.5553,0.5873,0.6306,0.65,0.677,0.7085,0.7023,0.7153,0.7451,0.7768,0.7956,0.8083,0.0,0.0,0.0,0.0,0.0,0.0,0.0,0.0,0.0,1.1182,1.1729,1.2216,1.2272,1.2747,1.3358,1.3718,1.4794,1.6182,1.7876,1.9509,2.119,2.3176,2.5022,2.6341,2.6439,2.7057,2.713,2.5552,2.5154,2.501,2.4985,2.5062,2.5191,2.5275,2.5096,2.4845,2.4531,2.4293,2.4092,2.4092,2.5261,2.6022,2.6022,2.7109,2.7933,2.837,2.8241,2.8368,2.8771,2.9041,2.9056,2.8786,2.931,2.9445,2.919,2.946,2.9803,3.0319,3.1289,3.1678,3.1618,3.1287,3.0872,3.0435,2.9551,2.8796,2.8363,2.9766,3.0329,3.0389,3.1219,3.045,2.9002,0.0,0.0,0.0,0.0,0.0,0.0,0.0,0.0,0.0,0.0,0.0,0.0,0.0,0.0,0.0,0.0,0.0,0.0,0.0,0.0,0.63,0.6703,0.6683,0.673,0.6884,0.6726,0.6515,0.6218,0.5712,0.5451,0.5403,0.6002,0.6308,0.6385,0.6627,0.6783,0.6868,0.682,0.7009,0.736,0.7798,0.8045,0.8152,0.8581,0.0,0.0,0.0,0.0,0.0,0.0,0.0,0.0,1.2075,1.2556,1.3069,1.3015,1.3552,1.4312,1.5078,1.6232,1.7845,2.0456,2.2216,2.3555,2.4358,2.7357,2.9625,2.8555,2.8387,2.8082,2.7234,2.5039,2.3698,2.4793,2.4448,2.4167,2.4669,2.4318,2.3979,2.3929,2.3452,2.3078,2.3078,2.3826,2.4292,2.4292,2.5673,2.651,2.651,2.7203,2.7625,2.7625,2.8173,2.8203,2.7625,2.8786,2.9101,2.8517,2.9062,2.895,2.8338,2.9699,3.0205,2.9961,2.9156,2.8823,2.8919,2.8913,2.9018,2.9192,3.0072,3.0389,3.0524,3.1161,3.0389,2.9002,0.0,0.0,0.0,0.0,0.0,0.0,0.0,0.0,0.0,0.0,0.0,0.0,0.0,0.0,0.0,0.0,0.0,0.0,0.0,0.0,0.6725,0.6197,0.6349,0.631,0.5987,0.6249,0.636,0.6278,0.6106,0.6058,0.6099,0.6597,0.6895,0.7003,0.7015,0.713,0.7331,0.7065,0.7144,0.7527,0.8347,0.8454,0.8231,0.9468,0.9593,0.0,0.0,0.0,0.0,0.0,0.0,0.0,1.2723,1.2866,1.2834,1.3018,1.3061,1.3244,1.4255,1.5167,1.6537,1.9502,2.3541,2.6989,2.7898,2.8782,2.8264,2.4104,2.5507,2.6712,2.4132,2.3743,2.3898,2.421,2.4124,2.4042,2.4155,2.4067,2.3828,2.3376,2.3153,2.3078,2.3078,2.3826,2.4292,2.4292,2.5673,2.651,2.651,2.7203,2.7625,2.7625,2.7724,2.7775,2.7625,2.791,2.7934,2.7799,2.7386,2.7335,2.7717,2.8492,2.8498,2.7883,2.7245,2.7474,2.838,2.8477,2.9097,3.0072,3.0896,3.1219,3.1219,3.0718,2.9889,2.8876,0.0,0.0,0.0,0.0,0.0,0.0,0.0,0.0,0.0,0.0,0.0,0.0,0.0,0.0,0.0,0.0,0.0,0.0,0.0,0.0,0.0,0.684,0.6814,0.6615,0.6132,0.6301,0.6337,0.6206,0.6295,0.6385,0.649,0.6931,0.7267,0.7479,0.7521,0.7571,0.763,0.7526,0.7499,0.7604,0.8214,0.8347,0.8276,0.9406,0.9891,1.005,1.0319,0.0,0.0,0.0,0.0,0.0,0.0,0.0,1.2815,1.2964,1.2926,1.3132,1.4437,1.5604,1.7372,2.1206,2.4562,2.7092,2.7646,2.7839,2.6995,2.3678,2.4535,2.5259,2.3353,2.2868,2.2804,2.2794,2.2804,2.2799,2.2799,2.2799,2.2686,2.2385,2.2347,2.2347,2.2347,2.2738,2.3241,2.383,2.4888,2.5834,2.6496,2.7203,2.7625,2.7625,2.7625,2.7625,2.7625,2.7625,2.746,2.7111,2.668,2.6292,2.6008,2.6476,2.6693,2.6687,2.5503,2.602,2.7709,2.779,2.8453,2.9406,2.9841,2.9973,2.9882,2.9448,2.8879,2.8298,0.0,0.0,0.0,0.0,0.0,0.0,0.0,0.0,0.0,0.0,0.0,0.0,0.0,0.0,0.0,0.0,0.0,0.0,0.0,0.0,0.0,0.762,0.7389,0.7036,0.6586,0.6495,0.6355,0.6177,0.6366,0.6588,0.6839,0.7303,0.7642,0.7886,0.8144,0.811,0.7862,0.8106,0.7965,0.7634,0.8094,0.8226,0.8248,0.9189,0.9999,1.0648,1.0624,1.1607,1.2778,1.1986,0.0,0.0,0.0,0.0,1.2815,1.2834,1.2887,1.3235,1.4685,1.6437,1.8843,2.2971,2.4846,2.5689,2.5743,2.5834,2.5546,2.4346,2.4149,2.4016,2.3342,2.2273,2.153,2.1516,2.1524,2.1506,2.1487,2.1518,2.1468,2.1499,2.1524,2.1493,2.1493,2.1493,2.2031,2.3286,2.4082,2.5001,2.6256,2.7026,2.7445,2.7445,2.734,2.7385,2.7625,2.735,2.7021,2.6602,2.6184,2.53,2.4086,2.4236,2.4857,2.5717,2.4252,2.5024,2.7218,2.71,2.7623,2.8396,2.8282,2.8135,2.8,2.7878,2.7701,2.7512,0.0,0.0,0.0,0.0,0.0,0.0,0.0,0.0,0.0,0.0,0.0,0.0,0.0,0.0,0.0,0.0,0.0,0.0,0.7911,0.0,0.0,0.7287,0.7125,0.6878,0.651,0.639,0.6367,0.6441,0.6366,0.6665,0.7327,0.8075,0.8322,0.8193,0.901,0.8881,0.81,0.8759,0.8477,0.7707,0.8908,0.8807,0.8137,0.986,1.0316,1.0185,1.1423,1.2162,1.2558,1.2549,1.2622,0.0,0.0,0.0,1.2562,1.2626,1.2604,1.2792,1.38,1.6442,1.9409,2.1477,2.3292,2.4415,2.3983,2.3896,2.3678,2.2975,2.3214,2.33,2.2554,2.1944,2.1479,2.1504,2.1491,2.15,2.1473,2.1506,2.1486,2.1475,2.1491,2.1493,2.1493,2.1493,2.2031,2.3286,2.4082,2.4805,2.5595,2.6347,2.6722,2.6722,2.6168,2.6422,2.761,2.6437,2.6108,2.6587,2.4818,2.3729,2.3233,2.2732,2.3244,2.4516,2.4282,2.5409,2.7396,2.6763,2.7229,2.8339,2.768,2.7443,2.7349,2.6654,2.6684,2.6854,0.0,0.0,0.0,0.0,0.0,0.0,0.0,0.0,0.0,0.0,0.0,0.0,0.0,0.0,0.0,0.7635,0.7827,0.7898,0.7796,0.7739,0.7574,0.7266,0.7123,0.6894,0.6569,0.646,0.6408,0.6401,0.6448,0.677,0.7371,0.8246,0.8687,0.8726,0.9404,0.9374,0.8814,0.9436,0.9152,0.8346,0.9164,0.9141,0.8761,0.9976,1.0366,1.0451,1.1608,1.2155,1.2349,1.2479,1.2484,1.2412,1.2392,0.0,0.0,0.0,1.2287,1.2551,1.4062,1.6107,1.8334,2.0507,2.1564,2.2128,2.2415,2.2236,2.1927,2.1669,2.1459,2.1414,2.1409,2.0917,2.0572,2.0572,2.0542,2.0523,2.0569,2.03,2.0103,2.0078,2.0114,2.0112,2.0112,2.0376,2.1221,2.2879,2.3283,2.4098,2.5492,2.6232,2.6422,2.6048,2.6123,2.6258,2.6467,2.5899,2.5353,2.4912,2.3956,2.3393,2.3276,2.3302,2.3715,2.4292,2.4213,2.5257,2.686,2.6134,2.6176,2.6624,2.5884,2.5574,2.5398,2.5055,2.5242,2.5627,0.0,0.0,0.0,0.0,0.0,0.0,0.0,0.0,0.0,0.0,0.0,0.0,0.0,0.0,0.0,0.0,0.7768,0.7827,0.7739,0.759,0.7421,0.726,0.7088,0.6861,0.6586,0.653,0.646,0.6348,0.66,0.6923,0.7338,0.8242,0.8821,0.9192,0.9793,0.9741,0.9232,1.0015,0.9692,0.8777,0.9515,0.9596,0.9371,1.0363,1.0717,1.0814,1.1852,1.2236,1.2236,1.2302,1.2281,1.2195,1.2049,1.2018,0.0,0.0,0.0,1.2296,1.4047,1.5211,1.6501,1.8918,1.9336,1.9451,2.0516,2.0344,1.9967,2.0118,1.9735,1.9572,2.0137,1.9999,1.9798,1.9798,1.9798,1.9798,1.9798,1.9434,1.9207,1.9208,1.9058,1.8983,1.8983,1.9522,2.061,2.2373,2.2763,2.364,2.5284,2.5824,2.5869,2.5375,2.5674,2.5764,2.5615,2.5435,2.4765,2.3557,2.3492,2.3571,2.3672,2.4336,2.4608,2.4608,2.4514,2.5216,2.6431,2.553,2.5053,2.4845,2.4213,2.3919,2.3778,2.3778,2.413,2.4594,0.0,0.0,0.0,0.0,0.0,0.0,0.0,0.0,0.0,0.0,0.0,0.0,0.726,0.7296,0.7392,0.7589,0.7724,0.7797,0.7797,0.7266,0.6993,0.7107,0.6858,0.0,0.651,0.65,0.6495,0.6493,0.6894,0.7195,0.741,0.8153,0.8828,0.9437,1.0405,1.0084,0.8906,1.0351,1.0026,0.8662,1.0272,1.0326,0.9688,1.1492,1.1657,1.1059,1.2375,1.2622,1.2274,1.2156,1.2191,1.2231,1.1837,1.1768,1.179,0.0,0.0,0.0,1.3071,1.3476,1.4042,1.6022,1.6278,1.642,1.7855,1.7801,1.7646,1.824,1.8292,1.8455,1.902,1.9497,1.9798,1.9798,1.9798,1.9798,1.9798,1.9773,1.9761,1.9761,1.9334,1.8983,1.8983,1.9594,2.0549,2.1846,2.3003,2.3955,2.4627,2.4672,2.4672,2.4627,2.4073,2.4358,2.56,2.494,2.4292,2.3498,2.364,2.3929,2.4391,2.5185,2.5509,2.5457,2.5457,2.5871,2.6389,2.5039,2.4069,2.3487,2.3267,2.315,2.3175,2.3175,2.3552,2.3966,0.0,0.0,0.0,0.0,0.0,0.0,0.0,0.0,0.0,0.0,0.0,0.0,0.0,0.739,0.7514,0.7605,0.756,0.7453,0.7235,0.7058,0.6927,0.6858,0.6791,0.6706,0.6569,0.6564,0.6564,0.6569,0.6662,0.6979,0.7471,0.7733,0.8251,0.9003,0.9914,1.0126,0.9874,1.0723,1.0463,0.9627,1.0732,1.1003,1.0802,1.1507,1.1959,1.2197,1.2453,1.2499,1.2524,1.283,1.265,1.2303,1.2289,1.2085,1.1808,1.1523,1.1384,1.1445,1.2052,1.2445,1.2946,1.4099,1.4765,1.5259,1.5657,1.6269,1.6751,1.6917,1.738,1.784,1.8392,1.8945,1.9409,1.9748,1.9497,1.9422,1.9736,1.9231,1.889,1.9246,1.8832,1.8505,1.8505,1.9037,1.9693,2.055,2.1352,2.2076,2.27,2.352,2.3789,2.3385,2.3954,2.4088,2.3729,2.3879,2.3437,2.2345,2.3209,2.3717,2.3964,2.4626,2.5145,2.5523,2.4709,2.4718,2.5263,2.3851,2.3312,2.3352,2.2801,2.2824,2.3078,2.3078,2.3263,2.3414,0.0,0.0,0.0,0.0,0.0,0.0,0.0,0.0,0.0,0.0,0.0,0.0,0.0,0.0,0.7605,0.756,0.736,0.7171,0.7042,0.6927,0.6858,0.6841,0.6791,0.6757,0.6723,0.6723,0.6706,0.6668,0.6804,0.7057,0.7428,0.7535,0.7973,0.8701,0.9187,0.9646,1.0089,1.0605,1.0484,1.0038,1.1183,1.1525,1.1443,1.2234,1.2638,1.2819,1.2755,1.2698,1.2718,1.3018,1.294,1.2668,1.2373,1.2021,1.1619,1.1352,1.1155,1.1113,1.1346,1.1593,1.1959,1.2811,1.3261,1.3649,1.4324,1.487,1.5453,1.5973,1.6516,1.7049,1.779,1.8229,1.8643,1.9183,1.8956,1.8866,1.9208,1.8778,1.8523,1.8706,1.843,1.8129,1.7953,1.861,1.9192,1.9597,2.0484,2.1234,2.1695,2.2503,2.2772,2.2368,2.34,2.3445,2.2353,2.2757,2.2636,2.2047,2.2869,2.3382,2.3706,2.4083,2.4373,2.4546,2.3535,2.3447,2.3949,2.2769,2.2351,2.247,2.2318,2.2535,2.2874,2.3002,2.3078,2.3078,0.0,0.0,0.0,0.0,0.0,0.0,0.0,0.0,0.0,0.695,0.0,0.0,0.0,0.0,0.0,0.7484,0.7139,0.7009,0.7266,0.6858,0.6757,0.7075,0.6841,0.6791,0.6993,0.6993,0.6927,0.6807,0.7327,0.7479,0.7317,0.756,0.8001,0.855,0.8313,0.8636,0.9396,1.0019,1.0023,0.9757,1.1546,1.1879,1.1537,1.3639,1.3721,1.278,1.3374,1.3251,1.2786,1.2673,1.3011,1.3277,1.2087,1.1471,1.1192,1.1192,1.1085,1.0991,0.0,0.0,0.0,1.213,1.1666,1.1507,1.3801,1.3674,1.3588,1.5304,1.5655,1.6007,1.7124,1.7338,1.7513,1.8066,1.8166,1.8191,1.8204,1.8643,1.8794,1.8267,1.8191,1.7965,1.7438,1.8414,1.9058,1.9058,2.0662,2.1635,2.1635,2.1665,2.168,2.1695,2.2308,2.2338,2.168,2.168,2.2009,2.2622,2.2615,2.3014,2.362,2.3575,2.3234,2.2594,2.2008,2.2092,2.254,2.183,2.1198,2.0819,2.1845,2.2272,2.2347,2.2912,2.3053,2.3053,0.0,0.0,0.0,0.0,0.0,0.0,0.0,0.0,0.0,0.0,0.0,0.0,0.8019,0.7723,0.7452,0.723,0.7196,0.7101,0.6891,0.6841,0.6841,0.6891,0.6757,0.6824,0.7058,0.7026,0.7009,0.7009,0.6971,0.7168,0.7583,0.7121,0.7273,0.796,0.8271,0.8499,0.8649,0.9467,0.9803,0.9919,1.1242,1.1632,1.1516,1.2843,1.3189,1.3007,1.3179,1.3223,1.3262,1.3467,1.3437,1.3119,1.2246,1.1477,1.0849,1.0944,1.092,1.0825,1.0681,0.0,0.0,0.0,0.0,0.0,1.2407,1.2837,1.3363,1.4532,1.4866,1.5224,1.6019,1.6158,1.6346,1.6886,1.7338,1.7752,1.8154,1.799,1.7928,1.8179,1.7852,1.7551,1.74,1.7969,1.8394,1.8394,1.9517,2.0243,2.0243,2.0707,2.1201,2.168,2.1874,2.165,2.0991,2.1455,2.1545,2.1261,2.1345,2.1484,2.1643,2.1274,2.095,2.0751,2.0558,2.0526,2.0564,2.0361,2.0433,2.0756,2.1004,2.1368,2.1782,2.2334,2.2535,2.2598,0.0,0.0,0.0,0.0,0.0,0.0,0.0,0.0,0.0,0.0,0.0,0.0,0.8194,0.7848,0.7461,0.7046,0.7085,0.7036,0.6791,0.6824,0.6874,0.6891,0.6791,0.6891,0.7171,0.7171,0.7171,0.7169,0.6963,0.7131,0.7654,0.7014,0.7072,0.7734,0.7896,0.7971,0.8042,0.8677,0.924,0.9823,1.0929,1.1342,1.1399,1.2506,1.2962,1.3007,1.3106,1.3232,1.3357,1.3547,1.3326,1.2959,1.2798,1.1994,1.111,1.1,1.092,1.0791,1.049,1.0474,1.0527,1.0456,0.0,0.0,1.1848,1.2266,1.2806,1.4011,1.4385,1.465,1.5281,1.5421,1.561,1.6124,1.6342,1.6696,1.7388,1.7438,1.7413,1.7488,1.7438,1.7287,1.7049,1.7676,1.8106,1.8106,1.9095,1.969,1.969,2.0348,2.0752,2.0857,2.1141,2.0831,1.9958,2.0327,2.0382,2.003,1.9864,1.9922,2.0145,1.9547,1.9311,1.9266,1.9266,1.922,1.9133,1.9133,1.9597,2.0326,2.0618,2.092,2.1204,2.1769,2.197,2.202,0.0,0.0,0.0,0.0,0.0,0.0,0.0,0.0,0.0,0.0,0.9036,0.8878,0.822,0.7987,0.7635,0.7035,0.7035,0.7048,0.6949,0.698,0.704,0.7159,0.704,0.7142,0.7506,0.7485,0.7441,0.7419,0.7193,0.7273,0.7587,0.7118,0.721,0.7763,0.7401,0.7361,0.7644,0.7963,0.8652,0.9559,1.0644,1.1033,1.1153,1.2378,1.2754,1.2633,1.2938,1.3047,1.3072,1.3126,1.2956,1.2775,1.3457,1.278,1.1631,1.1289,1.1079,1.0869,1.0456,1.0349,1.0455,1.0736,1.0508,0.0,1.1888,1.1918,1.2068,1.355,1.3844,1.3972,1.46,1.4777,1.4993,1.5488,1.5248,1.5375,1.6346,1.6911,1.7024,1.6572,1.6923,1.7011,1.6559,1.741,1.8037,1.8092,1.9043,1.9603,1.953,2.0109,2.0154,1.9545,2.0109,1.9897,1.8817,1.8817,1.8857,1.8989,1.839,1.8368,1.8887,1.8257,1.8053,1.8116,1.8116,1.8179,1.8292,1.8229,1.8807,1.9761,2.0288,2.0567,2.0693,2.1192,2.1393,2.1405,0.0,0.0,0.0,0.0,0.0,0.0,0.0,0.0,0.9369,0.9373,0.9391,0.9316,0.9082,0.864,0.8122,0.7514,0.7907,0.7933,0.7345,0.7842,0.8179,0.8205,0.8119,0.8306,0.8818,0.8195,0.7996,0.818,0.7334,0.7199,0.7677,0.7095,0.7107,0.7618,0.7442,0.7509,0.7798,0.8492,0.9028,0.9425,1.0376,1.0666,1.0571,1.1619,1.1741,1.1403,1.1915,1.2066,1.2155,1.2743,1.2755,1.2592,1.3384,1.2755,1.1774,1.1736,1.156,1.1256,1.0694,1.0656,1.0804,1.0854,1.0859,0.0,1.192,1.1697,1.1527,1.2337,1.2152,1.2068,1.2693,1.2981,1.3293,1.3912,1.4287,1.4917,1.6296,1.6233,1.6145,1.6471,1.622,1.6158,1.6484,1.7076,1.7657,1.8064,1.8688,1.8855,1.8458,1.8531,1.8545,1.8419,1.8531,1.8506,1.8263,1.8263,1.8279,1.8271,1.7732,1.7549,1.7642,1.7084,1.7099,1.7551,1.7551,1.8053,1.8832,1.8392,1.8593,1.9196,1.9309,1.961,2.0037,2.0614,2.0882,2.0945,0.8387,0.8461,0.0,0.0,0.0,0.0,0.0,0.0,0.9952,0.9808,0.9687,0.9475,0.9126,0.8894,0.8458,0.7761,0.8227,0.8324,0.7789,0.8249,0.8502,0.835,0.8389,0.8545,0.8833,0.8551,0.8312,0.8158,0.7854,0.7703,0.7699,0.7416,0.7655,0.8279,0.8007,0.8201,0.8716,0.9303,0.9577,0.9634,1.0215,1.0428,1.0424,1.1242,1.1393,1.1207,1.163,1.1957,1.2229,1.2676,1.2761,1.2858,1.3939,1.3283,1.222,1.2837,1.2454,1.1777,1.1508,1.1357,1.1228,1.1178,1.1058,0.0,0.0,1.1415,1.1345,1.1893,1.1682,1.1541,1.197,1.2101,1.2372,1.3032,1.3413,1.4063,1.5312,1.5398,1.5392,1.5668,1.5454,1.5392,1.5668,1.619,1.6852,1.7647,1.7955,1.8096,1.8078,1.8106,1.8106,1.8106,1.8106,1.7987,1.7706,1.7706,1.7585,1.7312,1.7034,1.6909,1.6879,1.6637,1.6672,1.6948,1.6948,1.7426,1.8191,1.7903,1.8129,1.8643,1.892,1.9346,1.9836,2.0125,2.0238,2.0275,0.8852,0.8724,0.0,0.0,0.0,0.0,0.0,0.0,1.0311,1.0021,0.9901,0.9633,0.9094,0.9239,0.9068,0.8228,0.8683,0.879,0.8381,0.8669,0.8789,0.8715,0.8698,0.8812,0.9048,0.8938,0.8657,0.8186,0.8301,0.8178,0.7783,0.7761,0.8163,0.889,0.8578,0.8882,0.9684,0.9995,1.0071,1.0036,1.0199,1.0335,1.0442,1.0923,1.1105,1.1146,1.1416,1.1811,1.2267,1.2546,1.2721,1.3044,1.435,1.3779,1.2731,1.3651,1.3149,1.2285,1.2298,1.2019,1.171,1.1627,1.1426,1.1255,0.0,0.0,0.0,1.1547,1.1394,1.1291,1.1423,1.1439,1.1609,1.2204,1.2464,1.2886,1.3767,1.4159,1.4498,1.4853,1.4967,1.4929,1.4854,1.5345,1.612,1.7078,1.7157,1.7342,1.776,1.7787,1.7787,1.7787,1.7787,1.7585,1.7146,1.7146,1.6909,1.6522,1.6522,1.6522,1.6522,1.6522,1.6522,1.6522,1.6522,1.6911,1.7539,1.7426,1.7827,1.8543,1.8781,1.9183,1.966,1.966,1.971,1.9798,0.9022,0.9617,1.0097,0.0,0.0,0.0,0.0,0.0,0.9736,0.9591,1.0003,1.0156,0.9643,1.0318,1.0434,0.9556,1.0023,1.0059,0.9289,0.9557,0.9968,1.0474,1.0005,1.0148,1.1043,0.9795,0.9182,0.924,0.8317,0.7981,0.8134,0.7721,0.7896,0.8548,0.8517,0.9014,0.9964,1.0079,1.0281,1.0536,1.0548,1.0452,1.0322,1.0369,1.0416,1.0418,1.0459,1.0764,1.1259,1.1882,1.2311,1.2711,1.3712,1.3617,1.3132,1.3185,1.2925,1.2582,1.2298,1.2201,1.2239,1.2355,1.2454,1.2334,1.1767,0.0,1.1424,1.0573,0.0,1.0354,1.016,0.0,0.0,1.0803,1.115,1.1504,1.1789,1.2166,1.3053,1.4703,1.5098,1.5098,1.4654,1.5293,1.5934,1.6557,1.6597,1.6625,1.6685,1.668,1.668,1.668,1.668,1.6637,1.6595,1.6595,1.6552,1.6522,1.6522,1.6522,1.6522,1.6522,1.6522,1.6522,1.6522,1.7124,1.8078,1.7589,1.8267,1.9535,1.8643,1.8631,1.912,1.912,1.9409,1.9798,1.0259,1.0162,1.0184,1.0278,0.0,0.0,0.0,0.0,0.9956,0.9996,1.0279,1.046,1.0461,1.071,1.0651,1.0102,1.0383,1.0406,0.9946,0.9991,1.0489,1.1525,1.0406,1.0266,1.1302,1.0079,0.9219,0.8826,0.8802,0.8567,0.8136,0.8101,0.8508,0.9263,0.9588,1.0134,1.0894,1.1328,1.1296,1.0927,1.1001,1.0766,1.0353,1.0297,1.0312,1.0318,1.0303,1.0611,1.1075,1.1633,1.2023,1.2575,1.4325,1.4038,1.3335,1.4554,1.4169,1.3459,1.3753,1.3648,1.3441,1.3337,1.3058,1.2664,1.2062,1.1583,1.1113,1.0697,0.0,0.0,0.0,0.0,0.0,0.0,1.1042,1.1429,1.1653,1.2265,1.2868,1.3381,1.4008,1.4383,1.4359,1.4796,1.5202,1.5472,1.6089,1.6458,1.6515,1.6811,1.6837,1.6522,1.6522,1.6522,1.6522,1.6522,1.6522,1.6522,1.6522,1.6522,1.6522,1.6522,1.6522,1.6522,1.6522,1.7162,1.8191,1.7953,1.8455,1.9309,1.8857,1.9007,1.9472,1.9472,1.961,1.9798,1.1262,1.0666,1.0295,1.0685,1.0597,1.0324,0.9982,1.007,1.0196,1.0238,1.0541,1.0821,1.0952,1.1121,1.1078,1.0785,1.0792,1.0743,1.0572,1.0297,1.0752,1.219,1.0955,1.0658,1.1567,1.0549,0.9619,0.8779,0.9298,0.9189,0.8508,0.8692,0.9108,0.9763,1.0095,1.062,1.1378,1.1766,1.1614,1.1129,1.1288,1.1049,1.0505,1.0368,1.037,1.0449,1.0449,1.0755,1.1233,1.1644,1.1954,1.2516,1.4559,1.4293,1.3597,1.5279,1.501,1.428,1.4865,1.4726,1.4392,1.4215,1.3757,1.3212,1.2664,1.2098,1.1571,1.1141,1.0736,0.0,0.0,0.0,1.0348,1.0656,0.0,1.1433,1.166,1.2241,1.2593,1.2415,1.3109,1.3811,1.4408,1.4537,1.4718,1.4971,1.5696,1.6272,1.6673,1.689,1.6907,1.671,1.6595,1.6522,1.6522,1.6522,1.6522,1.6522,1.6522,1.6522,1.6522,1.6522,1.6522,1.6479,1.6455,1.7119,1.8216,1.8163,1.8536,1.9246,1.9246,1.9472,1.9786,1.9635,1.9673,1.9798,1.1593,1.1187,1.0798,1.0632,1.0449,1.0173,0.9762,1.0095,1.0256,0.9874,1.0767,1.1314,1.0933,1.1655,1.2078,1.1943,1.1587,1.1314,1.1175,1.0549,1.0923,1.2506,1.1955,1.1844,1.2271,1.1455,1.0638,0.9756,0.9658,0.9587,0.9559,0.9491,0.95,0.9609,0.9364,0.9868,1.0918,1.0596,1.0647,1.0945,1.1406,1.1318,1.0845,1.0433,1.0548,1.0889,1.0889,1.1162,1.1626,1.1911,1.2123,1.2499,1.3761,1.4082,1.4078,1.4592,1.4787,1.4903,1.498,1.4864,1.4723,1.4854,1.467,1.4328,1.3782,1.3676,1.3261,1.1777,1.156,1.1409,1.0654,1.0548,1.0656,1.0944,1.0934,0.0,0.0,1.145,1.169,1.2323,1.2936,1.3805,1.5051,1.4831,1.4832,1.5435,1.5438,1.5945,1.7139,1.6663,1.6612,1.7258,1.6752,1.6522,1.6522,1.6522,1.6522,1.6522,1.6522,1.6522,1.6522,1.6522,1.6522,1.6504,1.6365,1.7048,1.8194,1.7979,1.8639,1.9773,1.9773,1.9786,1.9748,1.9233,1.9371,1.9798,1.1075,1.108,1.1062,1.0944,1.0597,1.0173,0.9762,1.0135,1.031,0.9905,1.0552,1.1155,1.1385,1.1546,1.177,1.2112,1.2298,1.2218,1.1876,1.2063,1.2726,1.3935,1.3038,1.2663,1.3035,1.1931,1.0755,0.9536,0.9754,0.9745,0.9455,0.9499,0.9644,0.9876,1.021,1.0676,1.1176,1.1466,1.166,1.1817,1.1639,1.1426,1.1035,1.0503,1.0369,1.0537,1.0811,1.1006,1.124,1.1918,1.2155,1.2458,1.3691,1.4116,1.4371,1.5539,1.5599,1.5368,1.558,1.5622,1.559,1.5769,1.5364,1.4808,1.4511,1.394,1.3327,1.2575,1.2445,1.2296,1.1688,1.1491,1.1482,1.1635,1.1424,1.1316,0.0,1.179,1.2167,1.2864,1.3404,1.3853,1.4109,1.4976,1.533,1.4818,1.5812,1.6673,1.7176,1.6936,1.6981,1.7286,1.6795,1.6522,1.6522,1.6522,1.6522,1.6522,1.6522,1.6522,1.6522,1.6522,1.6281,1.5901,1.6182,1.6812,1.763,1.7828,1.8663,1.9798,1.9798,1.9475,1.9125,1.9444,1.9648,1.9798,1.1096,1.1174,1.1239,1.1085,1.0606,1.0164,0.9949,1.0201,1.0342,1.0147,1.0446,1.0955,1.1714,1.1511,1.1625,1.2367,1.2563,1.26,1.2528,1.2824,1.3529,1.4741,1.4082,1.3742,1.387,1.2712,1.1527,1.0293,1.02,1.0066,0.985,0.9808,0.9862,1.0032,1.0165,1.0483,1.095,1.1233,1.156,1.1826,1.1508,1.1402,1.137,1.0772,1.0624,1.0769,1.1052,1.124,1.1484,1.2217,1.2461,1.2632,1.3761,1.425,1.464,1.584,1.6049,1.5901,1.612,1.6175,1.6182,1.6263,1.584,1.5312,1.4888,1.4502,1.4059,1.3305,1.3255,1.322,1.2701,1.2242,1.201,1.2247,1.1837,1.163,0.0,1.2195,1.2509,1.2974,1.342,1.3822,1.4064,1.4849,1.527,1.5013,1.5838,1.6683,1.7445,1.7065,1.706,1.7558,1.6879,1.6522,1.6522,1.6522,1.6522,1.6522,1.6522,1.6522,1.6466,1.6281,1.5952,1.5623,1.608,1.6631,1.7338,1.793,1.8833,1.9798,1.9798,1.9527,1.915,1.9631,1.9798,1.9798,1.1583,1.1464,1.1307,1.1057,1.0505,1.0173,1.0267,1.0236,1.0297,1.0525,1.0458,1.0731,1.1692,1.1578,1.176,1.2774,1.25,1.2513,1.3107,1.2915,1.3415,1.4935,1.5115,1.5031,1.4681,1.3728,1.2793,1.188,1.0905,1.0518,1.0647,1.0409,1.0244,1.0079,0.9222,0.9377,1.0194,0.9913,1.0231,1.1001,1.1064,1.1402,1.1837,1.1295,1.1255,1.1565,1.1615,1.1865,1.2248,1.2734,1.2881,1.3027,1.3794,1.4326,1.4789,1.5398,1.6008,1.6479,1.6479,1.6436,1.6384,1.6333,1.615,1.58,1.5036,1.5366,1.5399,1.3981,1.4011,1.4154,1.3668,1.2792,1.2303,1.2761,1.2241,1.1924,1.2459,1.2575,1.2649,1.2703,1.3026,1.3675,1.476,1.4504,1.4729,1.5924,1.5514,1.5998,1.785,1.6847,1.6808,1.8009,1.7063,1.6491,1.6559,1.6491,1.6491,1.6559,1.6491,1.6534,1.6516,1.5901,1.5635,1.5629,1.609,1.6612,1.7349,1.8298,1.915,1.9798,1.9798,1.9823,1.9849,1.9811,1.9798,1.9798,1.1072,1.1108,1.1178,1.1159,1.0853,1.0498,1.0078,1.0211,1.0299,1.0161,0.9894,1.0027,1.0777,1.0943,1.1275,1.203,1.2907,1.3471,1.359,1.4373,1.4806,1.4777,1.5627,1.5627,1.4586,1.4145,1.3162,1.1525,1.1058,1.0523,0.9971,1.0221,1.0341,1.0302,0.9658,0.9848,1.0576,0.9761,0.9996,1.0956,1.2007,1.226,1.2043,1.194,1.1921,1.1925,1.2022,1.2073,1.2126,1.2725,1.2881,1.2958,1.3135,1.359,1.4226,1.5116,1.5596,1.5908,1.638,1.6479,1.6484,1.646,1.6308,1.6106,1.6027,1.5982,1.577,1.5137,1.5302,1.5377,1.479,1.4394,1.4012,1.3605,1.2912,1.2533,1.2834,1.2926,1.2979,1.2995,1.3427,1.3557,1.3112,1.4256,1.4949,1.4754,1.5139,1.591,1.7197,1.6221,1.6158,1.7312,1.6814,1.6722,1.7149,1.6735,1.6735,1.7149,1.6722,1.6735,1.7162,1.6447,1.608,1.6075,1.6445,1.6818,1.7134,1.8231,1.915,1.9798,1.9798,2.0062,2.0388,1.9962,1.9798,1.9798,1.0871,1.0905,1.1081,1.1285,1.1096,1.0763,1.0288,1.0059,0.9956,0.9935,0.9479,0.9477,1.0286,1.0637,1.1065,1.1765,1.2764,1.3505,1.3768,1.4457,1.4915,1.5107,1.5732,1.5876,1.5377,1.4642,1.3656,1.2503,1.1548,1.0785,1.0196,1.0384,1.037,1.0215,0.9931,0.9987,1.04,1.0294,1.0617,1.1288,1.2249,1.2475,0.0,1.2274,1.2316,1.2472,1.2493,1.2336,1.2173,1.2725,1.2881,1.291,1.2888,1.3328,1.3899,1.4494,1.5106,1.5676,1.5996,1.6281,1.6522,1.6522,1.6392,1.6299,1.6136,1.6175,1.6102,1.5653,1.5849,1.5991,1.5706,1.5205,1.4588,1.3712,1.3375,1.317,1.3064,1.3087,1.3174,1.3225,1.3677,1.3635,1.2783,1.3913,1.464,1.4499,1.4554,1.5355,1.6998,1.5939,1.5943,1.7386,1.7238,1.7169,1.7239,1.7493,1.7606,1.7681,1.7368,1.7231,1.7237,1.6562,1.6227,1.621,1.6692,1.7115,1.7577,1.8722,1.9423,1.9798,1.9798,2.03,2.0953,2.0388,2.0175,2.015,1.0957,1.086,1.0994,1.1492,1.1179,1.0804,1.0647,0.9952,0.9559,0.9777,0.9249,0.9131,1.0022,1.0549,1.1015,1.1616,1.2403,1.3152,1.3779,1.3815,1.4272,1.5309,1.5454,1.5688,1.6151,1.4858,1.4039,1.3695,1.1992,1.0992,1.0669,1.0544,1.0321,0.9979,0.9978,0.9947,1.0027,1.1066,1.1609,1.1799,1.2218,1.2425,1.2538,1.2434,1.2581,1.2881,1.2881,1.2637,1.2373,1.2754,1.2881,1.2881,1.2881,1.3238,1.3684,1.3779,1.4538,1.541,1.5543,1.5996,1.638,1.6466,1.6522,1.6396,1.5906,1.617,1.6384,1.5906,1.6026,1.6275,1.6392,1.5593,1.4657,1.377,1.3798,1.3804,1.3433,1.3406,1.3477,1.3667,1.4181,0.0,1.3524,1.3831,1.4217,1.4587,1.402,1.4593,1.6822,1.5699,1.5778,1.7554,1.7626,1.7498,1.7208,1.8261,1.862,1.8236,1.8219,1.7883,1.7313,1.6631,1.6362,1.6542,1.6826,1.7375,1.8096,1.9144,1.9676,1.9855,1.9972,2.0665,2.1531,2.0978,2.0869,2.079,1.1632,1.0872,1.0732,1.1734,1.0675,0.9921,1.0507,1.0162,0.9851,0.9899,0.9356,0.9132,0.9594,1.0337,1.0864,1.0965,1.2147,1.3152,1.3779,1.3815,1.3909,1.4097,1.4595,1.4652,1.4272,1.3899,1.3329,1.2494,1.1575,1.0749,0.9995,0.9956,0.9888,0.9841,0.9783,0.9936,1.0291,1.1129,1.1713,1.2077,1.2584,1.2791,1.2841,1.2782,1.2842,1.2881,1.2881,1.2832,1.2783,1.2852,1.2881,1.2881,1.2881,1.2968,1.3152,1.3637,1.3956,1.4318,1.532,1.5676,1.5864,1.638,1.6522,1.6497,1.6396,1.6446,1.6497,1.6396,1.6416,1.6436,1.6479,1.6061,1.5662,1.5481,1.4659,1.4253,1.4829,1.4677,1.4681,1.5168,1.6128,1.6358,1.5412,1.5067,1.4647,1.4071,1.3982,1.4415,1.5489,1.4779,1.4916,1.6116,1.6283,1.7004,1.84,1.7922,1.8292,1.9446,1.8631,1.8334,1.861,1.73,1.7258,1.819,1.7093,1.7015,1.7707,1.8316,1.9169,2.0181,2.089,2.1594,2.2096,2.1543,2.1631,2.1882,1.1305,1.0626,1.0298,1.1144,1.0445,0.9843,1.003,0.9781,0.9555,0.9347,0.9079,0.8958,0.9092,1.0112,1.0813,1.0813,1.2107,1.3017,1.3334,1.3324,1.3457,1.3779,1.4097,1.4236,1.4283,1.3909,1.334,1.2674,1.1731,1.0842,1.01,1.0162,0.9935,0.9484,0.9787,1.0106,1.0549,1.1418,1.1927,1.2126,1.2676,1.2881,1.2881,1.2881,1.2881,1.2881,1.2881,1.2881,1.2881,1.2881,1.2881,1.2881,1.2881,1.2881,1.2978,1.3238,1.3552,1.3909,1.4503,1.4915,1.5287,1.5864,1.6051,1.6107,1.6423,1.6522,1.6522,1.6522,1.6522,1.6522,1.6522,1.6347,1.6194,1.6171,1.5477,1.5108,1.5548,1.547,1.5476,1.5823,1.667,1.6783,1.5566,1.5378,1.5184,1.4697,1.393,1.4165,1.5749,1.4652,1.4744,1.6376,1.6586,1.7046,1.7809,1.8384,1.8833,1.9283,1.9096,1.8958,1.8836,1.8137,1.8312,1.9064,1.769,1.7812,1.893,1.871,1.9152,1.9989,2.0577,2.1336,2.2054,2.1935,2.2259,2.2585,1.1749,1.0865,1.0221,1.0913,1.0423,0.9819,0.9666,0.9542,0.9336,0.8938,0.8844,0.8804,0.8804,1.0012,1.0813,1.0813,1.2107,1.2881,1.2881,1.2881,1.3104,1.36,1.36,1.3826,1.4294,1.3826,1.3409,1.2917,1.192,1.116,1.0571,1.0522,1.0171,0.9619,1.0032,1.0515,1.1084,1.1793,1.2175,1.2332,1.2735,1.2881,1.2881,1.2881,1.2881,1.2881,1.2881,1.2881,1.2881,1.2881,1.2881,1.2881,1.2881,1.2881,1.2881,1.2881,1.3238,1.3647,1.3779,1.4143,1.4687,1.5342,1.5576,1.5764,1.638,1.6522,1.6522,1.6522,1.6522,1.6522,1.6522,1.6561,1.6545,1.6523,1.6102,1.5849,1.6155,1.6066,1.6091,1.633,1.6972,1.6921,1.5829,1.5742,1.5811,1.5934,1.4291,1.4124,1.6103,1.4842,1.4935,1.6883,1.6917,1.7055,1.7361,1.8573,1.9207,1.9207,1.9443,1.9359,1.8939,1.8726,1.8955,1.9511,1.8014,1.822,1.9556,1.9077,1.912,1.9702,2.0296,2.114,2.1954,2.234,2.2761,2.2952,1.4613,1.2601,1.0939,1.2263,1.0508,0.919,1.0016,0.9856,0.9532,0.9183,0.8971,0.8804,0.8804,1.0012,1.0813,1.0813,1.2107,1.2881,1.2881,1.2881,1.2929,1.2968,1.2968,1.3017,1.3065,1.3017,1.2769,1.2393,1.1861,1.1449,1.1173,1.0677,1.0569,1.0913,1.0623,1.1099,1.2172,1.2094,1.2382,1.2832,1.2881,1.2881,1.2881,1.2881,1.2881,1.2881,1.2881,1.2881,1.2881,1.2881,1.2881,1.2881,1.2881,1.2881,1.2881,1.2881,1.2929,1.3104,1.3637,1.3815,1.4122,1.5105,1.5452,1.5764,1.638,1.6522,1.6522,1.6522,1.6522,1.6522,1.6522,1.6697,1.687,1.6943,1.6354,1.618,1.7049,1.6638,1.6488,1.7121,1.7618,1.7867,1.773,1.6803,1.6639,1.7588,1.549,1.4603,1.5532,1.5093,1.5408,1.6695,1.6036,1.6544,1.8419,1.7728,1.842,2.0501,1.9368,1.9097,1.9656,1.8762,1.8725,1.9312,1.757,1.7119,1.7686,1.8352,1.8934,1.9488,2.1112,2.1794,2.2002,2.2761,2.3027,2.3065,1.3066,1.2323,1.1475,1.1276,1.0457,0.986,1.0025,0.9987,0.99,0.978,0.9359,0.9065,0.9065,1.0082,1.0813,1.0813,1.2107,1.2881,1.2881,1.2881,1.2881,1.2881,1.2881,1.2881,1.2881,1.2881,1.2729,1.2402,1.193,1.1762,1.1877,1.103,1.0838,1.1225,1.1235,1.1612,1.2313,1.2485,1.2676,1.2881,1.2881,1.2881,1.2881,1.2881,1.2881,1.2881,1.2881,1.2881,1.2881,1.2881,1.2881,1.2881,1.2881,1.2881,1.2881,1.2881,1.2881,1.2978,1.319,1.3238,1.3457,1.4193,1.471,1.5231,1.582,1.6238,1.6522,1.6522,1.6522,1.6522,1.6522,1.6607,1.6931,1.7814,1.7088,1.7036,1.8907,1.7949,1.7577,1.9103,1.8504,1.8077,1.8459,1.7275,1.6496,1.6582,1.535,1.5069,1.6101,1.5479,1.5662,1.6889,1.6171,1.6566,1.8325,1.749,1.7914,1.9685,1.94,1.9365,1.954,1.9455,1.9043,1.8441,1.8301,1.7956,1.7468,1.8035,1.8368,1.8721,2.0462,2.1101,2.129,2.2628,2.3078,2.3078,1.3182,1.2647,1.1807,1.105,1.0602,1.0321,1.0021,1.0132,1.0247,1.0247,0.9813,0.9376,0.9203,1.0008,1.0568,1.0762,1.19,1.2676,1.2881,1.2881,1.2881,1.2881,1.2881,1.2881,1.2881,1.2881,1.2909,1.2878,1.2425,1.2406,1.2657,1.1639,1.1362,1.1642,1.1826,1.2107,1.2479,1.2801,1.2881,1.2881,1.2881,1.2881,1.2881,1.2881,1.2881,1.2881,1.2881,1.2881,1.2881,1.2881,1.2881,1.2881,1.2881,1.2881,1.2881,1.2881,1.2881,1.2881,1.2881,1.2881,1.3065,1.3637,1.4236,1.488,1.5454,1.6051,1.6522,1.6522,1.6522,1.6522,1.6522,1.6522,1.685,1.7935,1.7303,1.7413,1.9489,1.8432,1.811,1.99,1.8812,1.8149,1.8802,1.7685,1.6837,1.6632,1.5858,1.571,1.6427,1.5935,1.6107,1.7236,1.6536,1.6846,1.8349,1.7716,1.8102,1.9522,1.9443,1.9524,1.9637,1.9691,1.9039,1.7869,1.8633,1.8415,1.7588,1.7891,1.8008,1.8144,1.9628,2.0204,2.0398,2.2113,2.2763,2.2763,1.6514,1.4284,1.208,1.2253,1.117,1.0238,1.0047,1.0364,1.0618,1.0618,1.0294,0.9886,0.9243,0.9546,1.0064,1.0762,1.1434,1.2107,1.2832,1.2881,1.2881,1.2881,1.2881,1.2881,1.2881,1.2881,1.32,1.3779,1.3571,1.3511,1.3579,1.2545,1.2238,1.2499,1.2377,1.2545,1.2891,1.2881,1.2881,1.2881,1.2881,1.2881,1.2881,1.2881,1.2881,1.2881,1.2881,1.2881,1.2881,1.2881,1.2881,1.2881,1.2881,1.2881,1.2881,1.2881,1.2881,1.2881,1.2881,1.2881,1.3065,1.3637,1.4236,1.488,1.5454,1.6051,1.6522,1.6522,1.6522,1.6522,1.6522,1.6522,1.6607,1.6876,1.6729,1.6992,1.814,1.7772,1.7791,1.8904,1.8361,1.8166,1.8927,1.8199,1.7981,1.8722,1.7519,1.6606,1.6234,1.6444,1.6902,1.7666,1.7025,1.7381,1.8759,1.8475,1.9097,2.0652,1.9622,1.9515,2.018,1.9,1.8349,1.7988,1.8008,1.8008,1.8008,1.8008,1.8008,1.8076,1.8977,1.9299,1.9562,2.129,2.1877,2.2002,1.4171,1.3731,1.2815,1.1874,1.133,1.0883,1.0494,1.0498,1.0624,1.0624,1.0301,1.0047,0.986,0.9994,1.0317,1.0736,1.1416,1.2089,1.2832,1.2881,1.2881,1.2881,1.2881,1.2881,1.2881,1.2881,1.2968,1.32,1.296,1.2828,1.2859,1.3135,1.3057,1.2783,1.2721,1.2801,1.2881,1.2881,1.2881,1.2881,1.2881,1.2881,1.2881,1.2881,1.2881,1.2881,1.2881,1.2881,1.2881,1.2881,1.2881,1.2881,1.2881,1.2881,1.2881,1.2881,1.2881,1.2881,1.2881,1.2881,1.2978,1.3152,1.3647,1.4236,1.4824,1.6077,1.6999,1.6597,1.6835,1.6986,1.6584,1.6522,1.6734,1.7388,1.6952,1.7112,1.8827,1.8126,1.8069,1.968,1.897,1.8729,1.9762,1.898,1.8337,1.8187,1.8082,1.7873,1.7492,1.7128,1.7605,1.903,1.8536,1.9059,2.0636,1.9645,1.9806,2.123,2.0768,2.0528,2.0432,1.8885,1.8073,1.8008,1.8008,1.8008,1.8008,1.8008,1.8008,1.8076,1.8977,1.9299,1.9431,2.059,2.1365,2.1939,1.3338,1.3157,1.2692,1.1572,1.1336,1.1142,1.0775,1.0628,1.0665,1.0708,1.0468,1.0356,1.053,1.0632,1.0754,1.0957,1.1243,1.1832,1.2832,1.3027,1.3047,1.2891,1.3037,1.3037,1.2881,1.2881,1.3017,1.3238,1.3056,1.2972,1.3022,1.33,1.3238,1.2881,1.2881,1.2881,1.2881,1.2881,1.2881,1.2881,1.2881,1.2881,1.2881,1.2881,1.2881,1.2881,1.2881,1.2881,1.2881,1.2881,1.2881,1.2881,1.2881,1.2881,1.2881,1.2881,1.2881,1.2881,1.2881,1.2881,1.2881,1.2881,1.3324,1.4093,1.5107,1.6049,1.6781,1.7092,1.7099,1.7011,1.6873,1.666,1.6678,1.7193,1.6878,1.7053,1.8645,1.8215,1.8303,1.9907,1.9522,1.9398,2.0109,1.9842,1.9435,1.8932,1.8829,1.8849,1.8995,1.8118,1.8166,1.9265,1.9233,1.9917,2.1428,2.0724,2.0842,2.1807,2.1379,2.0749,1.9818,1.8873,1.8496,1.8477,1.8311,1.8242,1.8242,1.8242,1.8154,1.8095,1.8768,1.893,1.8911,1.9814,2.0462,2.1037,1.36,1.2727,1.1804,1.151,1.1229,1.1049,1.1022,1.0775,1.0752,1.0955,1.0742,1.0753,1.1226,1.1227,1.1256,1.139,1.1102,1.1563,1.291,1.334,1.3379,1.2988,1.334,1.335,1.293,1.2959,1.3222,1.3773,1.3742,1.3732,1.3732,1.3152,1.2881,1.2881,1.2881,1.2881,1.2881,1.2881,1.2881,1.2881,1.2881,1.2881,1.2881,1.2881,1.2881,1.2881,1.2881,1.2881,1.2881,1.2881,1.2881,1.2881,1.2881,1.2881,1.2881,1.2881,1.2881,1.2881,1.2881,1.2881,1.2891,1.291,1.3395,1.4312,1.5928,1.5984,1.6118,1.7743,1.7252,1.6704,1.7247,1.6898,1.6535,1.6541,1.6572,1.6878,1.78,1.807,1.8567,1.9678,2.0098,2.0271,2.0131,2.0792,2.1044,2.0613,1.9796,1.9639,2.0479,1.9381,1.8779,1.8797,1.9424,2.0311,2.1427,2.186,2.214,2.2368,2.1574,2.0286,1.8762,1.9102,1.9287,1.9268,1.8857,1.8682,1.8682,1.8682,1.8447,1.8135,1.8525,1.8428,1.8115,1.8962,1.9264,1.9617,1.2666,1.2391,1.2104,1.1817,1.171,1.1583,1.1356,1.1076,1.0915,1.0982,1.0742,1.0654,1.0767,1.0547,1.0878,1.2061,1.2376,1.2903,1.3786,1.3926,1.3945,1.3848,1.3936,1.3789,1.3369,1.3672,1.3723,1.3591,1.3263,1.3104,1.3104,1.2978,1.2881,1.2881,1.2881,1.2881,1.2881,1.2881,1.2881,1.2881,1.2881,1.2881,1.2881,1.2881,1.2881,1.2881,1.2881,1.2881,1.2881,1.2881,1.2881,1.2881,1.2881,1.2881,1.2881,1.2881,1.2881,1.2881,1.2881,1.2881,1.2959,1.3281,1.4104,1.4881,1.5281,1.5997,1.6536,1.65,1.6631,1.6804,1.7135,1.7075,1.7011,1.7147,1.7174,1.7238,1.7362,1.8275,1.9123,1.9641,2.073,2.1365,2.1323,2.1461,2.1591,2.1585,2.1212,2.0865,2.0518,2.1088,2.1198,2.0836,2.1375,2.2009,2.2685,2.3257,2.334,2.3059,2.1495,2.0505,2.0093,1.9518,1.9287,1.9277,1.918,1.9131,1.9131,1.9131,1.9072,1.8994,1.9092,1.8867,1.8486,1.8686,1.9005,1.9365,1.2305,1.2191,1.2051,1.1897,1.1757,1.1657,1.163,1.1383,1.1243,1.1376,1.1136,1.1152,1.1544,1.1256,1.1549,1.2724,1.266,1.3014,1.4024,1.4326,1.4336,1.4087,1.4326,1.4228,1.3799,1.3828,1.3643,1.3223,1.2998,1.2881,1.2881,1.2881,1.2881,1.2881,1.2881,1.2881,1.2881,1.2881,1.2881,1.2881,1.2881,1.2881,1.2881,1.2881,1.2881,1.2881,1.2881,1.2881,1.2881,1.2881,1.2881,1.2881,1.2881,1.2881,1.2881,1.2881,1.2881,1.2881,1.2881,1.3018,1.3271,1.3691,1.4228,1.4765,1.5331,1.5764,1.6221,1.6935,1.6744,1.6717,1.7631,1.7428,1.7147,1.7372,1.7587,1.7635,1.7293,1.8303,1.9362,2.0165,2.1096,2.1787,2.2015,2.2615,2.2744,2.2183,2.225,2.2136,2.1799,2.2236,2.2115,2.1301,2.2475,2.3226,2.3527,2.3614,2.3346,2.2661,2.1431,2.07,2.0285,1.9989,1.9873,1.9863,1.9658,1.957,1.957,1.957,1.9463,1.9307,1.9502,1.9316,1.8906,1.8711,1.8755,1.9053,1.2305,1.2104,1.1937,1.1937,1.1724,1.1643,1.1897,1.1683,1.1583,1.1837,1.161,1.1696,1.2444,1.2248,1.2397,1.3236,1.253,1.2637,1.4,1.4612,1.4717,1.4291,1.4678,1.4678,1.4238,1.375,1.3359,1.3066,1.2832,1.2774,1.2881,1.2774,1.2774,1.2881,1.2881,1.2881,1.2881,1.2881,1.2881,1.2881,1.2881,1.2881,1.2881,1.2881,1.2881,1.2881,1.2881,1.2881,1.2881,1.2881,1.2881,1.2891,1.2959,1.2978,1.2988,1.3047,1.3066,1.3057,1.2998,1.333,1.3789,1.4141,1.4326,1.4676,1.5687,1.5597,1.5875,1.7665,1.7104,1.6819,1.8356,1.8012,1.7556,1.7688,1.8042,1.8083,1.7558,1.8448,1.9641,2.0941,2.1606,2.2228,2.2824,2.3914,2.4103,2.3026,2.3228,2.3459,2.3607,2.3308,2.2603,2.1547,2.3181,2.4092,2.4041,2.346,2.281,2.1981,2.1406,2.0731,2.0029,2.0391,2.0566,2.0547,2.0176,2.0019,2.0019,2.0019,1.9805,1.9512,1.9873,1.9717,1.9238,1.8867,1.8652,1.8695,1.2305,1.2265,1.2231,1.2231,1.2198,1.2184,1.2225,1.1984,1.1817,1.1864,1.161,1.1423,1.156,1.1587,1.1892,1.2699,1.2696,1.3052,1.4128,1.4916,1.5283,1.5215,1.5283,1.5117,1.4697,1.3916,1.3652,1.3883,1.2622,1.2295,1.2881,1.2236,1.2295,1.2881,1.2881,1.2881,1.2881,1.2881,1.2881,1.2881,1.2881,1.2881,1.2881,1.2881,1.2881,1.2881,1.2881,1.2881,1.2881,1.2881,1.2881,1.2939,1.3301,1.3408,1.3477,1.3786,1.3883,1.3857,1.3506,1.3984,1.46,1.4668,1.5225,1.5841,1.6019,1.6286,1.6572,1.6884,1.7358,1.7954,1.8854,1.9111,1.9215,1.9267,1.8933,1.8637,1.8442,1.9506,2.0762,2.1944,2.3108,2.4025,2.4572,2.4792,2.508,2.5435,2.4927,2.476,2.5029,2.5141,2.4726,2.3836,2.4352,2.4505,2.4186,2.3271,2.2518,2.1966,2.109,2.0613,2.0469,2.0537,2.0566,2.0634,2.0498,2.0469,2.0469,2.0469,2.042,2.0371,2.0439,1.998,1.9277,1.9209,1.873,1.8144,1.2512,1.2412,1.2351,1.2512,1.2412,1.2305,1.2305,1.2184,1.2104,1.2104,1.1984,1.1897,1.1897,1.1757,1.1803,1.2221,1.3006,1.3623,1.411,1.4707,1.5273,1.5762,1.5537,1.5107,1.4453,1.4043,1.3721,1.3457,1.274,1.2559,1.2881,1.2559,1.2559,1.2881,1.2881,1.2881,1.2881,1.2881,1.2881,1.2881,1.2881,1.2881,1.2881,1.2881,1.2881,1.2881,1.2881,1.2881,1.291,1.3145,1.3213,1.3291,1.3711,1.3848,1.3887,1.4029,1.4077,1.4087,1.418,1.4648,1.5176,1.542,1.5957,1.6426,1.6426,1.6582,1.6797,1.7031,1.7203,1.7761,1.9144,1.9122,1.9107,1.9822,1.9571,1.9365,1.9397,2.0381,2.1636,2.313,2.3787,2.4439,2.5394,2.5448,2.5462,2.5341,2.5402,2.5452,2.5537,2.5567,2.5557,2.5473,2.4853,2.4546,2.4648,2.3374,2.2574,2.2339,2.161,2.1279,2.1269,2.1035,2.1055,2.125,2.0771,2.0703,2.0908,2.0664,2.0566,2.0566,2.0566,2.0176,1.9619,1.9619,1.9228,1.8862,1.2775,1.2619,1.2585,1.2812,1.2605,1.2405,1.2405,1.2345,1.2305,1.2305,1.2305,1.2325,1.2398,1.2144,1.2141,1.2425,1.3177,1.3858,1.4338,1.4326,1.4781,1.5894,1.5292,1.4561,1.3744,1.3803,1.3394,1.2553,1.2616,1.2657,1.2657,1.2657,1.2725,1.2881,1.2881,1.2881,1.2881,1.2881,1.2881,1.2881,1.2881,1.2881,1.2881,1.2881,1.2881,1.2881,1.2881,1.2939,1.3076,1.3398,1.3574,1.3721,1.415,1.4287,1.4307,1.435,1.4379,1.4521,1.4961,1.5312,1.5674,1.6113,1.6553,1.6914,1.7002,1.71,1.7295,1.7734,1.7869,1.8423,1.996,1.9791,1.9714,2.0673,2.055,2.0395,2.0512,2.1417,2.26,2.4126,2.4339,2.4811,2.5895,2.6011,2.5781,2.5262,2.573,2.6013,2.603,2.5988,2.6251,2.6816,2.5257,2.446,2.4636,2.3329,2.2585,2.236,2.2058,2.1885,2.1875,2.1543,2.1562,2.1846,2.1172,2.1016,2.1211,2.0859,2.0654,2.0566,2.0566,2.0303,1.9912,1.9912,1.9787,1.9857,1.2822,1.2959,1.3146,1.3173,1.2919,1.2788,1.2788,1.2478,1.2305,1.2305,1.2305,1.2405,1.2761,1.2445,1.2742,1.3918,1.3065,1.3237,1.501,1.3925,1.3862,1.5294,1.4204,1.3289,1.2738,1.2888,1.2546,1.1589,1.1802,1.1864,1.1864,1.1864,1.2236,1.2881,1.2881,1.2881,1.2881,1.2881,1.2881,1.2881,1.2881,1.2881,1.2881,1.2881,1.2881,1.2881,1.2881,1.3135,1.3467,1.3496,1.3769,1.417,1.46,1.4736,1.4814,1.5205,1.5312,1.541,1.585,1.6056,1.6123,1.6572,1.7012,1.7441,1.7822,1.8213,1.8623,1.9053,2.0485,2.1629,2.1799,2.2313,2.277,2.2722,2.2293,2.1966,2.1943,2.289,2.3906,2.4684,2.5199,2.5766,2.6413,2.6463,2.6395,2.6408,2.6408,2.6647,2.713,2.7155,2.7406,2.7971,2.5996,2.4517,2.3599,2.3025,2.2203,2.1311,2.167,2.1885,2.1885,2.1846,2.1855,2.1885,2.1816,2.1582,2.123,2.1201,2.0937,2.0566,2.0566,2.0303,1.9912,1.9912,2.0219,2.0747,1.3267,1.3253,1.3267,1.3447,1.3233,1.3033,1.3033,1.2939,1.2866,1.2866,1.2866,1.2913,1.3019,1.2759,1.277,1.3258,1.3386,1.3667,1.4258,1.4529,1.4477,1.4106,1.3675,1.3083,1.2497,1.2327,1.2058,1.1642,1.1721,1.2016,1.251,1.274,1.3125,1.3643,1.3389,1.3271,1.3252,1.2988,1.2881,1.2881,1.2881,1.2881,1.291,1.3174,1.3271,1.3301,1.3564,1.376,1.3936,1.4209,1.4404,1.4609,1.5039,1.5176,1.5264,1.5693,1.5811,1.5967,1.6689,1.668,1.6582,1.7021,1.7656,1.8203,1.8359,1.873,1.9082,1.9248,2.0329,2.1435,2.1909,2.2491,2.3055,2.3651,2.3153,2.2871,2.3393,2.4042,2.4785,2.5711,2.6013,2.6352,2.6917,2.6735,2.6533,2.6533,2.6533,2.6703,2.7256,2.7607,2.7592,2.7112,2.5721,2.4824,2.4433,2.2939,2.2158,2.2031,2.2461,2.2656,2.2656,2.2393,2.2412,2.2637,2.2119,2.1943,2.2012,2.1748,2.1533,2.1357,2.1084,2.0713,2.0312,2.0312,2.0696,2.1239,1.3519,1.3561,1.3547,1.3748,1.354,1.3313,1.3227,1.3213,1.3173,1.308,1.3153,1.3247,1.334,1.2986,1.2973,1.3466,1.3596,1.3666,1.3836,1.4294,1.4143,1.3251,1.2936,1.2444,1.1665,1.193,1.1849,1.1455,1.2193,1.269,1.2968,1.3461,1.3857,1.4068,1.3828,1.3711,1.3682,1.3262,1.3154,1.3262,1.3135,1.3154,1.3311,1.3594,1.3711,1.374,1.398,1.4165,1.4385,1.4687,1.4873,1.5049,1.5478,1.5713,1.5859,1.6016,1.6162,1.6436,1.7178,1.7266,1.7207,1.751,1.8115,1.8672,1.8809,1.918,1.9595,2.0082,2.0969,2.1925,2.2979,2.3455,2.392,2.4814,2.4541,2.4317,2.4685,2.5365,2.6063,2.6653,2.6866,2.713,2.7507,2.7205,2.6904,2.6728,2.6586,2.6551,2.676,2.7306,2.728,2.6508,2.5397,2.4821,2.4974,2.3012,2.2227,2.2519,2.2939,2.3135,2.3125,2.2842,2.2861,2.3105,2.2529,2.2373,2.249,2.2197,2.2002,2.1938,2.1939,2.1769,2.1577,2.188,2.2421,2.3062,1.3566,1.3881,1.4088,1.4088,1.3841,1.3547,1.326,1.3213,1.3106,1.2876,1.3026,1.3327,1.3532,1.3106,1.3445,1.4918,1.3418,1.2871,1.4149,1.298,1.2469,1.2878,1.1901,1.1015,1.014,1.1598,1.1895,1.0914,1.3023,1.3746,1.3095,1.3809,1.4087,1.4087,1.4087,1.4087,1.4058,1.3691,1.375,1.4048,1.3682,1.376,1.4077,1.4087,1.4087,1.4087,1.4087,1.4424,1.4785,1.4785,1.5068,1.5498,1.5928,1.6377,1.6641,1.6201,1.6387,1.6836,1.7275,1.7695,1.8018,1.8018,1.833,1.876,1.9189,1.9619,2.0331,2.1717,2.2776,2.3954,2.5488,2.5681,2.5799,2.6433,2.6533,2.6264,2.5686,2.7055,2.7908,2.7356,2.777,2.8109,2.8109,2.8097,2.7871,2.7331,2.6821,2.6252,2.5608,2.6203,2.6483,2.6483,2.502,2.4419,2.4777,2.3293,2.251,2.2519,2.2939,2.3135,2.3135,2.3135,2.3135,2.3135,2.3135,2.29,2.2519,2.2519,2.2275,2.206,2.3122,2.3503,2.3663,2.477,2.5766,2.6467,1.3955,1.4028,1.4088,1.4088,1.3841,1.3687,1.3808,1.3647,1.3554,1.3674,1.3768,1.3861,1.3948,1.3427,1.3297,1.3712,1.304,1.2797,1.3189,1.2614,1.2276,1.2172,1.1675,1.1209,1.0742,1.0753,1.1001,1.1533,1.2207,1.3014,1.391,1.4382,1.4746,1.5019,1.4727,1.459,1.4561,1.4131,1.397,1.4068,1.3941,1.397,1.4116,1.4473,1.459,1.4629,1.4922,1.5117,1.5225,1.5225,1.5508,1.5947,1.6387,1.6621,1.6768,1.6934,1.708,1.7344,1.8066,1.835,1.8447,1.8447,1.8994,1.957,1.9697,2.0059,2.0698,2.178,2.2776,2.3863,2.5051,2.6073,2.6703,2.6559,2.7105,2.7419,2.6854,2.7544,2.8185,2.8411,2.8235,2.826,2.8649,2.7348,2.6541,2.6709,2.6186,2.5803,2.563,2.6203,2.6141,2.5294,2.4819,2.4322,2.3627,2.2886,2.2656,2.2949,2.3076,2.3135,2.3135,2.3135,2.3135,2.3135,2.3135,2.3066,2.2949,2.2949,2.2881,2.281,2.3629,2.3987,2.4108,2.4903,2.5766,2.6514,1.4088,1.4088,1.4088,1.4088,1.3841,1.3701,1.3881,1.3761,1.3707,1.3888,1.4015,1.4088,1.4088,1.3561,1.326,1.3373,1.2993,1.2768,1.2579,1.2405,1.2225,1.2051,1.1757,1.141,1.1002,1.0946,1.1217,1.1834,1.2134,1.2798,1.3726,1.397,1.4396,1.4923,1.4667,1.4735,1.501,1.457,1.4482,1.4619,1.4453,1.4492,1.4687,1.5127,1.5293,1.5352,1.5781,1.5937,1.5937,1.5937,1.6221,1.6602,1.6699,1.6963,1.7256,1.7353,1.7617,1.7988,1.8496,1.8887,1.9141,1.9141,1.9531,1.9912,1.9912,2.0391,2.1202,2.2605,2.3512,2.4614,2.6263,2.7148,2.7413,2.6917,2.7361,2.7445,2.6442,2.7019,2.7524,2.7543,2.7548,2.7609,2.7933,2.6818,2.6031,2.5871,2.5275,2.4837,2.4617,2.4987,2.4808,2.4125,2.4125,2.38,2.3144,2.2891,2.2891,2.3135,2.3135,2.3135,2.3135,2.3135,2.3135,2.3135,2.3135,2.3135,2.3135,2.3135,2.3387,2.3856,2.4744,2.5371,2.5817,2.6741,2.7411,2.7794,1.4088,1.4088,1.4088,1.4088,1.3841,1.3654,1.3681,1.3579,1.3572,1.3681,1.3921,1.4088,1.4088,1.3587,1.3353,1.3539,1.3093,1.2694,1.2318,1.2305,1.2305,1.2305,1.2051,1.1643,1.1082,1.1775,1.1981,1.1817,1.2528,1.2948,1.3009,1.3009,1.3433,1.4213,1.4213,1.4628,1.5391,1.5,1.5068,1.5381,1.5039,1.5127,1.5518,1.5957,1.6123,1.6172,1.6592,1.6665,1.6738,1.6777,1.7051,1.7314,1.6963,1.7402,1.7988,1.7607,1.8066,1.8701,1.874,1.9326,1.9922,1.9961,2.0,2.0039,2.0039,2.0684,2.182,2.3788,2.4525,2.5595,2.8047,2.8164,2.7692,2.7168,2.7155,2.6648,2.5116,2.5786,2.6304,2.5753,2.6192,2.6483,2.6483,2.6389,2.587,2.465,2.4158,2.3642,2.3115,2.3135,2.3135,2.3135,2.3135,2.3135,2.3135,2.3135,2.3135,2.3135,2.3135,2.3135,2.3135,2.3135,2.3135,2.3135,2.3135,2.3135,2.3212,2.3212,2.3877,2.5041,2.6213,2.7209,2.8255,2.9365,2.9714,2.9624,1.4088,1.4088,1.4088,1.4088,1.3841,1.3721,1.3955,1.3794,1.3728,1.3961,1.4048,1.4088,1.4088,1.3768,1.3574,1.3552,1.3093,1.2694,1.2318,1.2305,1.2305,1.2305,1.2238,1.2044,1.1683,1.1424,1.153,1.2082,1.2079,1.2389,1.3009,1.3009,1.3433,1.4213,1.4213,1.4628,1.54,1.5312,1.5322,1.543,1.5684,1.584,1.5967,1.6416,1.6592,1.6602,1.6699,1.6665,1.6787,1.7129,1.7305,1.7422,1.7656,1.8086,1.8486,1.8389,1.874,1.9219,1.9551,1.9775,2.0,2.0342,2.0693,2.0947,2.0947,2.1367,2.2046,2.3265,2.3568,2.4061,2.5428,2.5924,2.5937,2.5418,2.612,2.6379,2.5541,2.601,2.6438,2.6326,2.6405,2.6483,2.6483,2.5714,2.4566,2.3073,2.3196,2.3211,2.3135,2.3135,2.3135,2.3135,2.3135,2.3135,2.3135,2.3135,2.3135,2.3135,2.3135,2.3135,2.3135,2.3135,2.3135,2.3135,2.3135,2.3637,2.4457,2.4457,2.5136,2.6224,2.736,2.7924,2.8255,2.9365,2.9197,2.8347,1.4088,1.4088,1.4088,1.4088,1.3841,1.3741,1.4041,1.3834,1.3748,1.4048,1.4088,1.4088,1.4088,1.3821,1.3587,1.3447,1.3153,1.2839,1.2532,1.2512,1.2452,1.2311,1.2305,1.2231,1.2078,1.1637,1.1465,1.1623,1.1609,1.1783,1.2019,1.2176,1.2693,1.352,1.3962,1.4479,1.5125,1.5766,1.5918,1.5762,1.6201,1.6387,1.6436,1.6875,1.7041,1.707,1.7266,1.7344,1.7383,1.7607,1.7812,1.8018,1.8242,1.8603,1.8945,1.8945,1.9248,1.9639,1.9853,2.0225,2.0596,2.083,2.1367,2.1738,2.1328,2.1728,2.2502,2.3514,2.3916,2.431,2.5447,2.582,2.5747,2.4914,2.5304,2.5376,2.4556,2.4651,2.4893,2.4893,2.4893,2.4893,2.4893,2.4307,2.3624,2.2822,2.3018,2.3135,2.3135,2.3135,2.3135,2.3135,2.3135,2.3135,2.3135,2.3135,2.3135,2.3135,2.3135,2.3135,2.3135,2.3135,2.3135,2.3135,2.3135,2.3714,2.4787,2.4787,2.5786,2.729,2.7844,2.8426,2.8937,2.8937,2.8279,2.729,1.4088,1.4088,1.4088,1.4088,1.3881,1.3801,1.4048,1.3874,1.3808,1.4055,1.4088,1.4088,1.4088,1.3868,1.3621,1.338,1.336,1.3206,1.2929,1.2802,1.2559,1.2311,1.2305,1.2305,1.2305,1.2064,1.1677,1.1142,1.1329,1.1303,1.1069,1.1316,1.1969,1.2975,1.376,1.4435,1.5122,1.6249,1.6514,1.6211,1.666,1.6846,1.6894,1.7324,1.749,1.7539,1.7881,1.8008,1.8018,1.8096,1.835,1.8582,1.8721,1.9043,1.9394,1.9394,1.9697,2.0039,2.0117,2.0674,2.125,2.1328,2.1934,2.2324,2.1611,2.206,2.2863,2.3835,2.4283,2.4798,2.5724,2.5891,2.5641,2.4628,2.4542,2.4211,2.3222,2.3135,2.3135,2.3135,2.3135,2.3135,2.3135,2.3135,2.3135,2.3135,2.3135,2.3135,2.3135,2.3135,2.3135,2.3135,2.3135,2.3135,2.3135,2.3135,2.3135,2.3135,2.3135,2.3135,2.3135,2.3135,2.3135,2.3135,2.3135,2.3714,2.4787,2.5041,2.6273,2.8096,2.8335,2.8858,2.9365,2.8016,2.7116,2.6472,1.4088,1.4088,1.4088,1.4088,1.4055,1.4041,1.4082,1.4055,1.4041,1.4082,1.4088,1.4088,1.4088,1.4048,1.4008,1.3968,1.3968,1.3734,1.318,1.2659,1.2345,1.2305,1.2305,1.2305,1.2305,1.2265,1.2084,1.175,1.153,1.1403,1.1369,1.141,1.2294,1.3892,1.4024,1.498,1.6452,1.6636,1.6699,1.668,1.7119,1.7295,1.7344,1.7764,1.793,1.793,1.7988,1.8008,1.8066,1.8428,1.8594,1.8701,1.9082,1.9492,1.9824,1.9824,2.0137,2.0557,2.0947,2.1143,2.1328,2.1699,2.2158,2.248,2.2363,2.2705,2.3047,2.3221,2.326,2.3387,2.356,2.356,2.3474,2.3387,2.3299,2.3309,2.3135,2.3135,2.3135,2.3135,2.3135,2.3135,2.3135,2.3135,2.3135,2.3135,2.3135,2.3135,2.3135,2.3135,2.3135,2.3135,2.3135,2.3135,2.3135,2.3135,2.3135,2.3135,2.3135,2.3135,2.3135,2.3135,2.3135,2.3135,2.3135,2.3714,2.4872,2.588,2.6953,2.8176,2.9197,2.9028,2.8096,2.6025,2.5797,2.6224,1.4088,1.4088,1.4088,1.4088,1.4088,1.4088,1.4088,1.4088,1.4088,1.4088,1.4088,1.4088,1.4088,1.4088,1.4088,1.4088,1.4088,1.3975,1.3721,1.3447,1.3153,1.2826,1.2812,1.2652,1.2311,1.2305,1.2238,1.2111,1.1977,1.1744,1.143,1.1764,1.2331,1.3164,1.4202,1.5172,1.5927,1.6968,1.7168,1.6787,1.7461,1.7734,1.7754,1.7939,1.8008,1.8008,1.8008,1.8008,1.8037,1.8223,1.8603,1.9033,1.9228,1.9746,2.0273,2.0273,2.0635,2.1084,2.1279,2.1641,2.2002,2.2187,2.2549,2.2861,2.2861,2.3008,2.3135,2.3135,2.3135,2.3135,2.3135,2.3135,2.3135,2.3135,2.3135,2.3135,2.3135,2.3135,2.3135,2.3135,2.3135,2.3135,2.3135,2.3135,2.3135,2.3135,2.3135,2.3135,2.3135,2.3135,2.3135,2.3135,2.3135,2.3135,2.3135,2.3135,2.3135,2.3135,2.3135,2.3135,2.3135,2.3135,2.3135,2.3135,2.3135,2.4135,2.5797,2.6307,2.7545,2.9028,2.8937,2.7775,2.6108,2.5199,2.4713,2.4478]},{"header":{"parameterUnit":"m.s-1","parameterCategory":1,"la1":30.6,"la2":28.766,"lo1":-90.7593,"lo2":-88.6598,"dy":0.0162,"dx":0.0183,"nx":116,"ny":114,"refTime":"2023-09-23T06:00:00:Z","depth":0,"parameterNumber":3,"parameterNumberName":"V-component_of_WINDS"},"data":[0.0,0.0,0.0,0.0,0.0,0.0,0.0,0.0,0.0,0.0,0.0,0.0,0.0,0.0,0.0,0.0,0.0,0.0,0.0,0.0,0.0,0.0,0.0,0.0,0.0,0.0,0.0,0.0,0.0,0.0,0.0,0.0,0.0,0.0,0.0,0.0,0.0,0.0,0.0,0.0,0.0,0.0,0.0,0.0,0.0,0.0,0.0,0.0,0.0,0.0,0.0,0.0,0.0,0.0,0.0,0.0,0.0,0.0,0.0,0.0,0.0,0.0,0.0,0.0,0.0,0.0,0.0,0.0,0.0,0.0,0.0,0.0,0.0,0.0,0.0,0.0,0.0,0.0,0.0,0.0,0.0,0.0,0.0,0.0,0.0,0.0,0.0,0.0,0.0,0.0,0.0,0.0,0.0,0.0,0.0,0.0,0.0,0.0,0.0,0.0,0.0,0.0,0.0,0.0,0.0,0.0,0.0,0.0,0.0,0.0,0.0,0.0,0.0,0.0,0.0,0.0,0.0,0.0,0.0,0.0,0.0,0.0,0.0,0.0,0.0,0.0,0.0,0.0,0.0,0.0,0.0,0.0,0.0,0.0,0.0,0.0,0.0,0.0,0.0,0.0,0.0,0.0,0.0,0.0,0.0,0.0,0.0,0.0,0.0,0.0,0.0,0.0,0.0,0.0,0.0,0.0,0.0,0.0,0.0,0.0,0.0,0.0,0.0,0.0,0.0,0.0,0.0,0.0,0.0,0.0,0.0,0.0,0.0,0.0,0.0,0.0,0.0,0.0,0.0,0.0,0.0,0.0,0.0,0.0,0.0,0.0,0.0,0.0,0.0,0.0,0.0,0.0,0.0,0.0,0.0,0.0,0.0,0.0,0.0,0.0,0.0,0.0,0.0,0.0,0.0,0.0,0.0,0.0,0.0,0.0,0.0,0.0,0.0,0.0,0.0,0.0,0.0,0.0,0.0,0.0,0.0,0.0,0.0,0.0,0.0,0.0,0.0,0.0,0.0,0.0,0.0,0.0,0.0,0.0,0.0,0.0,0.0,0.0,0.0,0.0,0.0,0.0,0.0,0.0,0.0,0.0,0.0,0.0,0.0,0.0,0.0,0.0,0.0,0.0,0.0,0.0,0.0,0.0,0.0,0.0,0.0,0.0,0.0,0.0,0.0,0.0,0.0,0.0,0.0,0.0,0.0,0.0,0.0,0.0,0.0,0.0,0.0,0.0,0.0,0.0,0.0,0.0,0.0,0.0,0.0,0.0,0.0,0.0,0.0,0.0,0.0,0.0,0.0,0.0,0.0,0.0,0.0,0.0,0.0,0.0,0.0,0.0,0.0,0.0,0.0,0.0,0.0,0.0,0.0,0.0,0.0,0.0,0.0,0.0,0.0,0.0,0.0,0.0,0.0,0.0,0.0,0.0,0.0,0.0,0.0,0.0,0.0,0.0,0.0,0.0,0.0,0.0,0.0,0.0,0.0,0.0,0.0,0.0,0.0,0.0,0.0,0.0,0.0,0.0,0.0,0.0,0.0,0.0,0.0,0.0,0.0,0.0,0.0,0.0,0.0,0.0,0.0,0.0,0.0,0.0,0.0,0.0,0.0,0.0,0.0,0.0,0.0,0.0,0.0,0.0,0.0,0.0,0.0,0.0,0.0,0.0,0.0,0.0,0.0,0.0,0.0,0.0,0.0,0.0,0.0,0.0,0.0,0.0,0.0,0.0,0.0,0.0,0.0,0.0,0.0,0.0,0.0,0.0,0.0,0.0,0.0,0.0,0.0,0.0,0.0,0.0,0.0,0.0,0.0,0.0,0.0,0.0,0.0,0.0,0.0,0.0,0.0,0.0,0.0,0.0,0.0,0.0,0.0,0.0,0.0,0.0,0.0,0.0,0.0,0.0,0.0,0.0,0.0,0.0,0.0,0.0,0.0,0.0,0.0,0.0,0.0,0.0,0.0,0.0,0.0,0.0,0.0,0.0,0.0,0.0,0.0,0.0,0.0,0.0,0.0,0.0,0.0,0.0,0.0,0.0,0.0,0.0,0.0,0.0,0.0,0.0,0.0,0.0,0.0,0.0,0.0,0.0,0.0,0.0,0.0,0.0,0.0,0.0,0.0,0.0,0.0,0.0,0.0,0.0,0.0,0.0,0.0,0.0,0.0,0.0,0.0,0.0,0.0,0.0,0.0,0.0,0.0,0.0,0.0,0.0,0.0,0.0,0.0,0.0,0.0,0.0,0.0,0.0,0.0,0.0,0.0,0.0,0.0,0.0,0.0,0.0,0.0,0.0,0.0,0.0,0.0,0.0,0.0,0.0,0.0,0.0,0.0,0.0,0.0,0.0,0.0,0.0,0.0,0.0,0.0,0.0,0.0,0.0,0.0,0.0,0.0,0.0,0.0,0.0,0.0,0.0,0.0,0.0,0.0,0.0,0.0,0.0,0.0,0.0,0.0,0.0,0.0,0.0,0.0,0.0,0.0,0.0,0.0,0.0,0.0,0.0,0.0,0.0,0.0,0.0,0.0,0.0,0.0,0.0,0.0,0.0,0.0,0.0,0.0,0.0,0.0,0.0,0.0,0.0,0.0,0.0,0.0,0.0,0.0,0.0,0.0,0.0,0.0,0.0,0.0,0.0,0.0,0.0,0.0,0.0,0.0,0.0,0.0,0.0,0.0,0.0,0.0,0.0,0.0,0.0,0.0,0.0,0.0,0.0,0.0,0.0,0.0,0.0,0.0,0.0,0.0,0.0,0.0,0.0,0.0,0.0,0.0,0.0,0.0,0.0,0.0,0.0,0.0,0.0,0.0,0.0,0.0,0.0,0.0,0.0,0.0,0.0,0.0,0.0,0.0,0.0,0.0,0.0,0.0,0.0,0.0,0.0,0.0,0.0,0.0,0.0,0.0,0.0,0.0,0.0,0.0,0.0,0.0,0.0,0.0,0.0,0.0,0.0,0.0,0.0,0.0,0.0,0.0,0.0,0.0,0.0,0.0,0.0,0.0,0.0,0.0,0.0,0.0,0.0,0.0,0.0,0.0,0.0,0.0,0.0,0.0,0.0,0.0,0.0,0.0,0.0,0.0,0.0,0.0,0.0,0.0,0.0,0.0,0.0,0.0,0.0,0.0,0.0,0.0,0.0,0.0,0.0,0.0,0.0,0.0,0.0,0.0,0.0,0.0,0.0,0.0,0.0,0.0,0.0,0.0,0.0,0.0,0.0,0.0,0.0,0.0,0.0,0.0,0.0,0.0,0.0,0.0,0.0,0.0,0.0,0.0,0.0,0.0,0.0,0.0,0.0,0.0,0.0,0.0,0.0,0.0,0.0,0.0,0.0,0.0,0.0,0.0,0.0,0.0,0.0,0.0,0.0,0.0,0.0,0.0,0.0,0.0,0.0,0.0,0.0,0.0,0.0,0.0,0.0,0.0,0.0,0.0,0.0,0.0,0.0,0.0,0.0,0.0,0.0,0.0,0.0,0.0,0.0,0.0,0.0,0.0,0.0,0.0,0.0,0.0,0.0,0.0,0.0,0.0,0.0,0.0,0.0,0.0,0.0,0.0,0.0,0.0,0.0,0.0,0.0,0.0,0.0,0.0,0.0,0.0,0.0,0.0,0.0,0.0,0.0,0.0,0.0,0.0,0.0,0.0,0.0,0.0,0.0,0.0,0.0,0.0,0.0,0.0,0.0,0.0,0.0,0.0,0.0,0.0,0.0,0.0,0.0,0.0,0.0,0.0,0.0,0.0,0.0,0.0,0.0,0.0,0.0,0.0,0.0,0.0,0.0,0.0,0.0,0.0,0.0,0.0,0.0,0.0,0.0,0.0,0.0,0.0,0.0,0.0,0.0,0.0,0.0,0.0,0.0,0.0,0.0,0.0,0.0,0.0,0.0,0.0,0.0,0.0,0.0,0.0,0.0,0.0,0.0,0.0,0.0,0.0,0.0,0.0,0.0,0.0,0.0,0.0,0.0,0.0,0.0,0.0,0.0,0.0,0.0,0.0,0.0,0.0,0.0,0.0,0.0,0.0,0.0,0.0,0.0,0.0,0.0,0.0,0.0,0.0,0.0,0.0,0.0,0.0,0.0,0.0,0.0,0.0,0.0,0.0,0.0,0.0,0.0,0.0,0.0,0.0,0.0,0.0,0.0,0.0,0.0,0.0,0.0,0.0,0.0,0.0,0.0,0.0,0.0,0.0,0.0,0.0,0.0,0.0,0.0,0.0,0.0,0.0,0.0,0.0,0.0,0.0,0.0,0.0,0.0,0.0,0.0,0.0,0.0,0.0,0.0,0.0,0.0,0.0,0.0,0.0,0.0,0.0,0.0,0.0,0.0,0.0,0.0,0.0,0.0,0.0,0.0,0.0,0.0,0.0,0.0,0.0,0.0,0.0,0.0,0.0,0.0,0.0,0.0,0.0,0.0,0.0,0.0,0.0,0.0,0.0,0.0,0.0,0.0,0.0,0.0,0.0,0.0,0.0,0.0,0.0,0.0,0.0,0.0,0.0,0.0,0.0,0.0,0.0,0.0,0.0,0.0,0.0,0.0,0.0,0.0,0.0,0.0,0.0,0.0,0.0,0.0,0.0,0.0,0.0,0.0,0.0,0.0,0.0,0.0,0.0,0.0,0.0,0.0,0.0,0.0,0.0,0.0,0.0,0.0,0.0,0.0,0.0,0.0,0.0,0.0,0.0,0.0,0.0,0.0,0.0,0.0,0.0,0.0,0.0,0.0,0.0,0.0,0.0,0.0,0.0,0.0,0.0,0.0,0.0,0.0,0.0,0.0,0.0,0.0,0.0,0.0,0.0,0.0,0.0,0.0,0.0,0.0,0.0,0.0,0.0,0.0,0.0,0.0,0.0,0.0,0.0,0.0,0.0,0.0,0.0,0.0,0.0,0.0,0.0,0.0,0.0,0.0,0.0,0.0,0.0,0.0,0.0,0.0,0.0,0.0,0.0,0.0,0.0,0.0,0.0,0.0,0.0,0.0,0.0,0.0,0.0,0.0,0.0,0.0,0.0,0.0,0.0,0.0,0.0,0.0,0.0,0.0,0.0,0.0,0.0,0.0,0.0,0.0,0.0,0.0,0.0,0.0,0.0,0.0,0.0,0.0,0.0,0.0,0.0,0.0,0.0,0.0,0.0,0.0,0.0,0.0,0.0,0.0,0.0,0.0,0.0,0.0,0.0,0.0,0.0,0.0,0.0,0.0,0.0,0.0,0.0,0.0,0.0,0.0,0.0,0.0,0.0,0.0,0.0,0.0,0.0,0.0,0.0,0.0,0.0,0.0,0.0,0.0,0.0,0.0,0.0,0.0,0.0,0.0,0.0,0.0,0.0,0.0,0.0,0.0,0.0,0.0,0.0,0.0,0.0,0.0,0.0,0.0,0.0,0.0,0.0,0.0,0.0,0.0,0.0,0.0,0.0,0.0,0.0,0.0,0.0,0.0,0.0,0.0,0.0,0.0,0.0,0.0,0.0,0.0,0.0,0.0,0.0,0.0,0.0,0.0,0.0,0.0,0.0,0.0,0.0,0.0,0.0,0.0,0.0,0.0,0.0,0.0,0.0,0.0,0.0,0.0,0.0,0.0,0.0,0.0,0.0,0.0,0.0,0.0,0.0,0.0,0.0,0.0,0.0,0.0,0.0,0.0,0.0,0.0,0.0,0.0,0.0,0.0,0.0,0.0,0.0,0.0,0.0,0.0,0.0,0.0,0.0,0.0,0.0,0.0,0.0,0.0,0.0,0.0,0.0,0.0,0.0,0.0,0.0,0.0,0.0,0.0,0.0,0.0,0.0,0.0,0.0,0.0,0.0,0.0,0.0,0.0,0.0,0.0,0.0,0.0,0.0,0.0,0.0,0.0,0.0,0.0,0.0,0.0,0.0,0.0,0.0,0.0,0.0,0.0,0.0,0.0,0.0,0.0,0.0,0.0,0.0,0.0,0.0,0.0,0.0,0.0,0.0,0.0,0.0,0.0,0.0,0.0,0.0,0.0,0.0,0.0,0.0,0.0,0.0,0.0,0.0,0.0,0.0,0.0,0.0,0.0,0.0,0.0,0.0,0.0,0.0,0.0,0.0,0.0,0.0,0.0,0.0,0.0,1.0548,1.0212,0.0,0.0,0.0,0.0,0.0,0.0,0.0,0.0,0.0,0.0,0.0,0.0,0.0,0.0,0.0,0.0,0.0,0.0,0.0,0.0,0.0,0.0,0.0,0.0,0.0,0.0,0.0,0.0,0.0,0.0,0.0,0.0,0.0,0.0,0.0,0.0,0.0,0.0,0.4817,0.5606,0.6516,0.6114,0.5921,0.59,0.0,0.0,0.0,0.0,0.0,0.0,0.0,0.0,0.0,0.0,0.0,0.0,0.0,0.0,0.0,0.0,0.0,0.0,0.0,0.0,0.0,0.0,0.0,0.0,0.0,0.0,0.0,0.0,0.0,0.0,0.0,0.0,0.0,0.0,0.0,0.0,0.0,0.0,0.0,0.0,0.0,0.0,0.0,0.0,0.0,0.0,0.0,0.0,0.0,0.0,0.0,0.0,0.0,0.0,0.0,0.0,0.0,0.0,0.0,0.0,0.0,0.0,0.0,0.0,0.0,0.0,0.0,0.0,0.0,0.0,1.2939,1.2247,0.0,0.0,0.0,0.0,0.0,0.0,0.0,0.0,0.0,0.0,0.0,0.0,0.0,0.0,0.0,0.0,0.0,0.0,0.0,0.0,0.0,0.0,0.0,-0.0093,-0.0728,-0.0693,-0.0275,0.0556,0.0,0.0,0.0,0.0,0.0,0.0,0.0,0.3464,0.383,0.4493,0.5343,0.6232,0.7181,0.7573,0.7799,0.7871,0.7276,0.0,0.0,0.0,0.0,0.0,0.0,0.0,0.0,0.0,0.0,0.0,0.0,0.0,0.0,0.0,0.0,0.0,0.0,0.0,0.0,0.0,0.0,0.0,0.0,0.0,0.0,0.0,0.0,0.0,0.0,0.0,0.0,0.0,0.0,0.0,0.0,0.0,0.0,0.0,0.0,0.0,0.0,0.0,0.0,0.0,0.0,0.0,0.0,0.0,0.0,0.0,0.0,0.0,0.0,0.0,0.0,0.0,0.0,0.0,0.0,0.0,0.0,0.0,1.4512,1.4698,1.5035,1.5649,1.5953,1.5969,1.5646,1.4802,1.3596,1.2864,0.0,0.0,0.0,0.0,0.0,0.0,0.0,0.0,0.0,0.0,0.0,0.0,0.0,0.0,0.0,0.0,0.0,0.0,0.0,0.0,0.0,-0.0702,-0.0596,0.0082,0.0,0.0725,0.2632,0.0,0.0,0.0,0.0,0.0,0.3802,0.3607,0.3827,0.4495,0.5486,0.6075,0.6303,0.8229,0.938,0.979,0.8732,0.8451,0.8741,0.0,0.0,0.0,0.0,0.0,0.0,0.0,0.0,0.0,0.0,0.0,0.0,0.0,0.0,0.0,0.0,0.0,0.0,0.0,0.0,0.0,0.0,0.0,0.0,0.0,0.0,0.0,0.0,0.0,0.0,0.0,0.0,0.0,0.0,0.0,0.0,0.0,0.0,0.0,0.0,0.0,0.954,0.8911,0.0,0.0,0.0,0.0,0.0,0.0,0.0,0.0,0.0,0.0,0.0,0.0,0.0,1.4207,1.4737,1.5934,1.6448,1.6195,1.671,1.6722,1.6266,1.6898,1.7162,1.7187,1.7726,0.0,1.532,1.3864,0.0,0.0,0.0,0.0,0.0,0.0,0.0,0.0,0.0,0.0,0.0,0.0,0.0,0.0,0.0,0.0,0.0,0.0,0.0,0.0,0.0,-0.1411,-0.1084,-0.0588,0.0278,0.1361,0.2697,0.2628,0.0,0.0,0.0,0.3364,0.3387,0.2986,0.2724,0.264,0.3539,0.4574,0.5748,0.7507,0.8993,1.0235,1.0974,1.0695,0.9653,0.9504,0.0,0.0,0.0,0.0,0.0,0.0,0.0,0.0,0.0,0.0,0.0,0.0,0.0,0.0,0.0,0.0,0.0,0.0,0.0,0.0,0.0,0.0,0.0,0.0,0.0,0.0,0.0,0.0,0.0,0.0,0.0,0.0,0.0,0.0,0.0,0.0,0.0,0.0,0.0,1.0703,1.1414,1.1102,1.16,1.1357,0.0,0.0,0.0,0.0,0.0,0.0,0.0,0.0,0.0,1.3901,1.5916,1.695,1.6978,1.8097,1.8557,1.8367,1.8618,1.8606,1.838,1.897,1.9271,1.9283,1.9586,1.927,1.8352,1.6157,1.5296,1.5308,0.0,0.0,0.0,0.0,1.3849,1.4386,0.0,0.0,0.0,0.0,0.0,0.0,0.0,0.0,0.0,0.0,0.0,0.0,-0.1382,-0.0901,-0.0359,-0.0005,0.1119,0.2204,0.3157,0.3015,0.3047,0.337,0.3734,0.3813,0.3572,0.2648,0.1647,0.0566,0.1382,0.2602,0.4223,0.6108,0.8162,1.0286,1.2576,1.2603,1.093,1.1112,1.0502,0.939,0.0,0.0,0.0,0.0,0.0,0.0,0.0,0.0,0.0,0.0,0.0,0.0,0.0,0.0,0.0,0.0,0.0,0.0,0.0,0.0,0.0,0.0,0.0,0.0,0.0,0.0,0.0,0.0,0.0,0.0,0.0,0.0,0.0,0.0,0.0,0.0,0.0,1.2082,1.2813,1.2561,1.2918,1.2768,0.0,0.0,0.0,0.0,0.0,0.0,1.3713,1.524,1.6193,1.6416,1.8497,1.9409,1.9045,1.9974,2.0376,2.0225,2.0225,2.0225,2.025,2.0677,2.0878,2.0878,2.0878,2.0878,2.0743,1.8298,1.71,1.6721,1.5676,1.5374,1.5437,1.5132,1.5638,1.6363,0.0,0.0,0.0,0.0,0.0,0.0,0.0,0.0,0.0,0.0,0.0,0.1983,0.0778,0.1749,0.2716,0.331,0.2914,0.3199,0.4507,0.3884,0.3742,0.44,0.4508,0.4726,0.5084,0.3134,0.1029,-0.1175,-0.0311,0.0364,0.0921,0.4183,0.7293,1.0305,1.2789,1.3602,1.3141,1.3295,1.2654,1.1516,1.12,0.0,0.0,0.0,0.0,0.0,0.0,0.0,0.0,0.0,0.0,0.0,0.0,0.0,0.0,0.0,0.0,0.0,0.0,0.0,0.0,0.0,0.0,0.0,0.0,0.0,0.0,0.0,0.0,0.0,0.0,0.0,0.0,0.0,0.0,0.0,0.0,0.0,0.0,1.1981,1.4044,0.0,0.0,0.0,0.0,1.4448,1.4796,1.555,1.6908,1.8099,1.8996,1.9585,2.0752,2.1355,2.1317,2.1895,2.192,2.1405,2.1405,2.1405,2.1405,2.143,2.1443,2.1443,2.1443,2.1443,2.1317,1.961,1.9183,1.9484,1.8548,1.8494,1.8824,1.7746,1.772,1.8177,0.0,0.0,0.0,0.0,0.0,0.0,0.0,0.0,0.0715,0.0013,0.1406,0.2226,0.1575,0.3265,0.4396,0.4319,0.4257,0.4438,0.493,0.4284,0.39,0.392,0.427,0.3705,0.2075,-0.0331,-0.2345,-0.3927,-0.3055,-0.1935,-0.0564,0.2065,0.5036,0.8302,1.1728,1.3756,1.4622,1.5187,1.4484,1.292,1.2202,1.1406,0.0,0.0,0.0,0.0,0.0,0.0,0.0,0.0,0.0,0.0,0.0,0.0,0.0,0.0,0.0,0.0,0.0,0.0,0.0,0.0,0.0,0.0,0.0,0.0,0.0,0.0,0.0,0.0,0.0,0.0,0.0,0.0,0.0,0.0,0.0,0.0,0.0,1.5081,1.6109,0.0,1.5586,1.5496,1.5732,1.628,1.7132,1.8174,1.9371,2.0486,2.15,2.2472,2.3238,2.3627,2.3627,2.3477,2.3301,2.31,2.2723,2.2736,2.31,2.31,2.3301,2.3615,2.3263,2.31,2.3025,2.2071,2.1154,2.0341,1.9573,1.9397,1.956,1.9586,1.9712,1.9863,0.0,0.0,0.0,0.0,0.0,0.0,0.0,0.0,0.0229,0.0897,0.2478,0.3647,0.3894,0.5681,0.6481,0.5637,0.5541,0.5449,0.5271,0.4599,0.4257,0.4366,0.3692,0.2028,-0.075,-0.3148,-0.4906,-0.5985,-0.5267,-0.4009,-0.2206,0.0032,0.2997,0.6602,1.0761,1.3726,1.5789,1.7632,1.6953,1.4549,1.3805,1.2906,1.1935,0.0,0.0,0.0,0.0,0.0,0.0,0.0,0.0,0.0,0.0,0.0,0.0,0.0,0.0,0.0,0.0,0.0,0.0,0.0,0.0,0.0,0.0,0.0,0.0,0.0,0.0,0.0,0.0,0.0,0.0,0.0,0.0,0.0,0.0,1.5414,1.6761,1.7606,1.8367,1.8694,1.8396,1.8257,1.8382,1.8883,1.9834,2.0815,2.1744,2.2661,2.3502,2.4255,2.4808,2.4996,2.482,2.4632,2.4456,2.4268,2.3891,2.3904,2.428,2.428,2.4469,2.4808,2.4431,2.428,2.423,2.3653,2.2786,2.1719,2.0941,2.0652,2.0677,2.0878,2.0941,2.0916,0.0,0.0,0.0,0.0,0.0,0.0,0.0,-0.0264,0.0206,0.3098,0.4842,0.6365,0.7805,0.9046,0.9087,0.7403,0.6657,0.6096,0.5636,0.4862,0.4819,0.5723,0.2747,-0.0272,-0.3117,-0.5042,-0.6367,-0.7148,-0.6752,-0.5712,-0.4088,-0.184,0.1352,0.54,0.9844,1.352,1.6623,2.0474,1.9973,1.6553,1.6163,1.4776,1.2902,0.0,0.0,0.0,0.0,0.0,0.0,0.0,0.0,0.0,0.0,0.0,0.0,0.0,0.0,0.0,0.0,0.0,0.0,0.0,0.0,0.0,0.0,0.0,0.0,0.0,0.0,0.0,0.0,0.0,0.0,0.0,0.0,0.0,1.5335,1.6789,1.8134,1.9302,2.0683,2.1355,2.0857,2.1242,2.1782,2.2297,2.2862,2.3439,2.4017,2.4556,2.4858,2.487,2.536,2.5385,2.4883,2.536,2.536,2.487,2.4845,2.4845,2.487,2.4858,2.4858,2.487,2.4858,2.4845,2.4808,2.4255,2.4017,2.3916,2.2774,2.2334,2.2272,2.1732,2.1543,2.1455,0.0,0.0,0.0,0.0,0.0,0.0,0.0,-0.0845,-0.0515,0.2528,0.4764,0.6921,0.9114,1.034,1.0449,0.9077,0.7135,0.5836,0.548,0.5064,0.4222,0.2835,-0.0332,-0.3716,-0.7269,-0.7878,-0.8261,-0.8478,-0.7685,-0.657,-0.5086,-0.3725,-0.0978,0.2987,0.6669,1.1057,1.5887,1.8843,2.0411,2.0731,1.8938,1.7329,1.5902,0.0,0.0,0.0,0.0,0.0,0.0,0.0,0.0,0.0,0.0,0.0,0.0,0.0,0.0,0.0,0.0,0.0,0.0,0.0,0.0,0.0,0.0,0.0,0.0,0.0,0.0,0.0,0.0,0.0,0.0,0.0,1.4149,1.5629,1.6854,1.894,2.0765,2.1927,2.2774,2.3088,2.251,2.2975,2.3201,2.2924,2.3816,2.4594,2.5121,2.5297,2.5573,2.6,2.6151,2.6151,2.6013,2.5737,2.5737,2.6,2.5197,2.5234,2.6,2.5573,2.5611,2.5988,2.5561,2.5385,2.5335,2.4808,2.4594,2.4481,2.3351,2.2852,2.2887,2.2736,2.2686,2.2598,0.0,0.0,0.0,0.0,0.0,0.0,0.0,-0.1075,-0.0308,0.3638,0.562,0.8004,1.157,1.1917,1.138,1.013,0.7945,0.6321,0.5605,0.5215,0.3859,0.1298,-0.1597,-0.4815,-0.8449,-0.9003,-0.9375,-0.959,-0.8264,-0.7118,-0.6192,-0.5079,-0.2676,0.0898,0.4985,0.9563,1.4426,1.8438,2.0961,2.2199,2.1421,2.0181,1.8697,1.7862,1.7405,1.7119,1.6172,1.6057,1.6039,1.3854,0.0,0.0,0.0,0.0,0.0,0.0,0.0,0.0,0.0,0.0,0.0,0.0,0.0,0.0,0.0,0.0,0.0,0.0,0.0,0.0,0.0,0.0,0.0,0.0,1.5726,1.7593,1.9597,2.0978,2.2364,2.3979,2.4469,2.4632,2.4531,2.4833,2.4883,2.4556,2.5134,2.5636,2.5937,2.5963,2.6113,2.6521,2.6533,2.6634,2.6804,2.6239,2.6364,2.713,2.6038,2.5963,2.6791,2.6452,2.649,2.6804,2.6691,2.6515,2.6264,2.5724,2.536,2.5059,0.0,0.0,0.0,0.0,2.3078,2.299,0.0,0.0,0.0,0.0,0.0,0.0,0.0,-0.1115,0.0255,0.5531,0.6771,0.9065,1.4075,1.329,1.1923,1.0677,0.8575,0.6865,0.5779,0.5225,0.3668,0.0789,-0.1733,-0.4616,-0.7904,-0.9138,-0.9953,-1.0374,-0.8667,-0.7674,-0.7408,-0.6228,-0.4058,-0.0955,0.4057,0.8628,1.2883,1.8687,2.1498,2.2176,2.3501,2.2891,2.1067,2.0376,1.9438,1.8465,1.8259,1.7454,1.6417,1.5987,0.0,0.0,0.0,0.0,0.0,0.0,0.0,0.0,0.0,0.0,0.0,0.0,0.0,0.0,0.0,0.0,0.0,0.0,0.0,0.0,0.0,0.0,0.0,0.0,1.7468,1.9793,2.2907,2.2987,2.3439,2.5448,2.5636,2.5774,2.6226,2.6327,2.6339,2.6276,2.6458,2.6533,2.6533,2.6533,0.0,0.0,0.0,2.6703,2.718,2.6766,2.708,2.8097,2.7118,2.6929,2.7469,2.7406,2.7369,2.7406,2.7896,2.7821,2.7344,2.6854,2.6339,2.5812,2.5096,2.4519,2.4029,2.3514,2.3265,2.3178,0.0,0.0,0.0,0.0,0.0,0.0,0.0,-0.1445,-0.034,0.5582,0.6293,0.8099,1.298,1.2853,1.1856,1.0566,0.746,0.5455,0.5165,0.48,0.3555,0.1192,-0.2193,-0.5433,-0.8486,-0.9965,-1.0572,-1.025,-0.9503,-0.9076,-0.8954,-0.8181,-0.6032,-0.2628,0.1918,0.741,1.3516,1.8189,2.1506,2.373,2.4591,2.3812,2.2117,2.2084,2.1798,2.1381,2.069,2.1111,2.1604,1.9257,1.9298,1.9824,1.6922,1.5104,0.0,0.0,0.0,0.0,0.0,0.0,0.0,0.0,0.0,0.0,0.0,0.0,0.0,0.0,0.0,0.0,0.0,0.0,0.0,1.8211,1.9262,2.1026,2.4601,2.5034,2.5285,2.6189,2.5887,2.5473,2.5172,2.5523,2.5586,2.5172,2.5963,2.6533,2.6533,2.6533,2.6533,2.6533,2.6533,2.6584,2.6615,2.6954,2.7457,2.8109,2.7896,0.0,2.8599,2.8147,2.7946,2.7946,2.8059,2.8047,2.7946,2.7833,2.772,2.7431,2.5561,2.4757,2.4644,2.4531,2.4494,2.4418,0.0,0.0,0.0,0.0,0.0,0.0,0.0,-0.1027,-0.0356,0.4106,0.4965,0.6629,1.0522,1.0841,1.0068,0.8394,0.6535,0.6028,0.7362,0.6375,0.451,0.172,-0.1583,-0.4983,-0.8474,-0.9929,-1.0751,-1.0967,-1.0237,-1.0278,-1.0997,-1.0533,-0.8388,-0.4805,-0.0254,0.5682,1.2591,1.7571,2.1222,2.3745,2.465,2.444,2.3627,2.3901,2.396,2.383,2.3266,2.3336,2.345,2.1811,2.1551,2.1475,1.9051,1.7681,1.6482,0.0,0.0,0.0,0.0,0.0,0.0,0.0,0.0,0.0,0.0,0.0,0.0,0.0,0.0,1.4623,1.5012,0.0,1.6852,1.9587,2.0653,2.2166,2.5186,2.585,2.6138,2.6496,2.6201,2.5925,2.5674,2.5875,2.5925,2.5661,2.6151,2.6533,2.6533,2.6533,2.6533,2.6533,2.6533,2.6659,2.6866,2.7143,2.7695,2.8511,2.8235,2.8398,2.8925,2.8637,2.8511,2.8536,2.8825,2.8787,2.8499,2.8222,2.8109,2.7996,2.6892,2.6126,2.5573,2.5021,2.482,2.4745,0.0,0.0,0.0,0.0,0.0,0.0,0.0,-0.0459,-0.0217,0.2592,0.3473,0.5039,0.8213,0.854,0.7738,0.5824,0.6166,0.7547,1.0001,0.8432,0.5869,0.2482,-0.0676,-0.4297,-0.8501,-0.9711,-1.0726,-1.1633,-1.1034,-1.1541,-1.3042,-1.3015,-1.0896,-0.6921,-0.1972,0.4304,1.1571,1.7318,2.1121,2.3428,2.44,2.4801,2.4842,2.5184,2.5408,2.5429,2.4995,2.4341,2.3611,2.3243,2.2585,2.171,2.0583,1.9931,1.8936,1.5566,1.4908,0.0,0.0,0.0,0.0,0.0,0.0,0.0,0.0,1.5351,1.5896,1.6404,1.6438,1.6543,1.7017,1.7111,1.7998,2.0603,2.1775,2.3132,2.5473,2.6063,2.6302,2.6302,2.6302,2.6302,2.6302,2.6302,2.6302,2.6302,2.6502,2.6684,2.6684,2.6684,2.6684,2.6684,2.6684,2.6829,2.7281,2.7494,2.8047,2.8925,2.8586,2.8662,2.9089,2.9089,2.9089,2.9114,2.9591,2.9528,2.9051,2.8499,2.8335,2.8411,2.8197,2.7632,2.6804,2.5711,2.5297,2.5209,0.0,0.0,0.0,0.0,0.0,0.0,0.0,0.0,-0.0294,0.2463,0.2438,0.3683,0.7647,0.7094,0.579,0.4196,0.7087,0.9609,1.1053,0.9655,0.7197,0.366,-0.0112,-0.4369,-0.9177,-0.9953,-1.0671,-1.1429,-1.2046,-1.3084,-1.4576,-1.5457,-1.326,-0.841,-0.271,0.4201,1.1936,1.802,2.1873,2.3969,2.4567,2.4796,2.4823,2.4977,2.5224,2.5391,2.4583,2.367,2.2791,2.2577,2.2074,2.1588,2.1729,2.1045,1.9791,1.7702,1.5905,1.4097,1.1776,1.1936,1.2819,1.3249,1.5184,1.7515,0.0,1.9963,2.034,2.1996,2.1237,2.0216,1.9974,1.9672,2.0117,2.2316,2.2759,2.3676,2.6058,2.5975,2.5686,2.5686,2.5686,2.5686,2.5686,2.5686,2.5686,2.5686,2.6628,2.7193,2.7193,2.7193,2.7193,2.7193,2.7193,2.7218,2.7281,2.8247,2.88,2.8938,2.939,2.9641,2.9691,2.9691,2.9691,2.9691,2.9767,2.9754,2.9654,2.9076,2.9139,2.9503,2.8499,2.8335,2.8511,2.7419,2.7005,2.6854,0.0,0.0,0.0,0.0,0.0,0.0,0.0,0.0,0.0,0.0837,0.043,0.0928,0.3266,0.2933,0.2404,0.2018,0.5175,0.8285,1.084,1.0444,0.8709,0.5589,0.1281,-0.3366,-0.8308,-1.0755,-1.2406,-1.3255,-1.4592,-1.5919,-1.733,-1.8387,-1.4858,-0.75,-0.3033,0.453,1.4313,1.9382,2.2475,2.4063,2.4666,2.4941,2.4935,2.4521,2.3908,2.3261,2.3143,2.2624,0.0,2.1056,2.0624,2.048,2.061,1.9934,1.8741,1.7017,1.6064,1.5515,1.511,1.4837,1.5345,1.8096,1.9524,2.0651,2.2155,2.2605,2.2736,2.2742,2.2072,2.143,2.1312,2.07,2.0958,2.2928,2.3223,2.4022,2.6195,2.5963,2.5485,2.5184,2.5146,2.5259,2.5573,2.5598,2.5737,2.6076,2.654,2.6942,2.7268,2.7281,2.7431,2.7758,2.7758,2.7758,2.7758,2.8536,2.8925,2.8938,2.9515,2.9792,2.9792,2.9792,2.9792,2.9792,2.9792,2.9792,2.9779,2.9528,2.9578,2.9741,2.9277,2.9227,2.9252,2.7821,2.7281,2.7118,0.0,0.0,0.0,0.0,0.0,0.0,0.0,0.0,0.0,0.0,-0.0644,-0.0593,0.0395,0.0448,0.0529,0.0805,0.382,0.7108,1.039,1.1796,1.0812,0.7009,0.213,-0.3247,-0.9141,-1.2125,-1.4175,-1.525,-1.6778,-1.8138,-1.9371,-2.0527,-1.5759,-0.6032,-0.148,0.6508,1.6804,2.0756,2.3155,2.4353,2.4829,2.4924,2.4678,2.3832,2.2543,2.1235,2.1542,2.0935,1.9862,1.9109,1.8761,1.8687,1.8836,1.8478,1.768,1.602,1.5567,1.5847,1.7136,1.7362,1.8131,2.1983,2.3346,2.3856,2.4406,2.4984,2.4918,2.3381,2.2685,2.2286,2.2115,2.1419,2.1419,2.3397,2.3561,2.4096,2.5984,2.5658,2.495,2.4406,2.4204,2.4343,2.4858,2.5335,2.5774,2.6189,2.6515,2.6866,2.7256,2.7431,2.7695,2.8097,2.8247,2.8335,2.8335,2.8888,2.9164,2.9164,2.9591,2.9792,2.9792,2.9792,2.9792,2.9792,2.9792,2.9792,2.9792,2.9792,2.9792,2.9792,2.9792,2.9792,2.9628,2.8247,2.7733,2.7595,0.0,0.0,0.0,0.0,0.0,0.0,0.0,0.0,0.0,0.0,0.0,0.0,0.0,0.1269,0.1391,0.1212,0.4131,0.7163,0.9935,1.4137,1.3733,0.7456,0.1942,-0.4829,-1.3043,-1.4149,-1.5402,-1.6919,-1.8025,-1.9039,-1.9994,-2.1405,-1.587,-0.4438,0.2954,1.0884,1.8913,2.1975,2.3953,2.5062,2.5091,2.4639,2.3842,2.2887,2.1464,1.996,2.0033,1.8393,1.6247,1.679,1.6551,1.6111,1.6624,1.7137,1.7176,1.5446,1.4243,1.3977,1.63,1.8281,2.0317,2.299,2.5571,2.7329,2.6998,2.7404,2.7337,2.5363,2.4135,2.3262,2.2744,2.1876,2.1876,2.3816,2.3668,2.3838,2.5403,2.4754,2.3923,2.3248,2.2724,2.2648,2.316,2.4657,2.5598,2.5624,2.664,2.7268,2.7281,2.7795,2.8084,2.8109,2.8624,2.89,2.89,2.9478,2.9767,2.9767,2.9779,2.9792,2.9792,2.9792,2.9792,2.9792,2.9792,2.9792,2.9792,2.9792,2.9792,2.9792,2.9792,2.9792,2.9716,2.9101,2.8875,2.88,0.0,0.0,0.0,0.0,0.0,0.0,0.0,0.0,0.0,0.0,0.0,0.0,0.0,0.0,0.0,0.0,0.2914,0.4967,0.7229,1.0395,1.079,0.7603,0.3223,-0.1927,-0.7896,-1.1756,-1.445,-1.5945,-1.7404,-1.8209,-1.8396,-2.0925,-1.4942,-0.1844,0.4108,1.1815,2.0452,2.2559,2.4092,2.5128,2.4683,2.398,2.2984,2.139,1.9439,1.7543,0.0,1.6622,1.5765,1.5025,1.4595,1.4433,1.4737,1.4541,1.4165,1.4124,1.4486,1.5566,1.859,2.0835,2.3068,2.6201,2.797,2.8828,2.841,2.8484,2.7809,2.4613,2.2902,2.1442,1.9885,1.8471,1.8375,2.1053,2.1406,2.219,2.4688,2.4785,2.4063,2.2723,2.2748,2.2515,2.1625,2.2987,2.4418,2.5511,2.595,2.6653,2.777,2.8009,2.8448,2.9202,2.9402,2.9503,2.9503,2.9691,2.9792,2.9792,2.9792,2.9792,2.9792,2.9792,2.9792,2.9792,2.9792,2.9792,2.9792,2.9792,2.9792,2.9792,2.9792,2.9792,2.9767,2.9578,2.9503,2.9365,0.0,0.0,0.0,0.0,0.0,0.0,0.0,0.0,0.0,0.0,0.0,0.0,0.0,0.0,0.0,0.0,0.0,0.33,0.5085,0.7435,0.8637,0.8407,0.4132,0.002,-0.3718,-0.8144,-1.0893,-1.1892,-1.4393,-1.4689,-1.2989,-1.5487,-0.9947,0.2335,0.7984,1.4204,2.0511,2.1854,2.283,2.3461,2.3033,2.2325,2.1335,1.9724,1.7971,0.0,1.5531,1.5163,1.4873,1.3944,1.3309,1.2957,1.3482,1.3268,1.3068,1.4216,1.5551,1.7391,2.0842,2.3383,2.5751,2.8562,2.9774,3.0009,2.8918,2.8733,2.7488,2.3222,2.1536,2.0171,1.7821,1.6575,1.6736,1.9391,1.9773,2.0854,2.3898,2.4096,2.3756,2.3176,2.2943,2.2528,2.1745,2.2382,2.3452,2.4921,2.5573,2.6465,2.7745,2.7996,2.8524,2.9453,2.9691,2.9792,2.9792,2.9792,2.9792,2.9792,2.9792,2.9792,2.9792,2.9792,2.9792,2.9792,2.9792,2.9792,2.9792,2.9792,2.9792,2.9792,2.9792,2.9792,2.9792,2.9792,2.9792,2.9691,0.0,0.0,0.0,0.0,0.0,0.0,0.0,0.0,0.0,0.0,0.0,0.0,0.0,0.0,0.0,0.0,0.0,0.0,0.3665,0.5576,0.7545,0.9501,0.4628,0.0993,-0.0848,-0.3692,-0.5242,-0.5382,-0.9183,-0.8813,-0.4564,-0.581,-0.1514,0.7521,1.3953,1.7651,1.9081,1.9996,2.0336,2.0286,2.0399,1.9879,1.8945,1.7988,1.7039,1.6032,1.4756,1.3959,1.3526,1.3461,1.2656,1.1848,1.2917,1.3351,1.3836,1.573,1.7369,1.9391,2.2921,2.5828,2.8291,3.0088,3.1016,3.0866,2.8675,2.813,2.6573,2.1341,2.0205,1.941,1.6742,1.6105,1.6746,1.8911,1.9073,2.0019,2.3099,2.3025,2.3151,2.4433,2.3434,2.2839,2.3382,2.2891,2.2934,2.3954,2.5485,2.6653,2.7293,2.7821,2.8373,2.895,2.9503,2.9792,2.9792,2.9792,2.9792,2.9792,2.9792,2.9792,2.9792,2.9792,2.9792,2.9792,2.9792,2.9792,2.9792,2.9792,2.9792,2.9792,2.9792,2.9792,2.9792,2.9792,2.9792,2.9792,0.0,0.0,0.0,0.0,0.0,0.0,0.0,0.0,0.0,0.0,0.0,0.0,0.0,0.0,0.0,0.0,0.0,0.0,0.3087,0.5035,0.6333,0.6656,0.4968,0.3385,0.2056,-0.0647,-0.2204,-0.2553,-0.4001,-0.3889,-0.2268,-0.0393,0.2619,0.6711,1.2082,1.5319,1.6813,1.8047,1.8585,1.8668,1.9238,1.8521,1.7078,1.673,1.5906,1.4886,1.4349,1.3521,1.2723,1.2799,1.2644,1.2584,1.3628,1.418,1.4984,1.7865,2.0062,2.2265,2.5685,2.818,2.9998,3.1016,3.1016,3.0172,2.8015,2.6812,2.4892,2.0385,1.8401,1.6799,1.4508,1.4518,1.5636,1.8157,1.9749,2.1819,2.516,2.5846,2.5986,2.5994,2.6061,2.5537,2.4266,2.4761,2.5003,2.4645,2.4996,2.6013,2.7795,2.8034,2.8561,2.9541,2.9716,2.9792,2.9792,2.9792,2.9792,2.9792,2.9792,2.9792,2.9792,2.9792,2.9792,2.9792,2.9792,2.9792,2.9792,2.9792,2.9792,2.9792,2.9792,2.9792,2.9792,2.9792,2.9792,2.9792,0.0,0.0,0.0,0.0,0.0,0.0,0.0,0.0,0.0,0.0,0.0,0.0,0.0,0.0,0.0,0.0,0.0,0.0,0.0,0.4477,0.5311,0.5667,0.5764,0.5737,0.5606,0.4412,0.3736,0.3592,0.3314,0.3516,0.4191,0.5524,0.6999,0.8639,1.1415,1.3115,1.3992,1.5144,1.5632,0.0,0.0,1.6157,1.519,1.5479,1.5058,1.4268,1.3949,1.3189,1.2411,1.2671,1.3221,1.3987,1.503,1.5768,1.6943,2.0381,2.2484,2.4373,2.7594,2.9684,3.0971,3.1061,3.0582,2.9341,2.6343,2.5007,2.297,1.8198,1.6492,1.5277,1.3406,1.3317,1.4393,1.7244,1.8976,2.1277,2.5173,2.612,2.6903,2.811,2.7695,2.7,2.6131,2.6062,2.5814,2.5199,2.5701,2.686,2.862,2.871,2.9237,3.038,2.9998,2.9792,2.9792,2.9792,2.9792,2.9792,2.9792,2.9792,2.9792,2.9792,2.9792,2.9792,2.9792,2.9792,2.9792,2.9792,2.9792,2.9792,2.9792,2.9792,2.9792,2.9792,2.9792,2.9792,0.0,0.0,0.0,0.0,0.0,0.0,0.0,0.0,0.0,0.0,0.0,0.0,0.0,0.0,0.0,0.0,0.0,0.0,0.0,0.0,0.48,0.5913,0.6655,0.7621,0.8842,0.9381,0.9801,1.0117,1.0226,1.0602,1.1225,1.0525,1.0602,1.1317,1.1233,1.1215,1.1251,1.2113,1.2425,1.2408,1.332,1.358,1.3463,0.0,1.4315,1.3943,1.3506,1.2793,1.2163,1.2834,1.405,1.5505,1.6661,1.7681,1.9172,2.2839,2.4539,2.5849,2.8892,3.0597,3.1317,3.0672,2.9909,2.829,2.439,2.2922,2.0953,1.5727,1.4761,1.4428,1.3112,1.2753,1.3689,1.6883,1.813,2.0227,2.478,2.5812,2.7238,3.041,2.9103,2.8092,2.8407,2.725,2.628,2.5841,2.7168,2.8451,2.9469,2.9451,2.9921,3.1005,3.0203,2.9792,2.9792,2.9792,2.9792,2.9792,2.9792,2.9792,2.9792,2.9792,2.9792,2.9792,2.9792,2.9792,2.9792,2.9792,2.9792,2.9792,2.9792,2.9792,2.9792,2.9792,2.9792,2.9792,0.0,0.0,0.0,0.0,0.0,0.0,0.0,0.0,0.0,0.0,0.38,0.0,0.0,0.0,0.0,0.0,0.0,0.0,0.0,0.0,0.0,0.6753,0.6837,0.7595,0.9178,0.9003,0.931,1.0178,1.0218,1.0272,1.0409,1.0267,1.0248,1.0348,1.0268,1.0211,1.0209,1.1028,1.0966,1.0448,1.1952,1.2459,1.2345,1.2984,0.0,0.0,1.2723,1.1809,1.1158,1.2785,1.4413,1.6022,1.7315,1.8869,2.09,2.4231,2.5688,2.6848,2.9592,3.0926,3.1317,3.0672,2.9205,2.7098,2.3695,2.1415,1.892,1.515,1.4072,1.3748,1.3454,1.4023,1.5774,1.9598,2.0703,2.2876,2.8055,2.8857,2.9718,3.187,3.1812,3.1078,2.9839,2.898,2.805,2.7082,2.8652,2.959,2.9482,2.9451,2.9587,3.0037,2.9856,2.9792,2.9792,2.9792,2.9792,2.9792,2.9792,2.9792,2.9792,2.9792,2.9792,2.9792,2.9792,2.9792,2.9792,2.9792,2.9792,2.9792,2.9792,2.9792,2.9792,2.9792,2.9792,2.9792,0.0,0.0,0.0,0.0,0.0,0.0,0.0,0.0,0.0,0.4211,0.4134,0.4065,0.0,0.0,0.0,0.0,0.0,0.0,0.0,0.0,0.0,0.0,0.0,0.0,0.9171,0.922,0.9508,1.0098,0.0,1.0166,1.0104,1.0099,1.0031,0.9941,0.991,0.9832,0.9761,1.0168,1.0053,0.9743,1.0938,1.1479,1.1651,0.0,0.0,0.0,1.2125,1.1626,1.1372,1.2386,1.3763,1.5417,1.7374,1.9453,2.1524,2.3229,2.527,2.7254,2.841,3.0071,3.121,2.9849,2.8278,2.6001,2.19,1.967,1.7504,1.4187,1.3338,1.3241,1.3445,1.3825,1.5029,1.7986,1.9488,2.1869,2.6438,2.8226,3.0058,3.2706,3.2721,3.1997,3.0671,2.9135,2.7948,2.7372,2.8006,2.891,2.9945,3.019,3.0199,2.9767,2.9792,2.9792,2.9792,2.9792,2.9792,2.9792,2.9792,2.9792,2.9792,2.9792,2.9792,2.9792,2.9792,2.9792,2.9792,2.9792,2.9792,2.9792,2.9792,2.9792,2.9792,2.9792,2.9792,2.9792,0.0,0.0,0.0,0.0,0.0,0.0,0.0,0.4398,0.4377,0.4466,0.4598,0.4727,0.4796,0.4657,0.4745,0.0,0.0,0.0,0.0,0.0,0.0,0.0,0.0,0.0,0.9162,0.0,0.0,0.9962,1.0075,0.0,0.0,0.0,0.0,0.0,0.9713,0.9647,0.9552,0.953,0.9463,0.0,0.0,1.0504,1.094,0.0,0.0,0.0,0.0,1.1333,1.1231,1.1703,1.2634,1.4041,1.6447,1.8855,2.0993,2.1853,2.4211,2.6759,2.7298,2.9074,3.0416,2.8778,2.716,2.4793,2.033,1.8229,1.6364,1.3415,1.2803,1.2973,1.3434,1.321,1.3748,1.6061,1.7397,1.9725,2.4177,2.6754,2.9486,3.2886,3.2883,3.2145,3.0796,2.8692,2.734,2.7167,2.751,2.8456,3.0237,3.0877,3.0758,2.9869,2.9792,2.9792,2.9792,2.9792,2.9792,2.9792,2.9792,2.9792,2.9792,2.9792,2.9792,2.9792,2.9792,2.9792,2.9792,2.9792,2.9792,2.9792,2.9792,2.9792,2.9792,2.9792,2.9792,2.9792,0.0,0.0,0.0,0.0,0.0,0.0,0.0,0.4912,0.4883,0.501,0.5195,0.5435,0.5734,0.5545,0.5432,0.0,0.0,0.0,0.0,0.0,0.0,0.0,0.0,0.0,0.0,0.0,0.0,0.9825,0.9901,0.0,0.0,0.0,0.0,0.0,0.0,0.9385,0.9411,0.9294,0.0,0.0,0.0,0.0,0.0,0.0,0.0,0.0,0.0,1.016,0.9285,1.063,1.1237,1.1722,1.3619,1.6087,1.8798,2.1305,2.2873,2.4469,2.7579,2.8571,2.856,2.7839,2.5859,2.3204,2.0006,1.7573,1.5356,1.3235,1.2838,1.3032,1.3434,1.2827,1.3347,1.6582,1.6179,1.7639,2.3927,2.6075,2.8366,3.2139,3.2889,3.2146,2.9873,2.8105,2.6984,2.6707,2.8484,2.9719,3.0204,3.0863,3.0758,2.9869,2.9792,2.9792,2.9792,2.9792,2.9792,2.9792,2.9792,2.9792,2.9792,2.9792,2.9792,2.9792,2.9792,2.9792,2.9792,2.9792,2.9792,2.9792,2.9792,2.9792,2.9792,2.9792,2.9792,2.9792,0.0,0.0,0.0,0.0,0.0,0.0,0.0,0.4932,0.4971,0.5195,0.5387,0.5652,0.6039,0.6081,0.5989,0.0,0.0,0.0,0.0,0.0,0.0,0.0,0.0,0.0,0.0,0.0,0.9173,0.9566,0.954,0.0,0.0,0.0,0.0,0.0,0.0,0.925,0.9394,0.9331,0.0,0.0,0.0,0.0,0.0,0.0,0.0,0.0,0.0,0.0,0.9095,0.9751,0.9902,0.9956,1.1003,1.2711,1.4816,1.7263,2.0614,2.3702,2.442,2.6813,2.869,2.6867,2.5042,2.2746,1.9109,1.6917,1.5181,1.3405,1.2978,1.2851,1.2745,1.2422,1.2527,1.3492,1.3823,1.5722,2.082,2.2909,2.5667,3.0498,3.1228,3.0685,2.9145,2.7555,2.6474,2.617,2.8443,2.9833,2.996,3.0227,3.0216,2.9792,2.9792,2.9792,2.9792,2.9792,2.9792,2.9792,2.9792,2.9792,2.9792,2.9792,2.9792,2.9792,2.9106,2.8767,2.8767,2.8767,2.8767,2.8858,2.9534,2.9792,2.9792,2.9792,2.9792,2.9792,0.0,0.0,0.0,0.0,0.0,0.5224,0.5088,0.501,0.5069,0.5406,0.5603,0.5863,0.6218,0.6465,0.6411,0.589,0.0,0.0,0.0,0.0,0.0,0.0,0.0,0.0,0.0,0.0,0.9167,0.926,0.9188,0.9133,0.0,0.0,0.8974,0.9015,0.0,0.0,0.0,0.0,0.0,0.0,0.0,0.0,0.0,0.0,0.0,0.0,0.0,0.0,0.0,0.0,0.0,0.9016,0.9702,1.0708,1.2113,1.4384,1.8122,2.1576,2.1736,2.4428,2.6802,2.5318,2.3671,2.1601,1.8351,1.6403,1.4863,1.3471,1.3012,1.272,1.2282,1.2338,1.2201,1.149,1.2408,1.442,1.7784,2.0134,2.3131,2.7371,2.8226,2.8311,2.7713,2.7089,2.6441,2.5859,2.8319,2.9792,2.9792,2.9792,2.9792,2.9792,2.9792,2.9792,2.9792,2.9792,2.9792,2.9792,2.9792,2.9792,2.9792,2.9792,2.9624,2.9275,2.8767,2.8267,2.7695,2.8347,2.8426,2.8176,2.9365,2.9792,2.9792,2.9792,2.9792,2.9792,0.0,0.0,0.0,0.0,0.0,0.0,0.0,0.5272,0.5262,0.5737,0.59,0.6088,0.6383,0.6693,0.6703,0.6238,0.0,0.0,0.0,0.0,0.0,0.0,0.0,0.0,0.0,0.0,0.8773,0.8912,0.8835,0.8835,0.8901,0.8691,0.8684,0.8801,0.0,0.0,0.0,0.0,0.0,0.0,0.0,0.0,0.0,0.0,0.0,0.0,0.0,0.0,0.0,0.0,0.0,0.0,0.0,1.0734,1.1537,1.3758,1.5538,1.7453,2.0462,2.1391,2.1801,2.3031,2.1515,1.9373,1.7918,1.5937,1.4159,1.3276,1.2955,1.2685,1.2282,1.264,1.2674,1.1667,1.2586,1.3906,1.5346,1.8369,2.1004,2.2482,2.391,2.4906,2.519,2.6627,2.7011,2.5893,2.8319,2.9792,2.9792,2.9792,2.9792,2.9792,2.9792,2.9792,2.9792,2.9792,2.9792,2.9792,2.9792,2.9792,2.9792,2.9792,2.9197,2.8176,2.9275,2.8542,2.673,2.8882,2.9106,2.8176,2.9365,2.9792,2.9792,2.9792,2.9792,2.9792,0.0,0.0,0.0,0.0,0.0,0.0,0.0,0.5472,0.5434,0.5756,0.5711,0.5723,0.5903,0.5864,0.5807,0.5783,0.0,0.0,0.0,0.0,0.0,0.0,0.0,0.0,0.0,0.0,0.8715,0.8773,0.8841,0.8897,0.8957,0.8254,0.7983,0.8095,0.7532,0.7678,0.0,0.0,0.0,0.0,0.0,0.0,0.7862,0.0,0.0,0.0,0.0,0.0,0.0,0.0,0.0,0.0,0.0,0.0,0.0,1.1917,1.4311,1.6843,1.7807,1.9768,2.1315,2.0347,1.9485,1.8303,1.605,1.4916,1.4,1.2847,1.2753,1.2756,1.2401,1.247,1.2334,1.1501,1.1665,1.2491,1.4149,1.6789,1.9711,2.2802,2.5469,2.7065,2.7155,2.7598,2.7767,2.7357,2.8851,2.9792,2.9792,2.9792,2.9792,2.9792,2.9792,2.9792,2.9792,2.9792,2.9443,2.8597,2.8597,2.8597,2.8597,2.7879,2.8211,2.9118,2.7197,2.6461,2.6554,2.7221,2.7302,2.7209,2.904,2.9792,2.9792,2.9792,2.9792,2.9792,0.0,0.0,0.0,0.0,0.0,0.0,0.0,0.5491,0.5472,0.5774,0.5636,0.5578,0.5747,0.5542,0.5428,0.5545,0.0,0.0,0.0,0.0,0.0,0.0,0.0,0.0,0.0,0.8348,0.8542,0.8665,0.8748,0.8818,0.8875,0.8282,0.7916,0.7708,0.7255,0.7235,0.0,0.0,0.0,0.0,0.0,0.0,0.7469,0.0,0.0,0.0,0.0,0.0,0.0,0.0,0.0,0.0,0.0,0.0,0.0,0.0,1.2862,1.4979,1.5786,1.754,1.8963,1.8227,1.7611,1.6764,1.497,1.4369,1.3874,1.2701,1.2594,1.2579,1.2174,1.2153,1.1961,1.1351,1.1506,1.2016,1.3015,1.5072,1.7735,2.1276,2.5046,2.716,2.66,2.7879,2.8597,2.8096,2.9197,2.9792,2.9792,2.9792,2.9792,2.9792,2.9792,2.9792,2.9792,2.9792,2.9197,2.8096,2.8096,2.7936,2.7441,2.6801,2.7058,2.7787,2.613,2.563,0.0,2.6789,2.7128,2.729,2.9118,2.9792,2.9792,2.9792,2.9792,2.9792,0.0,0.0,0.0,0.0,0.0,0.0,0.0,0.0,0.0,0.5774,0.5618,0.5562,0.5814,0.5553,0.5372,0.0,0.0,0.0,0.0,0.0,0.0,0.0,0.0,0.0,0.0,0.7931,0.818,0.8493,0.8567,0.8632,0.8705,0.8655,0.8237,0.7547,0.7609,0.7232,0.0,0.0,0.0,0.0,0.0,0.0,0.0,0.0,0.0,0.0,0.0,0.0,0.0,0.0,0.0,0.0,0.0,0.0,0.0,0.0,0.0,0.0,0.0,1.4872,1.5254,1.6456,1.5861,1.4892,1.4418,1.4141,0.0,1.2753,1.2484,1.2258,1.1726,1.1735,1.1662,1.133,1.1903,1.2298,1.1946,1.3597,1.593,1.8848,2.345,2.5847,2.4585,2.7726,2.9365,2.8267,2.9197,2.9792,2.9792,2.9792,2.9792,2.9792,2.9792,2.9792,2.9792,2.9792,2.9197,2.8016,2.8016,2.7441,2.6389,2.6318,2.5808,2.4957,2.5891,2.5714,2.4957,2.7012,2.7924,2.8096,2.9197,2.9714,2.9792,2.9792,2.9792,2.9792,0.0,0.0,0.0,0.0,0.0,0.0,0.0,0.0,0.0,0.0,0.5511,0.5202,0.5202,0.4603,0.42,0.0,0.0,0.0,0.0,0.0,0.0,0.0,0.0,0.0,0.0,0.697,0.739,0.7525,0.8298,0.8679,0.8681,0.8166,0.7604,0.6961,0.6375,0.5989,0.5813,0.0,0.0,0.0,0.0,0.0,0.0,0.0,0.0,0.0,0.7056,0.665,0.0,0.0,0.0,0.0,0.0,0.0,0.0,0.0,1.05,1.1388,1.2245,0.0,1.3513,1.3262,1.3657,1.3891,0.0,1.3266,1.3419,1.2435,1.2454,1.252,1.2138,1.1974,1.1871,1.1748,1.1762,1.1744,1.1762,1.6065,2.0192,2.284,2.659,2.8711,2.8066,2.9088,2.9702,2.9456,2.9624,2.9792,2.9792,2.9792,2.9792,2.9792,2.9792,2.9792,2.9792,2.9792,2.8791,2.6883,2.6883,2.6295,2.521,2.4307,2.4723,2.6058,2.4553,2.4221,2.4872,2.5368,2.6119,2.6964,2.8108,2.9028,2.9792,2.9792,2.9792,2.9792,0.0,0.0,0.0,0.0,0.0,0.0,0.0,0.0,0.0,0.0,0.0,0.0,0.0,0.0,0.0,0.0,0.0,0.0,0.0,0.0,0.0,0.0,0.0,0.0,0.619,0.6734,0.72,0.7609,0.8254,0.86,0.8644,0.831,0.7839,0.7226,0.6441,0.5886,0.5564,0.662,0.6785,0.0,0.7084,0.0,0.0,0.0,0.0,0.0,0.7007,0.6663,0.0,0.6481,0.6556,0.6711,0.0,0.0,0.0,0.0,0.9978,1.0677,1.0834,1.1724,1.254,1.2291,1.2842,1.331,1.2794,1.314,1.3323,1.2571,1.2492,1.2449,1.2052,1.159,1.1469,1.1925,1.2042,1.2484,1.3531,1.8012,2.1984,2.4154,2.7585,2.9869,3.0086,3.0332,3.0279,2.9869,2.9553,2.9402,2.9402,2.9402,2.9402,2.9402,2.9654,2.9792,2.9792,2.9792,2.8712,2.6483,2.6483,2.5641,2.3963,2.3387,2.38,2.4893,2.3637,2.3714,2.4787,2.4787,2.5786,2.729,2.7844,2.9057,3.0419,3.0419,3.0696,3.0983,0.0,0.0,0.0,0.0,0.0,0.0,0.0,0.0,0.0,0.0,0.0,0.0,0.0,0.0,0.0,0.0,0.0,0.0,0.0,0.0,0.0,0.0,0.0,0.511,0.6332,0.6584,0.7094,0.788,0.8206,0.8415,0.8562,0.8624,0.836,0.7754,0.691,0.6234,0.5798,0.6438,0.6463,0.6101,0.6879,0.0,0.0,0.0,0.0,0.0,0.0,0.0,0.0,0.6254,0.6177,0.6265,0.71,0.0,0.0,0.0,0.0,0.0,0.9944,1.0847,1.1893,1.2106,1.2496,1.2873,1.2904,1.3122,1.3229,1.2836,1.2567,1.2293,1.1994,1.1371,1.1201,1.2192,1.2923,1.4116,1.6251,1.9834,2.2808,2.4356,2.7763,3.0337,3.1267,3.1356,3.1005,2.9961,2.9429,2.9038,2.8812,2.8888,2.8925,2.8925,2.949,2.9792,2.9792,2.9792,2.8712,2.6483,2.6483,2.5389,2.3387,2.3387,2.3387,2.3387,2.3387,2.38,2.4542,2.4702,2.6025,2.7844,2.8068,2.9399,3.1241,3.1222,3.1807,3.2464,0.0,0.0,0.0,0.0,0.0,0.0,0.0,0.0,0.0,0.0,0.0,0.0,0.0,0.0,0.0,0.0,0.0,0.0,0.0,0.0,0.0,0.0,0.3765,0.411,0.4816,0.5533,0.6217,0.691,0.7748,0.8216,0.8348,0.8472,0.8246,0.7658,0.6352,0.6211,0.6889,0.6194,0.6341,0.7049,0.6861,0.0,0.0,0.0,0.0,0.0,0.0,0.0,0.0,0.6337,0.6236,0.626,0.6687,0.0,0.0,0.0,0.0,0.0,0.997,1.0557,1.1064,1.0718,1.1418,1.2127,1.2042,1.2389,1.2708,1.2567,1.2508,1.2579,1.2852,1.256,1.2562,1.3314,1.488,1.6737,1.8809,2.2247,2.4892,2.5635,2.9036,3.1473,3.1919,3.2208,3.1843,3.0388,3.0197,2.9572,2.8321,2.8674,2.8925,2.8925,2.949,2.9792,2.9792,2.9792,2.8712,2.6483,2.6483,2.5808,2.4542,2.4542,2.4542,2.4542,2.4542,2.4125,2.3474,2.4372,2.5546,2.6826,2.7992,2.9554,3.1262,3.1463,3.2024,3.2464,0.0,0.0,0.0,0.0,0.0,0.0,0.0,0.0,0.0,0.0,0.0,0.0,0.0,0.0,0.0,0.0,0.0,0.0,0.0,0.0,0.0,0.3876,0.4256,0.4643,0.5041,0.5828,0.6559,0.724,0.7817,0.8191,0.8367,0.8632,0.8594,0.8276,0.7614,0.7261,0.7128,0.6889,0.6716,0.6599,0.0,0.0,0.0,0.0,0.0,0.0,0.0,0.0,0.0,0.0,0.6194,0.6187,0.6736,0.0,0.0,0.0,0.0,0.0,0.9802,1.0164,1.0564,1.0475,1.1271,1.2059,1.2059,1.2142,1.2234,1.2234,1.2174,1.23,1.2896,1.3222,1.4194,1.6625,1.8258,1.9892,2.1933,2.3987,2.5941,2.7738,2.9772,3.1464,3.2507,3.2791,3.2166,3.0519,3.013,2.9282,2.7767,2.7896,2.8047,2.8047,2.8875,2.9327,2.9327,2.9641,2.8961,2.736,2.736,2.6789,2.5724,2.5724,2.5724,2.5724,2.5724,2.5389,2.4978,2.5473,2.6434,2.7639,2.8297,2.9803,3.1778,3.2258,3.2513,3.2464,0.0,0.0,0.0,0.0,0.0,0.0,0.0,0.0,0.0,0.0,0.0,0.0,0.0,0.0,0.0,0.0,0.0,0.0,0.0,0.0,0.424,0.4127,0.4966,0.5487,0.5616,0.629,0.6996,0.7724,0.7983,0.8243,0.8521,0.8869,0.8918,0.8726,0.8549,0.7994,0.7207,0.7313,0.688,0.614,0.0,0.0,0.0,0.0,0.0,0.0,0.0,0.0,0.0,0.0,0.0,0.0,0.0,0.0,0.0,0.8627,0.9268,0.975,0.9605,0.9913,1.0324,1.052,1.1177,1.1875,1.2366,1.2316,1.2268,1.253,1.2665,1.2907,1.3495,1.4442,1.6276,1.9581,2.1314,2.2917,2.4892,2.5939,2.7385,2.9695,3.0556,3.1531,3.3042,3.318,3.2369,3.0435,2.9854,2.8864,2.7188,2.7205,2.7281,2.7281,2.8235,2.8737,2.8737,2.9176,2.8938,2.8096,2.8096,2.7683,2.6883,2.6883,2.6883,2.6883,2.6883,2.6651,2.6304,2.6549,2.7301,2.8363,2.868,3.0213,3.2266,3.2724,3.2574,3.2109,0.0,0.0,0.0,0.0,0.0,0.0,0.0,0.0,0.0,0.0,0.0,0.0,0.0,0.0,0.0,0.0,0.0,0.0,0.0,0.0,0.426,0.4201,0.5435,0.6075,0.5974,0.6256,0.687,0.7782,0.8008,0.8367,0.8869,0.9033,0.8895,0.8493,0.7802,0.7487,0.7429,0.6701,0.643,0.646,0.6428,0.0,0.0,0.0,0.0,0.0,0.0,0.0,0.0,0.0,0.0,0.0,0.0,0.0,0.7599,0.7814,0.8633,0.9461,0.9485,0.9986,1.0464,1.0512,1.0609,1.111,1.2625,1.2971,1.3302,1.4217,1.5001,1.552,1.5602,1.7108,1.8934,2.057,2.3022,2.5384,2.7184,2.8927,3.0254,3.1007,3.1824,3.2617,3.3423,3.3498,3.2503,3.0211,2.9997,2.8999,2.6678,2.7005,2.7281,2.7281,2.7858,2.816,2.816,2.821,2.8174,2.8096,2.8096,2.8084,2.8004,2.8004,2.8004,2.8004,2.8004,2.7082,2.5766,2.6811,2.7472,2.7896,2.9186,3.0849,3.2467,3.2315,3.1707,3.0936,0.0,0.0,0.0,0.0,0.0,0.0,0.0,0.0,0.0,0.0,0.0,0.0,0.0,0.0,0.0,0.0,0.0,0.0,0.0,0.0,0.4253,0.4141,0.5332,0.6055,0.6129,0.6842,0.7446,0.7927,0.8342,0.8674,0.8953,0.9015,0.884,0.8485,0.8072,0.7719,0.7408,0.7075,0.6807,0.6608,0.647,0.6331,0.0,0.0,0.0,0.0,0.0,0.0,0.0,0.0,0.5959,0.5997,0.6282,0.6886,0.76,0.8052,0.8735,0.9354,0.9458,1.0108,1.0706,1.0543,1.0915,1.1594,1.2728,1.3073,1.3277,1.3672,1.5035,1.6548,1.776,1.9587,2.153,2.3276,2.5045,2.6913,2.9004,2.9889,3.0536,3.1279,3.1708,3.2153,3.2826,3.2402,3.1498,3.0109,2.9165,2.8027,2.6602,2.6314,2.6402,2.6753,2.7306,2.7595,2.7595,2.7934,2.8076,2.8086,2.8086,2.8086,2.8098,2.843,2.859,2.859,2.859,2.8224,2.7686,2.8313,2.875,2.9106,2.9812,3.0783,3.1529,3.0318,3.0266,3.073,0.0,0.0,0.0,0.0,0.0,0.0,0.0,0.0,0.0,0.0,0.0,0.0,0.0,0.0,0.0,0.0,0.0,0.0,0.385,0.4127,0.4333,0.4418,0.5421,0.612,0.6456,0.7211,0.7768,0.8097,0.8603,0.8925,0.9028,0.8994,0.8785,0.8427,0.8245,0.788,0.7392,0.7373,0.7118,0.6706,0.6488,0.6348,0.0,0.0,0.0,0.0,0.0,0.0,0.0,0.0,0.6005,0.6165,0.6429,0.698,0.7651,0.8111,0.8707,0.9271,0.9394,1.0135,1.0852,1.0751,1.1372,1.2283,1.3414,1.3473,1.3479,1.422,1.5846,1.77,1.9528,2.1267,2.2948,2.459,2.6459,2.825,3.0047,3.0335,3.0587,3.1138,3.1046,3.1091,3.1554,3.0792,2.9964,2.917,2.8039,2.6935,2.6005,2.5573,2.5536,2.5937,2.6465,2.6678,2.6502,2.7231,2.7494,2.7318,2.7494,2.777,2.8122,2.8499,2.8662,2.8662,2.8662,2.8561,2.8447,2.8937,2.943,2.9967,3.0183,3.0574,3.0673,2.8944,2.908,3.0165,0.0,0.0,0.0,0.0,0.0,0.0,0.0,0.0,0.0,0.0,0.0,0.0,0.0,0.0,0.0,0.0,0.0,0.0,0.4518,0.4375,0.4528,0.5061,0.5726,0.6365,0.6966,0.7253,0.7709,0.8293,0.8773,0.9043,0.9088,0.8956,0.8688,0.8303,0.8153,0.7839,0.7407,0.7469,0.7235,0.6774,0.6505,0.6313,0.6165,0.0,0.0,0.0,0.0,0.0,0.0,0.0,0.6101,0.657,0.6371,0.6959,0.7732,0.786,0.8462,0.9115,0.9258,1.008,1.0959,1.1137,1.1911,1.3081,1.4793,1.4328,1.4175,1.6457,1.7892,1.9208,2.0824,2.1941,2.2974,2.3953,2.702,2.9534,3.0228,3.0439,3.0507,3.0492,2.9953,2.9579,2.9579,2.8887,2.8054,2.7252,2.6485,2.5709,2.482,2.482,2.4808,2.482,2.5322,2.5335,2.4833,2.59,2.6151,2.5598,2.6163,2.7017,2.8084,2.8097,2.8097,2.8097,2.8097,2.7783,2.7339,2.8157,2.919,3.0329,3.0269,3.0269,3.0072,2.8298,2.8247,2.9002,0.0,0.0,0.0,0.0,0.0,0.0,0.0,0.0,0.0,0.0,0.0,0.0,0.0,0.0,0.0,0.0,0.0,0.0,0.4428,0.4281,0.4095,0.3784,0.4365,0.5059,0.5848,0.7238,0.8049,0.824,0.8599,0.8813,0.888,0.8801,0.8522,0.8084,0.8037,0.7768,0.7326,0.7406,0.7264,0.6984,0.6625,0.6436,0.6355,0.0,0.0,0.0,0.0,0.0,0.0,0.0,0.0,0.0,0.6623,0.725,0.7911,0.7627,0.8182,0.9,0.9448,1.0026,1.0665,1.1507,1.2212,1.301,1.3932,1.4368,1.5164,1.7356,2.0064,2.1915,2.1422,2.3512,2.5535,2.6441,2.774,2.9087,3.0275,3.0443,3.0342,2.9909,2.9699,2.9579,2.9579,2.8382,2.7488,2.7193,2.5577,2.4646,2.4795,2.4456,2.4418,2.4808,2.4971,2.4971,2.482,2.5146,2.5222,2.5059,2.5222,2.5887,2.6967,2.7356,2.7532,2.7532,2.7532,2.7218,2.6735,2.7235,2.8515,3.0208,2.8939,2.8492,2.8363,2.7297,2.7802,2.9002,0.0,0.0,0.0,0.0,0.0,0.0,0.0,0.0,0.0,0.0,0.0,0.0,0.0,0.0,0.0,0.0,0.0,0.0,0.0,0.4678,0.4419,0.4282,0.4619,0.5253,0.6212,0.7394,0.8063,0.8158,0.8514,0.8721,0.8749,0.855,0.831,0.8036,0.7956,0.7753,0.7466,0.7498,0.7374,0.7101,0.6693,0.65,0.6372,0.0,0.0,0.0,0.0,0.0,0.0,0.0,0.0,0.0,0.7021,0.7544,0.8048,0.7818,0.8199,0.88,0.9384,1.0026,1.0761,1.1776,1.2669,1.363,1.4694,1.5941,1.7352,1.9034,2.133,2.2968,2.2906,2.4504,2.624,2.7386,2.8079,2.8851,2.9988,2.9909,2.9609,2.9235,2.8951,2.8839,2.8839,2.7689,2.6947,2.6947,2.5169,2.4282,2.4553,2.4014,2.3803,2.4142,2.4368,2.4381,2.4155,2.4594,2.4707,2.4494,2.472,2.5342,2.624,2.6488,2.6936,2.7485,2.7803,2.7798,2.7524,2.7677,2.8546,2.9628,2.8247,2.767,2.7604,2.6782,2.7537,2.9002,0.0,0.0,0.0,0.0,0.0,0.0,0.0,0.0,0.0,0.0,0.0,0.0,0.0,0.0,0.0,0.0,0.0,0.0,0.0,0.0,0.5193,0.5775,0.5887,0.6414,0.7414,0.7636,0.7868,0.8104,0.8468,0.8639,0.8646,0.8338,0.8183,0.8173,0.8003,0.7872,0.7797,0.7709,0.7484,0.7139,0.6808,0.6514,0.6284,0.6065,0.0,0.0,0.0,0.0,0.0,0.0,0.0,0.0,0.7508,0.7808,0.8166,0.8251,0.8387,0.8642,0.9149,0.9996,1.0989,1.199,1.3349,1.4862,1.6662,1.8539,2.0171,2.0841,2.1782,2.3046,2.4629,2.5149,2.5862,2.7295,2.8125,2.8801,2.94,2.8981,2.8577,2.8517,2.7949,2.7625,2.7625,2.693,2.651,2.651,2.5119,2.4292,2.4292,2.3543,2.3078,2.3078,2.364,2.3665,2.3078,2.4155,2.4418,2.3929,2.4494,2.5166,2.5853,2.5703,2.6372,2.7696,2.8402,2.8823,2.8919,2.8787,2.8766,2.8812,2.792,2.7604,2.7484,2.685,2.7604,2.9002,0.0,0.0,0.0,0.0,0.0,0.0,0.0,0.0,0.0,0.0,0.0,0.0,0.0,0.0,0.0,0.0,0.0,0.0,0.0,0.0,0.516,0.5041,0.5792,0.6477,0.701,0.7682,0.8068,0.8181,0.8214,0.8224,0.8243,0.8675,0.8865,0.8804,0.882,0.8727,0.8508,0.7778,0.7301,0.705,0.7129,0.6816,0.6373,0.7038,0.7066,0.0,0.0,0.0,0.0,0.0,0.0,0.0,0.7759,0.8157,0.8495,0.8174,0.8361,0.8724,0.8994,0.934,1.0134,1.2245,1.4215,1.6137,1.7859,2.0154,2.159,2.0406,2.2369,2.4157,2.3818,2.6139,2.798,2.7607,2.8121,2.8652,2.8786,2.8682,2.8397,2.7859,2.7715,2.7625,2.7625,2.693,2.651,2.651,2.5119,2.4292,2.4292,2.3543,2.3078,2.3078,2.3263,2.3203,2.3078,2.3315,2.3439,2.3326,2.4017,2.4721,2.5287,2.5654,2.6343,2.7162,2.6891,2.7354,2.8133,2.7023,2.7133,2.792,2.7095,2.6782,2.6782,2.7297,2.8117,2.9129,0.0,0.0,0.0,0.0,0.0,0.0,0.0,0.0,0.0,0.0,0.0,0.0,0.0,0.0,0.0,0.0,0.0,0.0,0.0,0.0,0.0,0.5765,0.641,0.697,0.7373,0.7816,0.8111,0.8236,0.8094,0.8247,0.8731,0.8911,0.9218,0.9573,0.954,0.9225,0.8662,0.8071,0.7499,0.6937,0.6923,0.6669,0.6379,0.7056,0.7286,0.7268,0.7463,0.0,0.0,0.0,0.0,0.0,0.0,0.0,0.8523,0.8259,0.8354,0.861,0.9109,0.9562,1.049,1.2868,1.4905,1.6683,1.8212,2.0694,2.2552,2.2177,2.3797,2.5149,2.4501,2.5848,2.6937,2.6688,2.6937,2.7171,2.7171,2.7171,2.7036,2.6677,2.6632,2.6632,2.6632,2.6273,2.6039,2.6006,2.4996,2.4303,2.4279,2.3543,2.3078,2.3078,2.3078,2.3078,2.3078,2.3078,2.294,2.2749,2.3813,2.4842,2.5782,2.6942,2.7521,2.7636,2.8076,2.8025,2.7589,2.6837,2.6649,2.6828,2.6401,2.6635,2.7262,2.7702,2.8628,2.969,0.0,0.0,0.0,0.0,0.0,0.0,0.0,0.0,0.0,0.0,0.0,0.0,0.0,0.0,0.0,0.0,0.0,0.0,0.0,0.0,0.0,0.6861,0.7166,0.7512,0.7884,0.7985,0.8097,0.8234,0.8039,0.8509,0.9588,0.9389,0.9694,1.0418,1.0565,0.997,0.8847,0.8731,0.8,0.6904,0.6852,0.6632,0.6415,0.7051,0.7501,0.7807,0.797,0.828,0.8578,0.8353,0.0,0.0,0.0,0.0,0.8523,0.8495,0.8449,0.8595,0.9265,1.0221,1.1491,1.3531,1.5301,1.6922,1.8362,2.0734,2.3001,2.424,2.5226,2.5754,2.5473,2.5175,2.5097,2.5416,2.5538,2.563,2.5721,2.5644,2.5585,2.5508,2.5538,2.5615,2.5615,2.5615,2.5568,2.5524,2.4829,2.4354,2.4165,2.339,2.2927,2.2927,2.284,2.2877,2.3078,2.2949,2.2673,2.2322,2.3576,2.508,2.675,2.8127,2.8468,2.8065,2.929,2.866,2.6864,2.6982,2.6559,2.5906,2.603,2.6816,2.7878,2.8,2.8937,3.0156,0.0,0.0,0.0,0.0,0.0,0.0,0.0,0.0,0.0,0.0,0.0,0.0,0.0,0.0,0.0,0.0,0.0,0.0,0.6493,0.0,0.0,0.713,0.7346,0.7605,0.7897,0.8069,0.8112,0.7954,0.8039,0.8844,1.0367,1.0716,1.1044,1.1381,1.2574,1.1894,0.9826,1.0165,0.8972,0.6969,0.7882,0.7522,0.6648,0.8273,0.858,0.8248,0.9045,0.9207,0.8999,0.8706,0.8634,0.0,0.0,0.0,0.896,0.88,0.8866,0.904,0.9264,1.0934,1.2786,1.3617,1.5199,1.7095,1.9077,2.059,2.2177,2.4105,2.5113,2.5539,2.5159,2.5022,2.5038,2.5067,2.5386,2.5736,2.6165,2.5858,2.5493,2.5144,2.5386,2.5615,2.5615,2.5615,2.5568,2.5524,2.4829,2.4164,2.3556,2.2802,2.2422,2.2422,2.1958,2.2171,2.3065,2.2184,2.1907,2.2309,2.3245,2.5006,2.7444,2.6971,2.6739,2.6755,2.6968,2.6427,2.5435,2.6072,2.618,2.5968,2.6613,2.6969,2.723,2.7965,2.8741,2.9434,0.0,0.0,0.0,0.0,0.0,0.0,0.0,0.0,0.0,0.0,0.0,0.0,0.0,0.0,0.0,0.6874,0.6655,0.654,0.66,0.6727,0.6941,0.7235,0.7376,0.759,0.7899,0.8013,0.8055,0.8011,0.7998,0.8863,1.0575,1.156,1.2348,1.2937,1.3941,1.3202,1.1281,1.181,1.0574,0.831,0.9204,0.8866,0.7958,0.9061,0.9211,0.8965,1.0225,1.0065,0.9348,0.9882,0.9622,0.9101,0.9128,0.0,0.0,0.0,0.9301,0.9631,1.0548,1.1489,1.26,1.4094,1.524,1.6524,1.8314,1.9934,2.1547,2.3136,2.4043,2.4526,2.4737,2.449,2.4194,2.4194,2.4373,2.4567,2.4732,2.4193,2.3747,2.3717,2.3865,2.3969,2.3969,2.4283,2.4305,2.39,2.359,2.3068,2.2356,2.2306,2.2171,2.1857,2.192,2.2033,2.2209,2.1732,2.2039,2.3029,2.3439,2.4651,2.6425,2.6454,2.6454,2.651,2.6424,2.5702,2.472,2.5458,2.5723,2.571,2.6455,2.7186,2.7961,2.832,2.891,2.9481,0.0,0.0,0.0,0.0,0.0,0.0,0.0,0.0,0.0,0.0,0.0,0.0,0.0,0.0,0.0,0.0,0.6723,0.6655,0.6697,0.6894,0.7104,0.7324,0.7437,0.762,0.7884,0.7957,0.8013,0.8053,0.8151,0.8942,1.0383,1.1992,1.3391,1.4569,1.5298,1.4374,1.2363,1.3412,1.2131,0.9495,1.0802,1.0518,0.9412,1.0545,1.044,0.991,1.1597,1.1163,0.9997,1.0884,1.0582,0.9831,0.967,0.9646,0.0,0.0,0.0,1.0047,1.1174,1.1619,1.221,1.3935,1.4905,1.5892,1.76,1.9221,2.0767,2.2149,2.2802,2.3325,2.3999,2.3834,2.3595,2.3595,2.3595,2.3595,2.3595,2.3059,2.2688,2.2892,2.2813,2.2724,2.2724,2.2959,2.2889,2.2373,2.2369,2.2045,2.131,2.1669,2.1707,2.1292,2.1543,2.1619,2.1493,2.1343,2.191,2.3149,2.3187,2.3881,2.5274,2.5533,2.5706,2.5706,2.5607,2.4888,2.3799,2.4762,2.5273,2.5504,2.6424,2.7394,2.8338,2.8338,2.8757,2.931,0.0,0.0,0.0,0.0,0.0,0.0,0.0,0.0,0.0,0.0,0.0,0.0,0.7324,0.7233,0.7107,0.6924,0.6774,0.6689,0.6689,0.7235,0.7499,0.7392,0.765,0.0,0.7897,0.7956,0.7985,0.7911,0.8667,0.925,0.9701,1.1863,1.3991,1.6021,1.6897,1.5528,1.2719,1.4783,1.3305,0.9834,1.2742,1.2471,1.0619,1.3456,1.2947,1.1011,1.327,1.2789,1.1149,1.1336,1.1269,1.0964,1.0199,0.9919,0.9893,0.0,0.0,0.0,1.0075,1.1011,1.2099,1.2518,1.3841,1.5582,1.7777,1.8676,1.9513,2.1357,2.1799,2.1994,2.2667,2.3236,2.3595,2.3595,2.3595,2.3595,2.3595,2.3565,2.355,2.355,2.3041,2.2724,2.2724,2.2147,2.1749,2.1657,2.1639,2.1381,2.0756,2.0794,2.0794,2.0756,2.02,2.0439,2.1481,2.102,2.1117,2.1912,2.1758,2.2708,2.4498,2.3795,2.3477,2.3533,2.3533,2.2989,2.2241,2.3865,2.4924,2.5632,2.7003,2.759,2.7619,2.7619,2.8068,2.8562,0.0,0.0,0.0,0.0,0.0,0.0,0.0,0.0,0.0,0.0,0.0,0.0,0.0,0.7137,0.6977,0.6908,0.6927,0.7042,0.7266,0.7438,0.756,0.765,0.7709,0.7783,0.7899,0.7928,0.7928,0.7899,0.8227,0.8973,1.0143,1.1628,1.3269,1.4984,1.6258,1.6127,1.4989,1.6278,1.4943,1.2158,1.4241,1.4083,1.276,1.3775,1.3697,1.3195,1.42,1.3581,1.2307,1.2775,1.2706,1.2196,1.1016,1.0834,1.0963,1.0466,1.0386,1.058,1.1189,1.1454,1.1862,1.309,1.395,1.4929,1.6644,1.7676,1.8768,2.025,2.0805,2.1261,2.1919,2.2577,2.3131,2.3535,2.3133,2.2942,2.352,2.2617,2.2215,2.2936,2.2443,2.2054,2.2054,2.1518,2.1026,2.055,2.0174,1.9703,1.9132,1.9736,1.9962,1.9623,2.01,2.0213,1.9911,2.0037,2.0284,2.0656,2.1361,2.202,2.2642,2.2764,2.2541,2.1992,2.215,2.2256,2.235,2.3851,2.4889,2.5596,2.6579,2.72,2.7625,2.7625,2.7724,2.7904,0.0,0.0,0.0,0.0,0.0,0.0,0.0,0.0,0.0,0.0,0.0,0.0,0.0,0.0,0.6908,0.6927,0.7139,0.7329,0.7453,0.756,0.765,0.7665,0.7709,0.7739,0.7768,0.7768,0.7783,0.7841,0.8109,0.8911,1.0223,1.1384,1.2821,1.4481,1.5442,1.5896,1.599,1.6726,1.5616,1.3565,1.5606,1.5647,1.4581,1.545,1.54,1.4943,1.5405,1.4608,1.3402,1.3899,1.3998,1.3584,1.1845,1.1308,1.122,1.0679,1.0632,1.0873,1.1496,1.1442,1.1599,1.3151,1.3613,1.4134,1.5908,1.6808,1.7699,1.9206,1.9771,2.0318,2.1201,2.1724,2.2218,2.2862,2.2491,2.2286,2.2892,2.2181,2.1783,2.2293,2.1964,2.1605,2.1395,2.0669,2.0048,1.9597,1.9101,1.8621,1.8204,1.8882,1.9108,1.8769,1.9635,1.9673,1.8756,1.9095,1.9419,1.9677,2.0864,2.1519,2.1628,2.2458,2.2432,2.1716,2.2043,2.225,2.243,2.3681,2.4606,2.5287,2.6247,2.6856,2.726,2.7535,2.7625,2.7625,0.0,0.0,0.0,0.0,0.0,0.0,0.0,0.0,0.0,0.7618,0.0,0.0,0.0,0.0,0.0,0.7009,0.736,0.7484,0.7235,0.765,0.7739,0.7422,0.7665,0.7709,0.7499,0.7499,0.756,0.7694,0.8355,0.9073,0.9844,1.1156,1.2804,1.4662,1.4618,1.4883,1.5408,1.6033,1.5288,1.3935,1.6878,1.7123,1.5953,1.8602,1.8127,1.6139,1.6814,1.5932,1.4452,1.4578,1.5034,1.514,1.2737,1.1371,1.0621,1.0621,1.0705,1.0801,0.0,0.0,0.0,1.2506,1.2675,1.3237,1.5667,1.601,1.6338,1.8238,1.8657,1.9076,2.0408,2.0662,2.0872,2.153,2.165,2.168,2.1695,2.2218,2.2398,2.1769,2.168,2.141,2.0782,1.9575,1.8893,1.8893,1.8442,1.8154,1.8154,1.8179,1.8191,1.8204,1.8719,1.8744,1.8191,1.8191,1.8468,1.8982,2.0184,2.0996,2.1549,2.2766,2.3032,2.2594,2.3192,2.2977,2.2344,2.3307,2.4065,2.4701,2.6033,2.6542,2.6632,2.7305,2.7595,2.7595,0.0,0.0,0.0,0.0,0.0,0.0,0.0,0.0,0.0,0.0,0.0,0.0,0.7778,0.7297,0.7072,0.7326,0.7387,0.7451,0.762,0.7665,0.7665,0.762,0.7739,0.7679,0.7438,0.7469,0.7484,0.7484,0.781,0.8696,1.0109,1.0862,1.2104,1.3717,1.4327,1.4646,1.483,1.6071,1.6235,1.5796,1.6824,1.7409,1.7649,1.7199,1.7034,1.6952,1.642,1.5829,1.5256,1.5023,1.5802,1.6567,1.4659,1.2636,1.0944,1.0849,1.0873,1.0968,1.1108,0.0,0.0,0.0,0.0,0.0,1.3901,1.503,1.6068,1.6792,1.756,1.8305,1.9091,1.9256,1.948,2.0124,2.0662,2.1156,2.1635,2.144,2.1365,2.1665,2.1276,2.0917,2.0737,1.9269,1.8314,1.8314,1.7496,1.6986,1.6986,1.7375,1.779,1.8191,1.8355,1.8166,1.7614,1.8003,1.8078,1.784,1.8967,1.9601,1.9745,2.0454,2.1226,2.1962,2.2143,2.2597,2.3244,2.3526,2.403,2.4627,2.5031,2.5465,2.5959,2.6617,2.6856,2.6931,0.0,0.0,0.0,0.0,0.0,0.0,0.0,0.0,0.0,0.0,0.0,0.0,0.8158,0.7814,0.7592,0.7556,0.7466,0.7512,0.7709,0.7679,0.7635,0.762,0.7709,0.762,0.7329,0.7329,0.7329,0.7359,0.75,0.8498,1.025,1.0699,1.1769,1.3329,1.3956,1.4161,1.4143,1.5735,1.6248,1.6108,1.7238,1.8063,1.851,1.7613,1.7597,1.7903,1.6403,1.577,1.5639,1.5448,1.5742,1.6146,1.5874,1.4106,1.2072,1.1694,1.1608,1.1622,1.1448,1.133,1.1388,1.1976,0.0,0.0,1.369,1.4489,1.5261,1.6261,1.6918,1.7537,1.813,1.8216,1.844,1.9131,1.9304,1.9722,2.0722,2.0782,2.0752,2.0842,2.0782,2.0602,2.0318,1.8955,1.8106,1.8106,1.7118,1.6522,1.6522,1.7074,1.7413,1.7501,1.7739,1.7713,1.735,1.767,1.7874,1.8035,1.8933,1.9492,1.971,2.033,2.0982,2.1681,2.1681,2.2111,2.2802,2.2802,2.3355,2.4223,2.4462,2.4821,2.527,2.5944,2.6183,2.6243,0.0,0.0,0.0,0.0,0.0,0.0,0.0,0.0,0.0,0.0,0.9357,0.9074,0.8624,0.8602,0.8369,0.7779,0.7779,0.7793,0.7751,0.7855,0.7853,0.7745,0.7853,0.776,0.7409,0.7291,0.728,0.7386,0.7417,0.8403,1.03,1.0653,1.1708,1.3312,1.3561,1.3627,1.365,1.5297,1.5771,1.5675,1.7803,1.873,1.8841,1.8789,1.882,1.8642,1.6635,1.5898,1.5928,1.6137,1.5441,1.4826,1.6471,1.5435,1.3439,1.2648,1.2468,1.2394,1.1663,1.1444,1.1612,1.2405,1.2035,0.0,1.4042,1.4016,1.4068,1.5936,1.6353,1.6577,1.7171,1.7225,1.74,1.8134,1.7774,1.7922,1.948,2.0154,2.0288,1.975,2.0168,2.0273,1.9735,1.8669,1.8037,1.8092,1.7146,1.6595,1.668,1.7175,1.7213,1.6693,1.7175,1.7449,1.7394,1.7394,1.7894,1.8824,1.9464,2.0045,2.0522,2.1188,2.1515,2.159,2.159,2.1665,2.1799,2.1724,2.2413,2.355,2.4178,2.4403,2.4552,2.5255,2.5495,2.551,0.0,0.0,0.0,0.0,0.0,0.0,0.0,0.0,1.0224,1.0273,1.0203,1.0166,1.022,0.9723,0.9139,0.853,0.8938,0.9046,0.8676,0.9021,0.9245,0.9274,0.9298,0.9104,0.8666,0.8267,0.7996,0.7865,0.7661,0.8466,1.0234,1.0669,1.1771,1.3396,1.3494,1.3902,1.459,1.548,1.6121,1.6659,1.744,1.8289,1.8973,1.7722,1.7407,1.756,1.6859,1.6607,1.6807,1.8115,1.685,1.5007,1.6455,1.5405,1.3366,1.2207,1.2024,1.207,1.1418,1.1132,1.1043,1.124,1.1099,0.0,1.1972,1.238,1.2802,1.3702,1.4228,1.4705,1.5329,1.5266,1.5359,1.5934,1.6436,1.7466,1.942,1.9346,1.9241,1.963,1.9331,1.9256,1.9645,1.8232,1.7504,1.8064,1.7504,1.7353,1.7747,1.7896,1.7909,1.7787,1.7896,1.795,1.7947,1.7947,1.8042,1.8271,1.8849,1.9152,1.9253,1.9827,2.0378,2.0917,2.0917,2.1515,2.2443,2.1919,2.2158,2.2877,2.3011,2.337,2.3879,2.4567,2.4776,2.4851,0.8761,0.8799,0.0,0.0,0.0,0.0,0.0,0.0,1.0908,1.1037,1.1144,1.1094,1.0827,1.046,1.0036,0.9498,1.0025,1.0097,0.9449,1.0007,1.0178,0.982,0.9736,0.9573,0.9308,0.901,0.8645,0.8194,0.8459,0.914,1.0217,1.0994,1.2191,1.371,1.3938,1.4277,1.4723,1.5873,1.6505,1.6855,1.7963,1.8717,1.9098,1.8079,1.7798,1.7848,1.7081,1.6686,1.6754,1.8019,1.7089,1.5598,1.6834,1.6185,1.4758,1.3586,1.3356,1.3311,1.2395,1.1812,1.1476,1.1524,1.1204,0.0,0.0,1.2188,1.2545,1.3208,1.3678,1.4001,1.4203,1.4168,1.4296,1.4861,1.5228,1.6035,1.777,1.8108,1.8343,1.8672,1.8418,1.8343,1.8672,1.7669,1.7149,1.757,1.7339,1.7475,1.8078,1.8106,1.8106,1.8106,1.8106,1.8224,1.8496,1.8496,1.8612,1.8893,1.9169,1.9281,1.9332,1.9566,1.9869,2.0198,2.0198,2.0767,2.168,2.1335,2.1605,2.2218,2.2547,2.3056,2.364,2.3984,2.4118,2.4163,0.9127,0.9034,0.0,0.0,0.0,0.0,0.0,0.0,1.1452,1.1681,1.2011,1.2003,1.1484,1.1668,1.1554,1.0919,1.1628,1.1718,1.0727,1.1196,1.1301,1.0762,1.032,1.0093,1.0093,0.9797,0.9365,0.8817,0.9424,0.9965,1.0471,1.1398,1.2631,1.409,1.4419,1.4783,1.5275,1.6552,1.7098,1.7209,1.8687,1.9235,1.9133,1.8636,1.8574,1.855,1.7412,1.6789,1.6653,1.7752,1.7192,1.6253,1.733,1.7015,1.6077,1.4963,1.4732,1.4576,1.3421,1.2666,1.2286,1.2578,1.1936,1.1503,0.0,0.0,0.0,1.2994,1.3282,1.3396,1.3257,1.3218,1.3355,1.3794,1.3903,1.4311,1.5357,1.6288,1.6975,1.7314,1.7294,1.7326,1.7391,1.7117,1.6987,1.7228,1.7232,1.7571,1.8391,1.8419,1.8419,1.8419,1.8419,1.8612,1.9043,1.9043,1.9281,1.969,1.969,1.969,1.969,1.969,1.969,1.969,1.969,2.0154,2.0902,2.0767,2.1246,2.2099,2.2383,2.2862,2.343,2.343,2.349,2.3595,0.9343,1.0179,1.0827,0.0,0.0,0.0,0.0,0.0,1.197,1.2112,1.2632,1.3058,1.3273,1.4399,1.4629,1.3336,1.4583,1.4842,1.3452,1.3215,1.3349,1.3775,1.2355,1.1674,1.1894,1.1023,1.047,1.0262,1.0179,1.0543,1.1351,1.1777,1.2822,1.4368,1.4387,1.5612,1.7611,1.7725,1.8172,1.8813,1.903,1.915,1.9109,1.8234,1.841,1.899,1.8025,1.7479,1.742,1.9015,1.8082,1.649,1.779,1.712,1.565,1.4515,1.4355,1.4347,1.3421,1.3084,1.3182,1.4026,1.3356,1.2661,1.3242,0.0,1.183,1.1742,0.0,1.1754,1.1948,0.0,0.0,1.1585,1.2221,1.2665,1.2587,1.3277,1.4371,1.5906,1.591,1.591,1.6346,1.669,1.7162,1.7755,1.7798,1.8303,1.9449,1.953,1.953,1.953,1.953,1.9566,1.9603,1.9603,1.9639,1.969,1.969,1.969,1.969,1.969,1.969,1.969,1.969,2.0408,2.1545,2.0961,2.1769,2.3281,2.2218,2.2203,2.2787,2.2787,2.3131,2.3595,1.0125,1.0387,1.0638,1.0737,0.0,0.0,0.0,0.0,1.2744,1.2737,1.3457,1.42,1.4802,1.5438,1.5644,1.519,1.6219,1.6413,1.5316,1.4605,1.4638,1.5575,1.326,1.2343,1.3233,1.2118,1.1334,1.0948,1.1216,1.1421,1.1566,1.2181,1.3291,1.4824,1.5197,1.6537,1.8495,1.8668,1.9369,2.0336,2.0474,2.0355,1.9888,1.8387,1.8042,1.8331,1.7935,1.7572,1.7469,1.8617,1.8251,1.7468,1.8253,1.813,1.7537,1.6669,1.6589,1.6621,1.5891,1.5359,1.4994,1.4877,1.37,1.2554,1.249,1.1838,1.126,1.1174,0.0,0.0,0.0,0.0,0.0,0.0,1.1789,1.2202,1.1962,1.2373,1.3095,1.4039,1.4193,1.4509,1.5264,1.5388,1.5811,1.6737,1.6881,1.7419,1.8585,1.9002,1.9369,1.969,1.969,1.969,1.969,1.969,1.969,1.969,1.969,1.969,1.969,1.969,1.969,1.969,1.969,2.0453,2.168,2.1395,2.1994,2.3011,2.2473,2.2652,2.3206,2.3206,2.337,2.3595,1.0548,1.0436,1.0476,1.0968,1.1215,1.1466,1.174,1.2604,1.3348,1.3586,1.4576,1.5598,1.6547,1.7044,1.7305,1.7259,1.7873,1.788,1.7001,1.5856,1.5717,1.6855,1.4341,1.3459,1.4607,1.3321,1.2536,1.2307,1.2509,1.2589,1.2614,1.3195,1.4229,1.5548,1.6078,1.7246,1.8843,1.9201,1.9816,2.0604,2.1007,2.078,2.0073,1.8705,1.8144,1.8099,1.8099,1.8078,1.8153,1.8909,1.8854,1.8556,1.8888,1.8968,1.8801,1.8208,1.8128,1.8114,1.7637,1.7166,1.6629,1.5927,1.4624,1.3386,1.2775,1.2098,1.152,1.1287,1.1513,0.0,0.0,0.0,1.1392,1.1132,0.0,1.1685,1.1458,1.1616,1.1898,1.2361,1.2714,1.3337,1.4345,1.441,1.4782,1.5707,1.5902,1.6486,1.7647,1.8352,1.8943,1.9479,1.9603,1.969,1.969,1.969,1.969,1.969,1.969,1.969,1.969,1.969,1.969,1.9726,2.005,2.0768,2.171,2.2033,2.2486,2.2936,2.2936,2.3206,2.358,2.34,2.3445,2.3595,1.0212,1.057,1.094,1.1155,1.1353,1.1601,1.1949,1.2634,1.3548,1.4778,1.6038,1.7338,1.8653,2.0086,2.0608,1.9779,1.9968,1.9696,1.8691,1.713,1.666,1.7613,1.6082,1.5506,1.6211,1.4795,1.4311,1.488,1.4052,1.4147,1.5077,1.5189,1.5733,1.6644,1.6806,1.762,1.891,1.9115,1.9109,1.9053,1.9756,1.9604,1.8975,1.9116,1.903,1.886,1.886,1.9333,2.0035,2.084,2.0377,1.9526,1.9929,1.9294,1.8346,1.794,1.7779,1.7682,1.7617,1.7715,1.7782,1.7468,1.6802,1.5983,1.5239,1.4162,1.3089,1.2249,1.197,1.1763,1.1376,1.1262,1.1132,1.0849,1.0887,0.0,0.0,1.0401,1.0572,1.1096,1.1699,1.2485,1.3611,1.4136,1.4639,1.5168,1.5304,1.5875,1.7139,1.779,1.8368,1.8916,1.9442,1.969,1.969,1.969,1.969,1.969,1.969,1.969,1.969,1.969,1.969,1.9756,2.0947,2.1528,2.1779,2.2909,2.3432,2.3565,2.3565,2.358,2.3535,2.2921,2.3086,2.3595,1.0602,1.0653,1.0729,1.0849,1.1215,1.1601,1.1949,1.376,1.5285,1.5851,1.7219,1.8749,2.033,2.1045,2.1233,2.0769,2.0569,2.0435,2.0364,1.8225,1.7841,1.9808,1.7223,1.6428,1.7858,1.5978,1.5359,1.6189,1.5091,1.4793,1.528,1.5276,1.5737,1.6601,1.6993,1.8124,1.9753,1.9563,2.0196,2.1319,2.1105,2.1265,2.1427,1.9144,1.8234,1.8251,1.8724,1.9063,1.9469,2.0746,2.0948,2.0632,2.0684,2.0539,2.0241,1.9535,1.9436,1.9495,1.9326,1.9292,1.9167,1.8382,1.7596,1.6811,1.5975,1.528,1.4544,1.3723,1.4129,1.4207,1.2867,1.265,1.2367,1.1484,1.0888,1.046,0.0,0.9893,0.9897,1.037,1.1098,1.1779,1.2319,1.3019,1.3444,1.3578,1.405,1.4816,1.5947,1.701,1.7973,1.8864,1.9406,1.969,1.969,1.969,1.969,1.969,1.969,1.969,1.969,1.969,1.9839,2.017,2.1089,2.1713,2.2164,2.3026,2.3463,2.3595,2.3595,2.3837,2.4044,2.3483,2.3415,2.3595,1.1194,1.0838,1.0572,1.0705,1.1474,1.2276,1.2849,1.5053,1.6959,1.7754,1.9041,2.0388,2.1687,2.1994,2.1978,2.1637,2.1116,2.0866,2.0954,1.9102,1.8706,2.0289,1.8269,1.7668,1.8917,1.7417,1.7009,1.7828,1.6564,1.6188,1.6639,1.6323,1.6495,1.7031,1.7518,1.8529,1.9857,1.9653,2.0433,2.1782,2.1643,2.2139,2.2681,2.0153,1.9166,1.9131,1.9239,1.9469,1.9891,2.116,2.1583,2.1551,2.1292,2.1227,2.1103,2.0366,2.0177,2.017,1.9995,1.9975,1.9718,1.8626,1.8062,1.746,1.6319,1.6036,1.5752,1.4907,1.552,1.5755,1.4293,1.3656,1.3049,1.2087,1.099,1.011,0.0,0.9357,0.9298,0.9556,1.0391,1.1143,1.1801,1.2078,1.2365,1.2766,1.2998,1.3691,1.5031,1.6265,1.7437,1.8584,1.9332,1.969,1.969,1.969,1.969,1.969,1.969,1.969,1.9711,1.9839,2.0054,2.0361,2.1534,2.217,2.2393,2.3367,2.3677,2.3595,2.3595,2.3794,2.4074,2.3709,2.3595,2.3595,1.1838,1.1071,1.0498,1.0818,1.2192,1.3562,1.446,1.6381,1.8387,2.0327,2.1324,2.2125,2.2824,2.297,2.2833,2.2349,2.1651,2.1032,2.0574,1.9792,1.9338,1.9288,1.9173,1.9239,1.9482,1.9069,1.9146,1.9772,1.842,1.8217,1.9109,1.8212,1.7833,1.7905,1.8296,1.8808,1.9376,1.9456,1.9864,2.0474,2.1368,2.2139,2.2617,2.193,2.1621,2.1412,2.0425,2.0551,2.1322,2.2057,2.231,2.2225,2.1757,2.134,2.0926,2.0434,2.0035,1.9726,1.9726,1.9762,1.9525,1.8461,1.8335,1.8096,1.6554,1.6623,1.6805,1.5873,1.6261,1.6499,1.5654,1.4395,1.331,1.265,1.107,0.9699,0.8969,0.8805,0.8734,0.869,0.9551,1.0636,1.1846,1.1383,1.1508,1.261,1.2121,1.2612,1.4455,1.5641,1.6808,1.8009,1.9118,1.9741,1.9735,1.9741,1.9741,1.9735,1.9741,1.9705,1.9771,2.017,2.0376,2.0553,2.235,2.2864,2.2508,2.3847,2.4074,2.3595,2.3595,2.3625,2.3655,2.361,2.3595,2.3595,1.1218,1.0821,1.0889,1.1759,1.3049,1.4123,1.4664,1.642,1.8676,2.1423,2.1462,2.2003,2.4064,2.3602,2.2989,2.2625,2.1911,2.1453,2.1332,2.0527,2.0193,2.0527,1.9912,1.9912,2.0639,1.9923,1.998,2.09,1.9348,1.8887,1.936,1.8251,1.7732,1.7755,1.8069,1.8918,2.0102,1.9794,1.9939,2.0498,2.166,2.2346,2.253,2.1652,2.173,2.2194,2.1249,2.1017,2.1324,2.204,2.231,2.222,2.1752,2.154,2.129,2.0522,2.0234,2.0089,1.9782,1.9726,1.9645,1.9358,1.9435,1.9451,1.8932,1.9046,1.9045,1.82,1.8646,1.8736,1.724,1.6705,1.5768,1.3546,1.0834,0.8899,0.8495,0.8354,0.8308,0.8319,0.9014,0.9581,0.9926,1.0939,1.1575,1.1475,1.1616,1.2375,1.3926,1.4995,1.6158,1.7463,1.8921,1.9929,2.0438,1.9944,1.9944,2.0438,1.9929,1.9944,2.0453,2.0957,2.1631,2.2433,2.3487,2.3797,2.3692,2.4193,2.4074,2.3595,2.3595,2.3909,2.4298,2.3789,2.3595,2.3595,1.1761,1.1542,1.1779,1.2756,1.4331,1.5733,1.6464,1.843,2.0525,2.2579,2.2605,2.288,2.4087,2.3613,2.3069,2.2721,2.222,2.1823,2.1612,2.1134,2.0813,2.0698,2.0227,2.0139,2.0499,2.0432,2.073,2.1332,2.0103,1.9658,1.9904,1.883,1.8144,1.7873,1.8875,1.9813,2.0633,2.099,2.1528,2.2153,2.2796,2.3096,0.0,2.2605,2.2449,2.2385,2.1858,2.1475,2.1298,2.204,2.231,2.2248,2.199,2.1749,2.1505,2.099,2.0602,2.0246,2.0019,1.9839,1.969,1.969,1.9797,1.9773,1.9401,1.9622,1.9708,1.8989,1.9485,1.9747,1.8717,1.8041,1.6562,1.3299,1.0639,0.88,0.8283,0.8099,0.7994,0.7986,0.863,0.8982,0.8745,0.9924,1.0686,1.068,1.077,1.1623,1.3582,1.4289,1.5599,1.7692,1.9145,2.0191,2.082,2.094,2.1075,2.1165,2.079,2.0903,2.1477,2.1978,2.254,2.3151,2.3839,2.3994,2.3755,2.3963,2.3879,2.3595,2.3595,2.4193,2.4971,2.4298,2.4044,2.4014,1.3115,1.2942,1.316,1.394,1.6039,1.798,1.9109,2.0982,2.2656,2.375,2.3939,2.3943,2.3754,2.3417,2.3093,2.2797,2.249,2.2106,2.1628,2.1582,2.1259,2.0501,2.0416,2.0261,1.9945,2.083,2.1413,2.1705,2.0771,2.0457,2.0715,1.9522,1.862,1.8095,1.9905,2.0855,2.1141,2.2439,2.3412,2.4059,2.385,2.3742,2.3705,2.3759,2.3172,2.231,2.231,2.1887,2.1431,2.209,2.231,2.231,2.231,2.2032,2.1688,2.1628,2.1054,2.0449,2.0348,2.0019,1.9782,1.9711,1.969,1.954,1.8957,1.9271,1.9525,1.8957,1.9441,1.9919,1.9797,1.8583,1.6422,1.2841,1.0732,0.9223,0.8394,0.8215,0.8098,0.7891,0.8818,0.0,0.8247,0.8896,0.9589,1.012,0.9772,1.0651,1.3143,1.3527,1.5038,1.8019,1.932,2.0398,2.125,2.2054,2.2289,2.2024,2.1809,2.1985,2.2461,2.2995,2.3259,2.3299,2.4031,2.4024,2.3584,2.3853,2.3975,2.398,2.3908,2.4627,2.5659,2.5001,2.4761,2.4777,1.4755,1.4964,1.5399,1.6003,1.8397,2.0455,2.119,2.1185,2.1996,2.4502,2.3751,2.3482,2.4832,2.3916,2.3165,2.3117,2.2607,2.2106,2.1628,2.1582,2.1521,2.1399,2.1039,2.1023,2.1259,2.1505,2.2182,2.3374,2.1318,2.0871,2.1931,1.9434,1.8211,1.8126,1.9303,2.06,2.1945,2.2691,2.2989,2.2954,2.2702,2.2609,2.2581,2.2592,2.2468,2.231,2.231,2.2226,2.2141,2.226,2.231,2.231,2.231,2.2237,2.2106,2.1718,2.1491,2.1228,2.0516,2.0246,2.0124,1.9782,1.969,1.966,1.954,1.96,1.966,1.954,1.9651,1.9762,1.9726,1.8153,1.629,1.45,1.2246,1.0355,0.9402,0.9531,0.9489,0.8846,1.0981,1.1507,0.8853,0.9279,0.9649,0.9491,0.9343,1.0094,1.1993,1.2679,1.4216,1.6909,1.8164,1.9998,2.2521,2.1549,2.1799,2.3278,2.2203,2.2044,2.2677,2.3595,2.4084,2.4248,2.5222,2.5345,2.4939,2.556,2.5905,2.5947,2.5455,2.5734,2.6333,2.5674,2.5779,2.6078,1.607,1.6131,1.6642,1.8185,2.0171,2.1979,2.3347,2.3325,2.3503,2.4509,2.3963,2.38,2.4646,2.3822,2.3189,2.3189,2.2651,2.2209,2.1974,2.1957,2.1853,2.1628,2.1399,2.1306,2.1275,2.1521,2.2312,2.3588,2.1833,2.1394,2.2162,2.0271,1.8983,1.8315,1.9629,2.1428,2.3417,2.3028,2.279,2.2685,2.2405,2.231,2.231,2.231,2.231,2.231,2.231,2.231,2.231,2.231,2.231,2.231,2.231,2.231,2.2254,2.2032,2.1794,2.1521,2.1102,2.0813,2.0565,2.0124,2.0,1.998,1.9747,1.969,1.969,1.969,1.969,1.969,1.969,1.8396,1.6916,1.5616,1.3514,1.1593,1.034,1.0386,1.0341,0.9839,1.1191,1.1373,0.9399,0.9332,0.935,0.9318,0.896,0.9735,1.1976,1.2132,1.3629,1.6958,1.818,1.9782,2.1894,2.2104,2.2544,2.3185,2.2858,2.2998,2.3575,2.4068,2.4523,2.4958,2.5381,2.5676,2.5936,2.6598,2.7099,2.7387,2.6456,2.6703,2.7479,2.6492,2.6527,2.6916,1.8266,1.8172,1.863,2.0852,2.2099,2.3415,2.5181,2.5521,2.5305,2.4557,2.43,2.419,2.419,2.3588,2.3189,2.3189,2.2651,2.231,2.231,2.231,2.2135,2.1764,2.1764,2.1598,2.1291,2.1598,2.2316,2.3545,2.2419,2.2021,2.2288,2.1336,2.0289,1.9189,2.0684,2.2422,2.4182,2.3145,2.2659,2.2596,2.2394,2.231,2.231,2.231,2.231,2.231,2.231,2.231,2.231,2.231,2.231,2.231,2.231,2.231,2.231,2.231,2.2032,2.1735,2.1628,2.1368,2.0975,2.0452,2.0299,2.0177,1.9782,1.969,1.969,1.969,1.969,1.969,1.969,1.8884,1.782,1.6595,1.4691,1.2891,1.1523,1.1513,1.1478,1.1067,1.1719,1.1793,1.0727,1.0077,0.9784,0.9957,0.8974,0.9482,1.2025,1.1806,1.3507,1.7636,1.8301,1.9619,2.1728,2.2834,2.3299,2.3197,2.3586,2.3906,2.4241,2.4626,2.5041,2.5428,2.5846,2.651,2.7291,2.7628,2.8214,2.8667,2.7428,2.755,2.8354,2.7221,2.7126,2.7475,2.2718,2.285,2.3064,2.433,2.4905,2.5421,2.6093,2.6362,2.619,2.5403,2.4649,2.419,2.419,2.3588,2.3189,2.3189,2.2651,2.231,2.231,2.231,2.2282,2.2237,2.2237,2.2209,2.218,2.2209,2.2801,2.3935,2.3154,2.2838,2.2909,2.2259,2.1791,2.1533,2.2652,2.301,2.2771,2.2746,2.2569,2.2338,2.231,2.231,2.231,2.231,2.231,2.231,2.231,2.231,2.231,2.231,2.231,2.231,2.231,2.231,2.231,2.231,2.2282,2.2135,2.1718,2.1582,2.1336,2.0506,2.032,2.0177,1.9782,1.969,1.969,1.969,1.969,1.969,1.969,1.9464,1.8819,1.7469,1.5793,1.4252,1.3201,1.3654,1.3713,1.2784,1.4523,1.5259,1.3852,1.2719,1.2089,1.2201,0.9964,0.9393,1.1285,1.1739,1.4119,1.887,1.7888,1.9543,2.4222,2.3103,2.3157,2.4433,2.4349,2.4116,2.3739,2.5356,2.5891,2.5628,2.7712,2.9063,2.9727,2.9228,2.9436,3.0009,2.8793,2.8403,2.8415,2.7735,2.7565,2.761,2.4574,2.4716,2.5034,2.6404,2.6718,2.709,2.7923,2.7625,2.72,2.6869,2.5713,2.4905,2.4905,2.3898,2.3189,2.3189,2.2651,2.231,2.231,2.231,2.231,2.231,2.231,2.231,2.231,2.231,2.2846,2.3952,2.3798,2.3336,2.2574,2.274,2.2723,2.2513,2.229,2.2667,2.3404,2.2757,2.2405,2.231,2.231,2.231,2.231,2.231,2.231,2.231,2.231,2.231,2.231,2.231,2.231,2.231,2.231,2.231,2.231,2.231,2.231,2.2254,2.2061,2.2032,2.1853,2.1241,2.0911,2.0583,2.0158,1.9874,1.969,1.969,1.969,1.969,1.969,1.9617,1.9391,1.8772,1.7465,1.638,1.5935,1.588,1.5826,1.5608,1.5321,1.5101,1.4882,1.3196,1.1985,1.1665,1.0354,1.0212,1.1698,1.2479,1.4478,1.7953,1.8602,2.0186,2.2833,2.321,2.3452,2.346,2.4499,2.4898,2.4787,2.5936,2.6697,2.7211,2.9006,2.9884,3.0104,3.0314,3.057,3.0699,2.9496,2.9042,2.8904,2.7944,2.7625,2.7625,2.6731,2.6816,2.7154,2.8415,2.8356,2.8356,2.9104,2.8611,2.8154,2.8154,2.6961,2.5935,2.5458,2.4162,2.3323,2.3212,2.2738,2.2405,2.231,2.231,2.231,2.231,2.231,2.231,2.231,2.231,2.2587,2.3232,2.3742,2.3333,2.2146,2.3092,2.3295,2.2849,2.2358,2.2651,2.347,2.2626,2.231,2.231,2.231,2.231,2.231,2.231,2.231,2.231,2.231,2.231,2.231,2.231,2.231,2.231,2.231,2.231,2.231,2.231,2.231,2.231,2.231,2.231,2.218,2.1718,2.1306,2.0862,2.0416,2.0,1.969,1.969,1.969,1.969,1.969,1.969,1.9642,1.9487,1.8475,1.772,1.7702,1.7263,1.7036,1.7298,1.5926,1.5229,1.5847,1.4004,1.2803,1.2878,1.1896,1.1572,1.2211,1.343,1.5486,1.8484,2.0059,2.1563,2.2964,2.4162,2.4241,2.3266,2.5111,2.5909,2.5823,2.6855,2.7962,2.916,3.0111,3.0496,3.0463,3.0987,3.119,3.1112,3.0081,2.9673,2.954,2.8304,2.786,2.786,2.9792,2.9779,2.9898,3.0712,2.9875,2.9112,2.9178,2.9067,2.8975,2.8975,2.8282,2.7163,2.5568,2.439,2.3566,2.3212,2.2933,2.2651,2.2338,2.231,2.231,2.231,2.231,2.231,2.231,2.231,2.2077,2.1628,2.2698,2.271,2.1731,2.3347,2.3509,2.2549,2.3525,2.3347,2.2327,2.231,2.231,2.231,2.231,2.231,2.231,2.231,2.231,2.231,2.231,2.231,2.231,2.231,2.231,2.231,2.231,2.231,2.231,2.231,2.231,2.231,2.231,2.231,2.218,2.1718,2.1306,2.0862,2.0416,2.0,1.969,1.969,1.969,1.969,1.969,1.969,1.9617,1.9413,1.8499,1.7828,1.7905,1.7388,1.7031,1.7096,1.6678,1.6573,1.7042,1.5681,1.5426,1.7006,1.5095,1.3508,1.2627,1.4485,1.7427,2.1431,2.2288,2.3705,2.5939,2.6142,2.5691,2.4612,2.6397,2.6983,2.6539,2.8436,2.9942,3.1157,3.119,3.119,3.119,3.119,3.119,3.1151,3.0518,3.0293,3.0123,2.8904,2.8511,2.8415,3.1275,3.1769,3.1918,3.1342,3.0919,3.0312,2.9228,2.904,2.8994,2.8994,2.8301,2.7603,2.709,2.5536,2.4159,2.3289,2.2898,2.2616,2.2338,2.231,2.231,2.231,2.231,2.231,2.231,2.231,2.2237,2.2077,2.3142,2.3504,2.3198,2.2637,2.2389,2.2366,2.2716,2.2626,2.231,2.231,2.231,2.231,2.231,2.231,2.231,2.231,2.231,2.231,2.231,2.231,2.231,2.231,2.231,2.231,2.231,2.231,2.231,2.231,2.231,2.231,2.231,2.231,2.2254,2.2106,2.1735,2.1306,2.0878,2.0577,2.0258,1.9779,2.0064,2.0243,1.9765,1.969,1.9766,2.0003,1.9502,1.9257,1.9667,1.8852,1.8307,1.8758,1.7081,1.6353,1.7484,1.6211,1.5731,1.6665,1.5787,1.5131,1.5006,1.6112,1.7915,2.0497,2.2687,2.4394,2.5712,2.6428,2.6283,2.53,2.6702,2.7742,2.8513,2.9931,3.0836,3.119,3.119,3.119,3.119,3.119,3.119,3.1151,3.0518,3.0293,3.0208,2.9406,2.8873,2.8463,3.2401,3.277,3.2638,3.1579,3.1146,3.0613,2.9604,2.92,2.9104,2.942,2.876,2.8072,2.7611,2.6481,2.5183,2.3768,2.3179,2.273,2.2338,2.2564,2.2598,2.2327,2.2581,2.2581,2.231,2.231,2.2209,2.2032,2.2728,2.3045,2.3017,2.2245,2.2032,2.231,2.231,2.231,2.231,2.231,2.231,2.231,2.231,2.231,2.231,2.231,2.231,2.231,2.231,2.231,2.231,2.231,2.231,2.231,2.231,2.231,2.231,2.231,2.231,2.231,2.231,2.231,2.231,2.231,2.1957,2.1495,2.118,2.0822,2.054,2.046,2.0378,2.0273,2.0109,1.9854,1.9788,2.0042,1.9849,1.9879,2.0347,1.9279,1.8625,1.9057,1.7578,1.6714,1.7175,1.6946,1.6969,1.75,1.7179,1.7272,1.7947,1.8039,1.8976,2.1024,2.3857,2.5608,2.6226,2.7131,2.704,2.5989,2.7736,2.9223,3.0516,3.1566,3.2036,3.2002,3.1715,3.1596,3.1596,3.1596,3.1444,3.1185,3.1082,3.0891,3.0559,2.9935,2.9496,2.9088,3.3243,3.2939,3.243,3.1623,3.0852,3.0356,3.0283,2.9604,2.9342,3.0099,2.9512,2.8571,2.7441,2.7272,2.6518,2.4708,2.3808,2.3065,2.2474,2.3105,2.3173,2.2496,2.3105,2.3122,2.2395,2.2446,2.2224,2.1724,2.1675,2.1658,2.1658,2.2106,2.231,2.231,2.231,2.231,2.231,2.231,2.231,2.231,2.231,2.231,2.231,2.231,2.231,2.231,2.231,2.231,2.231,2.231,2.231,2.231,2.231,2.231,2.231,2.231,2.231,2.231,2.231,2.231,2.2327,2.2361,2.2074,2.1725,2.1525,2.1019,2.0817,2.162,2.0835,2.0173,2.0738,2.0317,1.9882,1.9801,1.975,1.9849,2.0031,1.8959,1.8167,1.819,1.8017,1.7466,1.6448,1.7758,1.8865,1.9306,1.9117,1.9639,2.1114,2.0246,2.0674,2.2802,2.5544,2.7076,2.7303,2.8105,2.7959,2.6894,2.9423,3.1237,3.2334,3.3085,3.3406,3.3372,3.2662,3.2357,3.2357,3.2357,3.1952,3.141,3.2087,3.1918,3.1219,3.0643,3.0384,3.0064,3.3652,3.3588,3.3256,3.2467,3.2173,3.1825,3.1201,3.043,2.9989,3.0173,2.9512,2.8879,2.8607,2.8022,2.7266,2.6313,2.5234,2.4395,2.3998,2.412,2.4154,2.3985,2.4137,2.3883,2.3156,2.368,2.365,2.2958,2.2404,2.2135,2.2135,2.2254,2.231,2.231,2.231,2.231,2.231,2.231,2.231,2.231,2.231,2.231,2.231,2.231,2.231,2.231,2.231,2.231,2.231,2.231,2.231,2.231,2.231,2.231,2.231,2.231,2.231,2.231,2.231,2.231,2.2446,2.3004,2.3243,2.3358,2.3308,2.3275,2.3183,2.2921,2.2995,2.2917,2.213,2.1855,2.1482,2.0618,2.0468,2.0183,1.9453,1.8925,1.8548,1.8315,1.81,1.7928,1.7734,1.8088,1.8686,1.9606,1.9781,2.0594,2.2392,2.3115,2.3543,2.3551,2.5586,2.6937,2.7519,2.8212,2.8951,2.9647,3.1275,3.2187,3.2469,3.3136,3.3406,3.3389,3.322,3.3136,3.3136,3.3136,3.3034,3.2899,3.3068,3.2679,3.2019,3.1881,3.1166,3.0251,3.3807,3.3495,3.3109,3.2687,3.2302,3.2027,3.1953,3.1274,3.0889,3.1256,3.0595,3.0027,2.9879,2.9132,2.8406,2.7921,2.6247,2.4999,2.4537,2.4814,2.4831,2.4523,2.4814,2.4644,2.39,2.3951,2.363,2.2902,2.2513,2.231,2.231,2.231,2.231,2.231,2.231,2.231,2.231,2.231,2.231,2.231,2.231,2.231,2.231,2.231,2.231,2.231,2.231,2.231,2.231,2.231,2.231,2.231,2.231,2.231,2.231,2.231,2.231,2.231,2.231,2.2547,2.2987,2.3714,2.4034,2.4213,2.4298,2.4159,2.4162,2.4526,2.4136,2.3654,2.3397,2.2816,2.2046,2.0888,2.0502,2.002,1.9121,1.8953,1.8862,1.864,1.9331,1.9703,1.9477,1.992,2.0479,2.1143,2.158,2.2526,2.4105,2.5467,2.5779,2.483,2.6549,2.7679,2.8038,2.9031,3.0017,3.1047,3.2378,3.3127,3.3428,3.4105,3.4421,3.4404,3.4049,3.3897,3.3897,3.3897,3.3711,3.344,3.3778,3.3457,3.2747,3.2408,3.184,3.1091,3.3807,3.3256,3.2797,3.2797,3.221,3.199,3.2687,3.21,3.1825,3.2522,3.1898,3.1283,3.0994,3.0314,2.9746,2.9383,2.7494,2.591,2.4999,2.5438,2.549,2.4879,2.5423,2.5423,2.4661,2.3816,2.3139,2.2632,2.2451,2.2349,2.231,2.2349,2.2349,2.231,2.231,2.231,2.231,2.231,2.231,2.231,2.231,2.231,2.231,2.231,2.231,2.231,2.231,2.231,2.231,2.231,2.231,2.2327,2.2446,2.2479,2.2496,2.2598,2.2632,2.2615,2.2513,2.3088,2.3883,2.4492,2.4814,2.5039,2.5227,2.4961,2.504,2.6438,2.5239,2.4131,2.4806,2.3795,2.2471,2.1362,2.0573,1.9908,1.9329,1.9355,1.947,1.9613,2.1233,2.2131,2.1659,2.2496,2.3175,2.3431,2.4053,2.4938,2.6104,2.7533,2.7788,2.6608,2.7996,2.8839,2.9034,3.0299,3.1252,3.1983,3.328,3.4163,3.4692,3.5318,3.5622,3.5588,3.4945,3.4675,3.4675,3.4675,3.4303,3.3795,3.4421,3.415,3.3322,3.2679,3.2307,3.1898,3.3807,3.3697,3.3605,3.3605,3.3513,3.3476,3.3587,3.2926,3.2467,3.2596,3.1898,3.1384,3.1334,3.1199,3.0979,3.0658,3.0278,2.9144,2.6995,2.6635,2.6471,2.6353,2.6471,2.6184,2.5456,2.4103,2.3646,2.4167,2.3127,2.2527,2.231,2.2537,2.2527,2.231,2.231,2.231,2.231,2.231,2.231,2.231,2.231,2.231,2.231,2.231,2.231,2.231,2.231,2.231,2.231,2.231,2.231,2.2412,2.3038,2.3224,2.3342,2.3998,2.4167,2.4002,2.3393,2.4222,2.5287,2.5406,2.637,2.7299,2.7331,2.7786,2.8275,2.8521,2.7914,2.7254,2.6926,2.5827,2.4594,2.3477,2.1972,2.0881,2.0845,2.0827,2.122,2.2331,2.3515,2.4448,2.4896,2.5119,2.5411,2.5883,2.6614,2.7378,2.8291,2.9436,2.9862,2.9303,2.941,2.9993,3.1096,3.1883,3.2918,3.4151,3.4927,3.5346,3.5453,3.5571,3.5622,3.556,3.5504,3.5453,3.5453,3.5453,3.5368,3.5284,3.5402,3.4607,3.3389,3.3271,3.2442,3.1427,3.4376,3.41,3.3935,3.4376,3.41,3.3807,3.3807,3.3476,3.3256,3.3256,3.2926,3.2687,3.2687,3.2302,3.1994,3.1836,3.1016,3.0066,2.893,2.8103,2.7554,2.73,2.6911,2.6167,2.5033,2.4323,2.3765,2.3308,2.275,2.2426,2.231,2.2426,2.2426,2.231,2.231,2.231,2.231,2.231,2.231,2.231,2.231,2.231,2.231,2.231,2.231,2.231,2.231,2.231,2.2361,2.2767,2.2885,2.3021,2.3748,2.3985,2.4052,2.4421,2.4506,2.4523,2.456,2.5372,2.6285,2.6708,2.7638,2.845,2.845,2.8721,2.9093,2.9499,2.9059,2.8423,2.7985,2.6809,2.5587,2.4587,2.2814,2.1697,2.2216,2.2438,2.2899,2.3848,2.5621,2.6905,2.7113,2.717,2.7424,2.8144,2.8088,2.8516,2.9637,3.0201,3.0593,3.0764,3.0691,3.1137,3.2121,3.3537,3.4595,3.5234,3.6323,3.6857,3.684,3.6434,3.6468,3.6806,3.5977,3.5859,3.6214,3.5791,3.5622,3.5622,3.5622,3.4945,3.3981,3.3981,3.3305,3.2343,3.4862,3.4669,3.4578,3.5202,3.4633,3.4082,3.4082,3.3917,3.3807,3.3807,3.3807,3.3862,3.4064,3.3366,3.291,3.3013,3.1812,3.0945,3.0747,2.9867,2.901,2.8236,2.7588,2.6541,2.5052,2.4774,2.404,2.2764,2.2528,2.2371,2.2371,2.2371,2.2377,2.231,2.231,2.231,2.231,2.231,2.231,2.231,2.231,2.231,2.231,2.231,2.231,2.231,2.231,2.2412,2.2649,2.3207,2.3511,2.3765,2.4509,2.4746,2.478,2.498,2.5031,2.5152,2.5913,2.6522,2.7148,2.7909,2.867,2.9296,2.9448,2.9617,2.9956,3.0717,3.0185,2.9483,2.9178,2.7747,2.6401,2.5757,2.3955,2.2951,2.3911,2.4315,2.4881,2.5759,2.7753,2.905,2.9141,2.9143,2.9398,2.9973,2.9469,2.9662,3.0884,3.0971,3.1285,3.1958,3.1894,3.2166,3.2841,3.4751,3.5795,3.5958,3.7261,3.7905,3.7889,3.7313,3.7347,3.7838,3.6671,3.64,3.6738,3.6129,3.5774,3.5622,3.5622,3.5165,3.4489,3.4489,3.3929,3.3048,3.499,3.5605,3.6119,3.6193,3.5495,3.4899,3.4899,3.4284,3.3807,3.3807,3.3807,3.4082,3.4825,3.4192,3.3853,3.4232,3.3814,3.3179,3.2373,3.2025,3.1135,2.9537,2.9123,2.8176,2.6556,2.5568,2.4756,2.4161,2.3163,2.2669,2.2669,2.2669,2.2537,2.231,2.231,2.231,2.231,2.231,2.231,2.231,2.231,2.231,2.231,2.231,2.231,2.231,2.231,2.275,2.3325,2.3376,2.3849,2.4543,2.5287,2.5524,2.5659,2.6336,2.6522,2.6691,2.7452,2.7671,2.7926,2.8704,2.9465,3.0209,3.0869,3.1546,3.2256,3.3,3.2154,3.1324,3.1278,2.9211,2.75,2.7564,2.5986,2.5158,2.6384,2.6683,2.738,2.9029,2.9899,3.0571,3.12,3.126,3.1317,3.1332,3.1332,3.1616,3.2332,3.2362,3.2662,3.3335,3.2828,3.2833,3.3547,3.4953,3.6056,3.6726,3.7533,3.7905,3.7905,3.7838,3.7855,3.7905,3.7787,3.7381,3.6772,3.6721,3.6265,3.5622,3.5622,3.5165,3.4489,3.4489,3.365,3.2566,3.645,3.6413,3.645,3.6945,3.6358,3.5807,3.5807,3.555,3.5349,3.5349,3.5349,3.5477,3.5771,3.5055,3.4614,3.4765,3.4422,3.3828,3.2988,3.3019,3.1951,2.9409,2.916,2.8379,2.68,2.5843,2.5279,2.5108,2.3509,2.3206,2.416,2.3464,2.3317,2.363,2.319,2.2987,2.2953,2.2496,2.231,2.231,2.231,2.231,2.2361,2.2818,2.2987,2.3038,2.3494,2.3833,2.4137,2.4611,2.4949,2.5304,2.6048,2.6285,2.6437,2.7182,2.7385,2.7655,2.8907,2.889,2.8721,2.9482,3.0581,3.1529,3.1799,3.2442,3.3051,3.3339,3.2691,3.1929,3.1582,2.9982,2.8854,2.9076,2.7715,2.7136,2.8505,2.8652,2.9149,3.0642,3.1001,3.1405,3.2078,3.1721,3.1482,3.1482,3.1482,3.1824,3.2482,3.2901,3.3472,3.4237,3.4444,3.4641,3.4894,3.6356,3.7429,3.8159,3.8903,3.9242,3.9242,3.8785,3.8819,3.9208,3.8311,3.8007,3.8125,3.7669,3.7297,3.6992,3.6518,3.5876,3.5182,3.5182,3.4275,3.3179,3.7397,3.7257,3.7221,3.7771,3.7202,3.6578,3.634,3.6303,3.6193,3.5936,3.6138,3.6395,3.6652,3.5679,3.5164,3.5542,3.4739,3.4039,3.3611,3.3674,3.2527,2.9762,2.9751,2.8963,2.7151,2.633,2.5851,2.5729,2.4059,2.3867,2.5045,2.4159,2.4002,2.4489,2.3951,2.3748,2.3697,2.297,2.2784,2.297,2.275,2.2784,2.3054,2.3545,2.3748,2.3799,2.4337,2.4659,2.4915,2.5439,2.5761,2.6065,2.681,2.7215,2.7469,2.774,2.7994,2.8467,2.9753,2.9905,2.9803,3.0328,3.1376,3.2341,3.2577,3.322,3.3769,3.3755,3.3234,3.2659,3.2215,3.0845,2.9938,3.0371,2.9507,2.9109,2.9946,3.0498,3.1061,3.1764,3.2018,3.2332,3.2781,3.2422,3.2063,3.1854,3.2251,3.2935,3.3793,3.4482,3.5074,3.566,3.6102,3.6454,3.668,3.7736,3.8497,3.9005,3.9732,4.007,4.0054,3.9563,3.9597,4.002,3.9022,3.8751,3.8954,3.8447,3.8108,3.7807,3.7059,3.641,3.5911,3.5704,3.4857,3.3871,3.7526,3.8138,3.8707,3.8707,3.8028,3.7221,3.6431,3.6303,3.6009,3.5137,3.5789,3.6615,3.7434,3.6009,3.5488,3.6693,3.4954,3.3972,3.437,3.4035,3.2912,3.09,3.1206,3.0265,2.786,2.7158,2.656,2.6027,2.5016,2.4671,2.5023,2.4658,2.4523,2.4523,2.4523,2.4523,2.4472,2.3714,2.3816,2.4455,2.3697,2.3833,2.4506,2.4523,2.4523,2.4523,2.4523,2.4983,2.5609,2.5609,2.6099,2.6843,2.7588,2.8366,2.8822,2.8061,2.8383,2.9161,2.9922,3.0649,3.1207,3.1207,3.1749,3.2493,3.3237,3.3981,3.4516,3.4587,3.4087,3.3582,3.3519,3.1855,3.0746,3.1362,3.1482,3.13,3.0612,3.2243,3.326,3.2602,3.3095,3.3499,3.3499,3.3484,3.3215,3.2572,3.387,3.5316,3.6742,3.7422,3.7822,3.7822,3.7802,3.8146,3.8891,3.8958,3.8988,3.9005,3.9732,4.007,4.007,4.007,4.007,4.007,4.007,3.9665,3.9005,3.9005,3.8582,3.7826,3.7003,3.6715,3.6612,3.5873,3.514,3.4492,3.834,3.8542,3.8707,3.8707,3.8028,3.7606,3.7936,3.7496,3.7239,3.7569,3.7826,3.8083,3.8322,3.689,3.6043,3.6431,3.5347,3.4687,3.4812,3.4193,3.3276,3.2127,3.1646,3.0797,2.9512,2.8195,2.7574,2.7673,2.603,2.568,2.658,2.5681,2.5541,2.6015,2.5507,2.527,2.522,2.4475,2.432,2.4489,2.4269,2.432,2.4574,2.5067,2.527,2.5338,2.5845,2.6184,2.637,2.637,2.686,2.7621,2.8383,2.8789,2.9042,2.933,2.9583,3.004,3.1292,3.1782,3.1952,3.1952,3.2899,3.3897,3.4117,3.4742,3.5138,3.4686,3.4087,3.3455,3.2944,3.2342,3.1824,3.1511,3.2302,3.2677,3.2003,3.2826,3.3589,3.3858,3.3649,3.3679,3.4143,3.3772,3.3667,3.4032,3.5388,3.6342,3.6774,3.7422,3.8035,3.858,3.8586,3.8924,3.9714,3.9244,3.9242,3.9749,3.9969,4.007,4.007,4.007,4.007,4.007,4.007,3.9952,3.9749,3.9749,3.9631,3.931,3.7998,3.7472,3.7301,3.6066,3.514,3.4554,3.8707,3.8707,3.8707,3.8707,3.8028,3.7643,3.8138,3.7808,3.7661,3.8157,3.8505,3.8707,3.8707,3.7257,3.6431,3.6743,3.5697,3.4844,3.4559,3.4082,3.3587,3.3109,3.2302,3.1347,3.0228,2.9082,2.8476,2.8394,2.7094,2.6831,2.753,2.6835,2.6653,2.6922,2.6461,2.6177,2.5998,2.5236,2.5084,2.5321,2.5033,2.5101,2.5439,2.6201,2.6488,2.659,2.7334,2.7604,2.7604,2.7604,2.8095,2.8755,2.8924,2.9381,2.9888,3.0057,3.0514,3.1157,3.2036,3.2713,3.3152,3.3152,3.3829,3.4489,3.4489,3.5318,3.5816,3.4808,3.4533,3.4191,3.3464,3.3079,3.2961,3.3091,3.3788,3.4196,3.3844,3.4583,3.523,3.5413,3.526,3.5337,3.5753,3.5428,3.5502,3.6269,3.6948,3.7525,3.8089,3.8477,3.8941,3.9368,3.9368,3.961,4.0087,3.9648,3.9648,4.007,4.007,4.007,4.007,4.007,4.007,4.007,4.007,4.007,4.007,4.007,3.9901,3.9508,3.8286,3.7614,3.7215,3.5974,3.5243,3.4942,3.8707,3.8707,3.8707,3.8707,3.8028,3.7514,3.7588,3.7562,3.7544,3.7588,3.8248,3.8707,3.8707,3.7331,3.6688,3.7452,3.5973,3.4642,3.3844,3.3807,3.3807,3.3807,3.3109,3.199,3.0448,2.9893,2.9285,2.8528,2.8138,2.7926,2.7897,2.7897,2.7695,2.7303,2.7303,2.7083,2.6657,2.5981,2.6099,2.664,2.6048,2.6201,2.6877,2.7638,2.7926,2.801,2.8738,2.9011,2.8991,2.9059,2.9533,2.9989,2.9381,3.0142,3.1157,3.0497,3.1292,3.2391,3.2459,3.3474,3.4506,3.4573,3.4641,3.4709,3.4709,3.5825,3.6494,3.5101,3.5353,3.5554,3.479,3.4165,3.4197,3.5406,3.5711,3.5849,3.587,3.6998,3.7566,3.695,3.7406,3.7822,3.7822,3.7863,3.8173,3.8879,3.8474,3.877,4.0037,4.007,4.007,4.007,4.007,4.007,4.007,4.007,4.007,4.007,4.007,4.007,4.007,4.007,4.007,4.007,4.007,4.007,4.0003,4.0003,3.9542,3.8745,3.7962,3.7279,3.6492,3.5782,3.5569,3.5619,3.8707,3.8707,3.8707,3.8707,3.8028,3.7698,3.834,3.79,3.7716,3.8358,3.8597,3.8707,3.8707,3.7826,3.7294,3.7489,3.5973,3.4642,3.3844,3.3807,3.3807,3.3807,3.3623,3.3091,3.21,3.0759,2.9842,2.9349,2.863,2.8156,2.7897,2.7897,2.7695,2.7303,2.7303,2.7083,2.6674,2.6522,2.6539,2.6725,2.7165,2.7435,2.7655,2.8433,2.8738,2.8755,2.8924,2.9011,2.9076,2.9668,2.9973,3.0176,3.0581,3.1326,3.2019,3.185,3.2459,3.3288,3.3863,3.4252,3.4641,3.5233,3.5842,3.6282,3.6282,3.7009,3.7427,3.6519,3.6465,3.6352,3.5649,3.5846,3.6029,3.58,3.6619,3.7154,3.6646,3.7319,3.7758,3.7598,3.771,3.7822,3.7822,3.8302,3.8747,3.8975,3.9379,3.98,4.007,4.007,4.007,4.007,4.007,4.007,4.007,4.007,4.007,4.007,4.007,4.007,4.007,4.007,4.007,4.007,4.007,3.9731,3.9139,3.9139,3.8707,3.7978,3.7144,3.6722,3.6492,3.5782,3.5894,3.6446,3.8707,3.8707,3.8707,3.8707,3.8028,3.7753,3.8579,3.801,3.7771,3.8597,3.8707,3.8707,3.8707,3.7973,3.7331,3.6945,3.6138,3.5275,3.4431,3.4376,3.4211,3.3825,3.3807,3.3605,3.3183,3.1971,3.0869,2.989,2.9853,2.9533,2.9016,2.9394,2.9366,2.8995,2.8785,2.8265,2.7569,2.7725,2.7571,2.73,2.8061,2.8383,2.8467,2.9228,2.9516,2.9567,2.9905,3.004,3.0108,3.0497,3.0852,3.1207,3.1596,3.2222,3.2814,3.2814,3.3339,3.4015,3.4387,3.503,3.5673,3.6079,3.7009,3.7652,3.6941,3.7635,3.8201,3.7448,3.7541,3.7613,3.6853,3.7046,3.7287,3.7286,3.7871,3.8339,3.836,3.8694,3.8887,3.8887,3.8887,3.8887,3.8887,3.9279,3.9511,3.9529,3.9868,4.007,4.007,4.007,4.007,4.007,4.007,4.007,4.007,4.007,4.007,4.007,4.007,4.007,4.007,4.007,4.007,4.007,4.007,3.9662,3.8908,3.8908,3.823,3.7219,3.6783,3.6384,3.6054,3.6054,3.6523,3.7219,3.8707,3.8707,3.8707,3.8707,3.8138,3.7918,3.8597,3.812,3.7936,3.8615,3.8707,3.8707,3.8707,3.8102,3.7422,3.6762,3.6707,3.6285,3.5284,3.4935,3.4504,3.3825,3.3807,3.3807,3.3807,3.3146,3.2082,3.0613,3.1127,3.1054,3.0411,3.1091,3.118,3.0754,3.0368,2.9597,2.8591,2.8866,2.8602,2.8078,2.8856,2.9178,2.9262,3.0006,3.0294,3.0378,3.097,3.119,3.1207,3.1343,3.1782,3.2347,3.2425,3.2983,3.3592,3.3592,3.4117,3.4709,3.4844,3.5808,3.6806,3.6941,3.799,3.8667,3.7432,3.821,3.9008,3.833,3.8672,3.8924,3.8318,3.8206,3.8374,3.9032,3.9086,3.9315,4.002,4.007,4.007,4.007,4.007,4.007,4.007,4.007,4.007,4.007,4.007,4.007,4.007,4.007,4.007,4.007,4.007,4.007,4.007,4.007,4.007,4.007,4.007,4.007,4.007,4.007,4.007,4.007,4.007,3.9662,3.8908,3.8745,3.7873,3.6615,3.643,3.6117,3.5782,3.6676,3.7322,3.7806,3.8707,3.8707,3.8707,3.8707,3.8615,3.8579,3.8689,3.8615,3.8579,3.8689,3.8707,3.8707,3.8707,3.8597,3.8487,3.8377,3.8377,3.7734,3.6211,3.478,3.3917,3.3807,3.3807,3.3807,3.3807,3.3697,3.3201,3.2284,3.1678,3.1329,3.1237,3.1347,3.1011,3.0308,3.0247,2.9719,2.8931,2.896,2.8924,2.889,2.9651,2.9956,3.004,3.0768,3.1055,3.1055,3.1157,3.119,3.1292,3.1918,3.2205,3.2391,3.3051,3.3761,3.4336,3.4336,3.4878,3.5605,3.6282,3.662,3.6941,3.7584,3.8379,3.8937,3.8734,3.9326,3.9918,3.9817,3.9885,3.9901,3.9799,3.9799,3.985,3.9901,3.9952,3.9969,4.007,4.007,4.007,4.007,4.007,4.007,4.007,4.007,4.007,4.007,4.007,4.007,4.007,4.007,4.007,4.007,4.007,4.007,4.007,4.007,4.007,4.007,4.007,4.007,4.007,4.007,4.007,4.007,4.007,3.9662,3.8854,3.8189,3.744,3.6554,3.5894,3.6006,3.6615,3.8044,3.8246,3.7978,3.8707,3.8707,3.8707,3.8707,3.8707,3.8707,3.8707,3.8707,3.8707,3.8707,3.8707,3.8707,3.8707,3.8707,3.8707,3.8707,3.8707,3.8395,3.7698,3.6945,3.6138,3.5238,3.5202,3.4761,3.3825,3.3807,3.3623,3.3275,3.2908,3.2265,3.1403,3.232,3.2547,3.2177,3.1711,3.128,3.0925,3.0455,2.9736,2.9076,3.0243,3.0717,3.0751,3.1072,3.119,3.119,3.119,3.119,3.1241,3.1562,3.2222,3.2966,3.3305,3.4201,3.5115,3.5115,3.574,3.6518,3.6857,3.7483,3.8108,3.843,3.9056,3.9597,3.9597,3.9851,4.007,4.007,4.007,4.007,4.007,4.007,4.007,4.007,4.007,4.007,4.007,4.007,4.007,4.007,4.007,4.007,4.007,4.007,4.007,4.007,4.007,4.007,4.007,4.007,4.007,4.007,4.007,4.007,4.007,4.007,4.007,4.007,4.007,4.007,4.007,4.007,4.007,4.007,4.007,3.9385,3.8246,3.7921,3.7055,3.6006,3.6054,3.6859,3.7987,3.8619,3.8978,3.9172]}]]